Wetterdaten: Sonntag, 03.09.2017
Datum Zeit Temp. A. Pool Temp. Feuchte A. Luftdruck Regen Wind Richtung Richtung Sonnenschein ET UV Solar Taupunkt Windchill Windben Empfang
03.09.2017 00:00 11,2 C 20,0 C 96 % 1015,0 hPa 0,2 l/m 3,1 km/h (1 Bft) W-SW 257 0 min 0,000 mm 0,0 UV-I 0 W/m 10,6 C 11,2 C 4,8 km/h (1 Bft) 97,14 %
03.09.2017 00:02 11,2 C 20,0 C 96 % 1014,9 hPa 0,0 l/m 3,4 km/h (1 Bft) W-NW 284 0 min 0,000 mm 0,0 UV-I 0 W/m 10,6 C 11,2 C 6,4 km/h (2 Bft) 100,00 %
03.09.2017 00:04 11,2 C 20,0 C 97 % 1014,9 hPa 0,0 l/m 2,3 km/h (1 Bft) W 271 0 min 0,000 mm 0,0 UV-I 0 W/m 10,7 C 11,2 C 4,8 km/h (1 Bft) 100,00 %
03.09.2017 00:06 11,2 C 20,0 C 97 % 1014,9 hPa 0,0 l/m 2,7 km/h (1 Bft) W 271 0 min 0,000 mm 0,0 UV-I 0 W/m 10,7 C 11,2 C 4,8 km/h (1 Bft) 100,00 %
03.09.2017 00:08 11,2 C 20,0 C 97 % 1014,8 hPa 0,0 l/m 2,7 km/h (1 Bft) W 271 0 min 0,000 mm 0,0 UV-I 0 W/m 10,7 C 11,2 C 4,8 km/h (1 Bft) 100,00 %
03.09.2017 00:10 11,2 C 20,0 C 97 % 1014,8 hPa 0,2 l/m 3,2 km/h (1 Bft) W 262 0 min 0,000 mm 0,0 UV-I 0 W/m 10,7 C 11,2 C 4,8 km/h (1 Bft) 100,00 %
03.09.2017 00:12 11,2 C 20,0 C 97 % 1014,8 hPa 0,0 l/m 3,5 km/h (1 Bft) W-SW 242 0 min 0,000 mm 0,0 UV-I 0 W/m 10,7 C 11,2 C 4,8 km/h (1 Bft) 100,00 %
03.09.2017 00:14 11,2 C 20,0 C 97 % 1014,8 hPa 0,0 l/m 3,0 km/h (1 Bft) W-SW 244 0 min 0,000 mm 0,0 UV-I 0 W/m 10,7 C 11,2 C 4,8 km/h (1 Bft) 100,00 %
03.09.2017 00:16 11,1 C 20,0 C 97 % 1014,7 hPa 0,0 l/m 2,9 km/h (1 Bft) W-SW 238 0 min 0,000 mm 0,0 UV-I 0 W/m 10,6 C 11,1 C 6,4 km/h (2 Bft) 98,00 %
03.09.2017 00:18 11,1 C 20,0 C 97 % 1014,7 hPa 0,0 l/m 3,7 km/h (1 Bft) W-SW 239 0 min 0,000 mm 0,0 UV-I 0 W/m 10,6 C 11,1 C 6,4 km/h (2 Bft) 97,22 %
03.09.2017 00:20 11,1 C 20,0 C 97 % 1014,7 hPa 0,0 l/m 4,0 km/h (1 Bft) W-SW 241 0 min 0,000 mm 0,0 UV-I 0 W/m 10,6 C 11,1 C 6,4 km/h (2 Bft) 100,00 %
03.09.2017 00:22 11,1 C 20,0 C 97 % 1014,7 hPa 0,2 l/m 4,7 km/h (1 Bft) W-SW 255 0 min 0,000 mm 0,0 UV-I 0 W/m 10,6 C 11,1 C 8,0 km/h (2 Bft) 100,00 %
03.09.2017 00:24 11,1 C 20,0 C 97 % 1014,7 hPa 0,0 l/m 4,2 km/h (1 Bft) W 263 0 min 0,000 mm 0,0 UV-I 0 W/m 10,6 C 11,1 C 6,4 km/h (2 Bft) 100,00 %
03.09.2017 00:26 11,1 C 20,0 C 97 % 1014,7 hPa 0,0 l/m 3,6 km/h (1 Bft) W-SW 256 0 min 0,000 mm 0,0 UV-I 0 W/m 10,6 C 11,1 C 6,4 km/h (2 Bft) 97,87 %
03.09.2017 00:28 11,1 C 20,0 C 97 % 1014,7 hPa 0,0 l/m 3,6 km/h (1 Bft) W 265 0 min 0,000 mm 0,0 UV-I 0 W/m 10,6 C 11,1 C 6,4 km/h (2 Bft) 97,87 %
03.09.2017 00:30 11,1 C 20,0 C 97 % 1014,7 hPa 0,0 l/m 2,6 km/h (1 Bft) W 265 0 min 0,000 mm 0,0 UV-I 0 W/m 10,6 C 11,1 C 4,8 km/h (1 Bft) 95,74 %
03.09.2017 00:32 11,1 C 20,0 C 97 % 1014,8 hPa 0,0 l/m 2,0 km/h (1 Bft) W-SW 253 0 min 0,000 mm 0,0 UV-I 0 W/m 10,6 C 11,1 C 6,4 km/h (2 Bft) 97,87 %
03.09.2017 00:34 11,1 C 20,0 C 97 % 1014,8 hPa 0,2 l/m 4,1 km/h (1 Bft) NW 304 0 min 0,000 mm 0,0 UV-I 0 W/m 10,6 C 11,1 C 9,7 km/h (2 Bft) 100,00 %
03.09.2017 00:36 11,1 C 20,0 C 97 % 1014,9 hPa 0,0 l/m 4,1 km/h (1 Bft) W-SW 257 0 min 0,000 mm 0,0 UV-I 0 W/m 10,6 C 11,1 C 9,7 km/h (2 Bft) 100,00 %
03.09.2017 00:38 11,1 C 20,0 C 97 % 1014,9 hPa 0,0 l/m 1,6 km/h (1 Bft) W-SW 257 0 min 0,000 mm 0,0 UV-I 0 W/m 10,6 C 11,1 C 3,2 km/h (1 Bft) 100,00 %
03.09.2017 00:40 11,1 C 20,0 C 97 % 1014,9 hPa 0,0 l/m 2,4 km/h (1 Bft) W-SW 257 0 min 0,000 mm 0,0 UV-I 0 W/m 10,6 C 11,1 C 4,8 km/h (1 Bft) 100,00 %
03.09.2017 00:42 11,1 C 20,0 C 97 % 1015,0 hPa 0,0 l/m 3,2 km/h (1 Bft) W 265 0 min 0,000 mm 0,0 UV-I 0 W/m 10,6 C 11,1 C 4,8 km/h (1 Bft) 100,00 %
03.09.2017 00:44 11,0 C 20,0 C 97 % 1015,0 hPa 0,0 l/m 4,2 km/h (1 Bft) W 271 0 min 0,000 mm 0,0 UV-I 0 W/m 10,5 C 11,0 C 8,0 km/h (2 Bft) 100,00 %
03.09.2017 00:46 11,0 C 20,0 C 97 % 1014,9 hPa 0,0 l/m 3,0 km/h (1 Bft) W 271 0 min 0,000 mm 0,0 UV-I 0 W/m 10,5 C 11,0 C 4,8 km/h (1 Bft) 100,00 %
03.09.2017 00:48 11,0 C 20,0 C 97 % 1014,9 hPa 0,0 l/m 2,9 km/h (1 Bft) W 271 0 min 0,000 mm 0,0 UV-I 0 W/m 10,5 C 11,0 C 4,8 km/h (1 Bft) 95,74 %
03.09.2017 00:50 11,1 C 20,0 C 97 % 1014,8 hPa 0,2 l/m 4,0 km/h (1 Bft) W-SW 258 0 min 0,000 mm 0,0 UV-I 0 W/m 10,6 C 11,1 C 4,8 km/h (1 Bft) 97,87 %
03.09.2017 00:52 11,0 C 20,0 C 97 % 1014,8 hPa 0,0 l/m 3,3 km/h (1 Bft) W-SW 238 0 min 0,000 mm 0,0 UV-I 0 W/m 10,5 C 11,0 C 6,4 km/h (2 Bft) 100,00 %
03.09.2017 00:54 11,0 C 20,0 C 97 % 1014,8 hPa 0,0 l/m 3,6 km/h (1 Bft) W-SW 243 0 min 0,000 mm 0,0 UV-I 0 W/m 10,5 C 11,0 C 6,4 km/h (2 Bft) 100,00 %
03.09.2017 00:56 11,0 C 20,0 C 96 % 1014,8 hPa 0,0 l/m 4,4 km/h (1 Bft) W-SW 243 0 min 0,000 mm 0,0 UV-I 0 W/m 10,4 C 11,0 C 4,8 km/h (1 Bft) 97,87 %
03.09.2017 00:58 11,0 C 20,0 C 97 % 1014,7 hPa 0,0 l/m 3,2 km/h (1 Bft) W-SW 243 0 min 0,000 mm 0,0 UV-I 0 W/m 10,5 C 11,0 C 4,8 km/h (1 Bft) 100,00 %
03.09.2017 01:00 11,0 C 20,0 C 96 % 1014,7 hPa 0,0 l/m 3,7 km/h (1 Bft) W-SW 244 0 min 0,000 mm 0,0 UV-I 0 W/m 10,4 C 11,0 C 4,8 km/h (1 Bft) 97,87 %
03.09.2017 01:02 11,0 C 20,0 C 96 % 1014,7 hPa 0,2 l/m 4,5 km/h (1 Bft) W-SW 256 0 min 0,000 mm 0,0 UV-I 0 W/m 10,4 C 11,0 C 6,4 km/h (2 Bft) 95,83 %
03.09.2017 01:04 11,0 C 20,0 C 96 % 1014,7 hPa 0,0 l/m 3,7 km/h (1 Bft) W 279 0 min 0,000 mm 0,0 UV-I 0 W/m 10,4 C 11,0 C 6,4 km/h (2 Bft) 100,00 %
03.09.2017 01:06 11,0 C 20,0 C 96 % 1014,7 hPa 0,0 l/m 3,5 km/h (1 Bft) W 277 0 min 0,000 mm 0,0 UV-I 0 W/m 10,4 C 11,0 C 8,0 km/h (2 Bft) 95,74 %
03.09.2017 01:08 11,0 C 20,0 C 97 % 1014,7 hPa 0,0 l/m 1,5 km/h (1 Bft) NW 320 0 min 0,000 mm 0,0 UV-I 0 W/m 10,5 C 11,0 C 4,8 km/h (1 Bft) 95,74 %
03.09.2017 01:10 11,0 C 20,0 C 97 % 1014,6 hPa 0,0 l/m 3,3 km/h (1 Bft) W 266 0 min 0,000 mm 0,0 UV-I 0 W/m 10,5 C 11,0 C 9,7 km/h (2 Bft) 94,74 %
03.09.2017 01:12 11,0 C 20,0 C 96 % 1014,6 hPa 0,2 l/m 3,6 km/h (1 Bft) W-SW 248 0 min 0,000 mm 0,0 UV-I 0 W/m 10,4 C 11,0 C 9,7 km/h (2 Bft) 95,74 %
03.09.2017 01:14 11,0 C 20,0 C 96 % 1014,6 hPa 0,0 l/m 2,2 km/h (1 Bft) W-SW 248 0 min 0,000 mm 0,0 UV-I 0 W/m 10,4 C 11,0 C 3,2 km/h (1 Bft) 95,74 %
03.09.2017 01:16 10,9 C 20,0 C 97 % 1014,6 hPa 0,2 l/m 1,8 km/h (1 Bft) W-SW 248 0 min 0,000 mm 0,0 UV-I 0 W/m 10,4 C 10,9 C 3,2 km/h (1 Bft) 93,62 %
03.09.2017 01:18 10,9 C 20,0 C 97 % 1014,6 hPa 0,0 l/m 3,1 km/h (1 Bft) W-SW 257 0 min 0,000 mm 0,0 UV-I 0 W/m 10,4 C 10,9 C 4,8 km/h (1 Bft) 95,74 %
03.09.2017 01:20 10,9 C 20,0 C 97 % 1014,6 hPa 0,0 l/m 3,4 km/h (1 Bft) W 263 0 min 0,000 mm 0,0 UV-I 0 W/m 10,4 C 10,9 C 4,8 km/h (1 Bft) 93,62 %
03.09.2017 01:22 11,0 C 20,0 C 97 % 1014,6 hPa 0,0 l/m 2,1 km/h (1 Bft) W 263 0 min 0,000 mm 0,0 UV-I 0 W/m 10,5 C 11,0 C 4,8 km/h (1 Bft) 93,62 %
03.09.2017 01:24 11,0 C 20,0 C 97 % 1014,6 hPa 0,2 l/m 2,2 km/h (1 Bft) W-NW 290 0 min 0,000 mm 0,0 UV-I 0 W/m 10,5 C 11,0 C 6,4 km/h (2 Bft) 91,49 %
03.09.2017 01:26 10,9 C 20,0 C 97 % 1014,6 hPa 0,0 l/m 2,4 km/h (1 Bft) W-NW 283 0 min 0,000 mm 0,0 UV-I 0 W/m 10,4 C 10,9 C 4,8 km/h (1 Bft) 95,74 %
03.09.2017 01:28 10,9 C 20,0 C 97 % 1014,5 hPa 0,0 l/m 2,3 km/h (1 Bft) W-NW 283 0 min 0,000 mm 0,0 UV-I 0 W/m 10,4 C 10,9 C 3,2 km/h (1 Bft) 93,62 %
03.09.2017 01:30 10,9 C 20,0 C 97 % 1014,5 hPa 0,0 l/m 2,2 km/h (1 Bft) SW 234 0 min 0,000 mm 0,0 UV-I 0 W/m 10,4 C 10,9 C 4,8 km/h (1 Bft) 95,74 %
03.09.2017 01:32 10,9 C 20,0 C 97 % 1014,5 hPa 0,0 l/m 3,2 km/h (1 Bft) W 274 0 min 0,000 mm 0,0 UV-I 0 W/m 10,4 C 10,9 C 9,7 km/h (2 Bft) 95,74 %
03.09.2017 01:34 10,9 C 20,0 C 97 % 1014,5 hPa 0,0 l/m 2,2 km/h (1 Bft) W 274 0 min 0,000 mm 0,0 UV-I 0 W/m 10,4 C 10,9 C 4,8 km/h (1 Bft) 95,74 %
03.09.2017 01:36 10,9 C 20,0 C 97 % 1014,5 hPa 0,2 l/m 2,6 km/h (1 Bft) W 274 0 min 0,000 mm 0,0 UV-I 0 W/m 10,4 C 10,9 C 6,4 km/h (2 Bft) 95,74 %
03.09.2017 01:38 10,9 C 20,0 C 97 % 1014,5 hPa 0,0 l/m 2,8 km/h (1 Bft) W 274 0 min 0,000 mm 0,0 UV-I 0 W/m 10,4 C 10,9 C 4,8 km/h (1 Bft) 91,67 %
03.09.2017 01:40 11,0 C 20,0 C 97 % 1014,5 hPa 0,0 l/m 3,8 km/h (1 Bft) W-SW 248 0 min 0,000 mm 0,0 UV-I 0 W/m 10,5 C 11,0 C 6,4 km/h (2 Bft) 96,00 %
03.09.2017 01:42 10,9 C 20,0 C 97 % 1014,4 hPa 0,0 l/m 2,7 km/h (1 Bft) W-SW 248 0 min 0,000 mm 0,0 UV-I 0 W/m 10,4 C 10,9 C 6,4 km/h (2 Bft) 97,87 %
03.09.2017 01:44 10,9 C 20,0 C 97 % 1014,4 hPa 0,0 l/m 5,6 km/h (1 Bft) W 271 0 min 0,000 mm 0,0 UV-I 0 W/m 10,4 C 10,9 C 9,7 km/h (2 Bft) 97,87 %
03.09.2017 01:46 11,0 C 20,0 C 97 % 1014,4 hPa 0,0 l/m 3,5 km/h (1 Bft) W 277 0 min 0,000 mm 0,0 UV-I 0 W/m 10,5 C 11,0 C 4,8 km/h (1 Bft) 95,74 %
03.09.2017 01:48 11,0 C 20,0 C 97 % 1014,4 hPa 0,2 l/m 4,2 km/h (1 Bft) W-SW 244 0 min 0,000 mm 0,0 UV-I 0 W/m 10,5 C 11,0 C 6,4 km/h (2 Bft) 93,62 %
03.09.2017 01:50 10,9 C 20,0 C 97 % 1014,4 hPa 0,0 l/m 3,4 km/h (1 Bft) W-SW 244 0 min 0,000 mm 0,0 UV-I 0 W/m 10,4 C 10,9 C 6,4 km/h (2 Bft) 97,37 %
03.09.2017 01:52 11,0 C 20,0 C 97 % 1014,4 hPa 0,0 l/m 2,2 km/h (1 Bft) W-SW 245 0 min 0,000 mm 0,0 UV-I 0 W/m 10,5 C 11,0 C 4,8 km/h (1 Bft) 93,62 %
03.09.2017 01:54 11,0 C 20,0 C 97 % 1014,4 hPa 0,0 l/m 3,7 km/h (1 Bft) W-SW 246 0 min 0,000 mm 0,0 UV-I 0 W/m 10,5 C 11,0 C 6,4 km/h (2 Bft) 96,00 %
03.09.2017 01:56 11,0 C 20,0 C 97 % 1014,3 hPa 0,2 l/m 3,0 km/h (1 Bft) W-SW 247 0 min 0,000 mm 0,0 UV-I 0 W/m 10,5 C 11,0 C 6,4 km/h (2 Bft) 100,00 %
03.09.2017 01:58 11,0 C 20,0 C 97 % 1014,3 hPa 0,0 l/m 3,1 km/h (1 Bft) W-SW 252 0 min 0,000 mm 0,0 UV-I 0 W/m 10,5 C 11,0 C 4,8 km/h (1 Bft) 100,00 %
03.09.2017 02:00 11,0 C 20,0 C 97 % 1014,4 hPa 0,0 l/m 2,3 km/h (1 Bft) W-SW 252 0 min 0,000 mm 0,0 UV-I 0 W/m 10,5 C 11,0 C 3,2 km/h (1 Bft) 100,00 %
03.09.2017 02:02 11,0 C 19,4 C 97 % 1014,3 hPa 0,0 l/m 2,1 km/h (1 Bft) W-SW 252 0 min 0,000 mm 0,0 UV-I 0 W/m 10,5 C 11,0 C 3,2 km/h (1 Bft) 100,00 %
03.09.2017 02:04 11,0 C 19,4 C 97 % 1014,3 hPa 0,2 l/m 3,3 km/h (1 Bft) W-SW 244 0 min 0,000 mm 0,0 UV-I 0 W/m 10,5 C 11,0 C 6,4 km/h (2 Bft) 100,00 %
03.09.2017 02:06 11,0 C 19,4 C 97 % 1014,3 hPa 0,0 l/m 2,5 km/h (1 Bft) W-SW 244 0 min 0,000 mm 0,0 UV-I 0 W/m 10,5 C 11,0 C 4,8 km/h (1 Bft) 100,00 %
03.09.2017 02:08 11,0 C 19,4 C 97 % 1014,3 hPa 0,0 l/m 2,5 km/h (1 Bft) W 273 0 min 0,000 mm 0,0 UV-I 0 W/m 10,5 C 11,0 C 6,4 km/h (2 Bft) 100,00 %
03.09.2017 02:10 11,0 C 19,4 C 97 % 1014,3 hPa 0,2 l/m 1,1 km/h (1 Bft) W 273 0 min 0,000 mm 0,0 UV-I 0 W/m 10,5 C 11,0 C 3,2 km/h (1 Bft) 97,87 %
03.09.2017 02:12 11,0 C 19,4 C 97 % 1014,3 hPa 0,0 l/m 3,1 km/h (1 Bft) W 261 0 min 0,000 mm 0,0 UV-I 0 W/m 10,5 C 11,0 C 4,8 km/h (1 Bft) 100,00 %
03.09.2017 02:14 11,1 C 19,4 C 97 % 1014,3 hPa 0,0 l/m 3,6 km/h (1 Bft) SW 229 0 min 0,000 mm 0,0 UV-I 0 W/m 10,6 C 11,1 C 6,4 km/h (2 Bft) 98,11 %
03.09.2017 02:16 11,1 C 19,4 C 97 % 1014,3 hPa 0,2 l/m 3,3 km/h (1 Bft) W-SW 253 0 min 0,000 mm 0,0 UV-I 0 W/m 10,6 C 11,1 C 4,8 km/h (1 Bft) 98,11 %
03.09.2017 02:18 11,1 C 19,4 C 97 % 1014,3 hPa 0,0 l/m 2,8 km/h (1 Bft) W-SW 253 0 min 0,000 mm 0,0 UV-I 0 W/m 10,6 C 11,1 C 4,8 km/h (1 Bft) 100,00 %
03.09.2017 02:20 11,1 C 19,4 C 97 % 1014,2 hPa 0,0 l/m 2,8 km/h (1 Bft) W-SW 253 0 min 0,000 mm 0,0 UV-I 0 W/m 10,6 C 11,1 C 4,8 km/h (1 Bft) 100,00 %
03.09.2017 02:22 11,1 C 19,4 C 97 % 1014,3 hPa 0,0 l/m 3,6 km/h (1 Bft) W-SW 253 0 min 0,000 mm 0,0 UV-I 0 W/m 10,6 C 11,1 C 6,4 km/h (2 Bft) 100,00 %
03.09.2017 02:24 11,1 C 19,4 C 97 % 1014,3 hPa 0,0 l/m 3,5 km/h (1 Bft) W 261 0 min 0,000 mm 0,0 UV-I 0 W/m 10,6 C 11,1 C 6,4 km/h (2 Bft) 100,00 %
03.09.2017 02:26 11,1 C 19,4 C 97 % 1014,3 hPa 0,2 l/m 3,6 km/h (1 Bft) SW 230 0 min 0,000 mm 0,0 UV-I 0 W/m 10,6 C 11,1 C 6,4 km/h (2 Bft) 100,00 %
03.09.2017 02:28 11,1 C 19,4 C 97 % 1014,3 hPa 0,0 l/m 3,9 km/h (1 Bft) W 263 0 min 0,000 mm 0,0 UV-I 0 W/m 10,6 C 11,1 C 6,4 km/h (2 Bft) 100,00 %
03.09.2017 02:30 11,1 C 19,4 C 97 % 1014,3 hPa 0,2 l/m 2,8 km/h (1 Bft) W 263 0 min 0,000 mm 0,0 UV-I 0 W/m 10,6 C 11,1 C 6,4 km/h (2 Bft) 95,74 %
03.09.2017 02:32 11,1 C 19,4 C 97 % 1014,3 hPa 0,2 l/m 6,0 km/h (2 Bft) W-SW 249 0 min 0,000 mm 0,0 UV-I 0 W/m 10,6 C 11,1 C 9,7 km/h (2 Bft) 100,00 %
03.09.2017 02:34 11,1 C 19,4 C 97 % 1014,2 hPa 0,2 l/m 5,6 km/h (1 Bft) W-SW 257 0 min 0,000 mm 0,0 UV-I 0 W/m 10,6 C 11,1 C 11,3 km/h (2 Bft) 100,00 %
03.09.2017 02:36 11,1 C 19,4 C 97 % 1014,2 hPa 0,0 l/m 4,5 km/h (1 Bft) W 260 0 min 0,000 mm 0,0 UV-I 0 W/m 10,6 C 11,1 C 6,4 km/h (2 Bft) 98,04 %
03.09.2017 02:38 11,1 C 19,4 C 97 % 1014,2 hPa 0,2 l/m 4,7 km/h (1 Bft) W-SW 243 0 min 0,000 mm 0,0 UV-I 0 W/m 10,6 C 11,1 C 8,0 km/h (2 Bft) 100,00 %
03.09.2017 02:40 11,1 C 19,4 C 97 % 1014,2 hPa 0,0 l/m 4,2 km/h (1 Bft) W-SW 253 0 min 0,000 mm 0,0 UV-I 0 W/m 10,6 C 11,1 C 6,4 km/h (2 Bft) 100,00 %
03.09.2017 02:42 11,1 C 19,4 C 97 % 1014,2 hPa 0,2 l/m 5,1 km/h (1 Bft) W-SW 257 0 min 0,000 mm 0,0 UV-I 0 W/m 10,6 C 11,1 C 6,4 km/h (2 Bft) 100,00 %
03.09.2017 02:44 11,1 C 19,4 C 97 % 1014,2 hPa 0,0 l/m 4,7 km/h (1 Bft) W 261 0 min 0,000 mm 0,0 UV-I 0 W/m 10,6 C 11,1 C 6,4 km/h (2 Bft) 97,87 %
03.09.2017 02:46 11,1 C 19,4 C 97 % 1014,2 hPa 0,0 l/m 6,1 km/h (2 Bft) W-SW 245 0 min 0,000 mm 0,0 UV-I 0 W/m 10,6 C 11,1 C 8,0 km/h (2 Bft) 100,00 %
03.09.2017 02:48 11,2 C 19,4 C 97 % 1014,2 hPa 0,0 l/m 5,4 km/h (1 Bft) W-SW 257 0 min 0,000 mm 0,0 UV-I 0 W/m 10,7 C 11,2 C 11,3 km/h (2 Bft) 100,00 %
03.09.2017 02:50 11,1 C 19,4 C 97 % 1014,2 hPa 0,2 l/m 5,3 km/h (1 Bft) W-SW 248 0 min 0,000 mm 0,0 UV-I 0 W/m 10,6 C 11,1 C 8,0 km/h (2 Bft) 100,00 %
03.09.2017 02:52 11,2 C 19,4 C 97 % 1014,2 hPa 0,0 l/m 4,6 km/h (1 Bft) W 259 0 min 0,000 mm 0,0 UV-I 0 W/m 10,7 C 11,2 C 8,0 km/h (2 Bft) 100,00 %
03.09.2017 02:54 11,2 C 19,4 C 97 % 1014,2 hPa 0,0 l/m 4,3 km/h (1 Bft) W 261 0 min 0,000 mm 0,0 UV-I 0 W/m 10,7 C 11,2 C 6,4 km/h (2 Bft) 100,00 %
03.09.2017 02:56 11,2 C 19,4 C 97 % 1014,2 hPa 0,0 l/m 3,8 km/h (1 Bft) W 269 0 min 0,000 mm 0,0 UV-I 0 W/m 10,7 C 11,2 C 8,0 km/h (2 Bft) 97,92 %
03.09.2017 02:58 11,2 C 19,4 C 97 % 1014,2 hPa 0,2 l/m 3,1 km/h (1 Bft) W 268 0 min 0,000 mm 0,0 UV-I 0 W/m 10,7 C 11,2 C 4,8 km/h (1 Bft) 100,00 %
03.09.2017 03:00 11,2 C 19,4 C 97 % 1014,2 hPa 0,0 l/m 4,4 km/h (1 Bft) W-SW 250 0 min 0,000 mm 0,0 UV-I 0 W/m 10,7 C 11,2 C 6,4 km/h (2 Bft) 100,00 %
03.09.2017 03:02 11,2 C 19,4 C 97 % 1014,2 hPa 0,0 l/m 4,2 km/h (1 Bft) W 271 0 min 0,000 mm 0,0 UV-I 0 W/m 10,7 C 11,2 C 6,4 km/h (2 Bft) 100,00 %
03.09.2017 03:04 11,2 C 19,4 C 97 % 1014,2 hPa 0,0 l/m 4,8 km/h (1 Bft) W-SW 247 0 min 0,000 mm 0,0 UV-I 0 W/m 10,7 C 11,2 C 8,0 km/h (2 Bft) 98,00 %
03.09.2017 03:06 11,2 C 19,4 C 97 % 1014,2 hPa 0,0 l/m 3,9 km/h (1 Bft) W-SW 247 0 min 0,000 mm 0,0 UV-I 0 W/m 10,7 C 11,2 C 6,4 km/h (2 Bft) 97,87 %
03.09.2017 03:08 11,2 C 19,4 C 97 % 1014,2 hPa 0,2 l/m 5,0 km/h (1 Bft) W 263 0 min 0,000 mm 0,0 UV-I 0 W/m 10,7 C 11,2 C 6,4 km/h (2 Bft) 97,87 %
03.09.2017 03:10 11,2 C 19,4 C 97 % 1014,1 hPa 0,0 l/m 5,4 km/h (1 Bft) W-SW 248 0 min 0,000 mm 0,0 UV-I 0 W/m 10,7 C 11,2 C 8,0 km/h (2 Bft) 98,00 %
03.09.2017 03:12 11,2 C 19,4 C 97 % 1014,1 hPa 0,0 l/m 4,5 km/h (1 Bft) W-SW 249 0 min 0,000 mm 0,0 UV-I 0 W/m 10,7 C 11,2 C 6,4 km/h (2 Bft) 97,37 %
03.09.2017 03:14 11,2 C 19,4 C 97 % 1014,1 hPa 0,2 l/m 5,2 km/h (1 Bft) W-SW 254 0 min 0,000 mm 0,0 UV-I 0 W/m 10,7 C 11,2 C 11,3 km/h (2 Bft) 98,00 %
03.09.2017 03:16 11,2 C 19,4 C 97 % 1014,1 hPa 0,0 l/m 5,0 km/h (1 Bft) W-SW 248 0 min 0,000 mm 0,0 UV-I 0 W/m 10,7 C 11,2 C 8,0 km/h (2 Bft) 98,00 %
03.09.2017 03:18 11,2 C 19,4 C 97 % 1014,1 hPa 0,0 l/m 5,9 km/h (2 Bft) W-SW 250 0 min 0,000 mm 0,0 UV-I 0 W/m 10,7 C 11,2 C 8,0 km/h (2 Bft) 96,00 %
03.09.2017 03:21 11,2 C 19,4 C 97 % 1014,1 hPa 0,0 l/m 5,6 km/h (1 Bft) SW 236 0 min 0,000 mm 0,0 UV-I 0 W/m 10,7 C 11,2 C 9,7 km/h (2 Bft) 97,18 %
03.09.2017 03:22 11,2 C 19,4 C 97 % 1014,1 hPa 0,0 l/m 5,7 km/h (1 Bft) W-SW 246 0 min 0,000 mm 0,0 UV-I 0 W/m 10,7 C 11,2 C 8,0 km/h (2 Bft) 100,00 %
03.09.2017 03:24 11,2 C 19,4 C 97 % 1014,0 hPa 0,0 l/m 5,6 km/h (1 Bft) W-SW 251 0 min 0,000 mm 0,0 UV-I 0 W/m 10,7 C 11,2 C 9,7 km/h (2 Bft) 96,61 %
03.09.2017 03:26 11,2 C 19,4 C 97 % 1014,0 hPa 0,2 l/m 5,9 km/h (2 Bft) W-SW 252 0 min 0,000 mm 0,0 UV-I 0 W/m 10,7 C 11,2 C 8,0 km/h (2 Bft) 97,87 %
03.09.2017 03:28 11,2 C 19,4 C 97 % 1014,0 hPa 0,0 l/m 5,9 km/h (2 Bft) SW 231 0 min 0,000 mm 0,0 UV-I 0 W/m 10,7 C 11,2 C 9,7 km/h (2 Bft) 97,44 %
03.09.2017 03:30 11,2 C 19,4 C 97 % 1014,0 hPa 0,0 l/m 5,9 km/h (2 Bft) W 265 0 min 0,000 mm 0,0 UV-I 0 W/m 10,7 C 11,2 C 11,3 km/h (2 Bft) 95,74 %
03.09.2017 03:32 11,2 C 19,4 C 97 % 1014,0 hPa 0,0 l/m 3,6 km/h (1 Bft) W 266 0 min 0,000 mm 0,0 UV-I 0 W/m 10,7 C 11,2 C 6,4 km/h (2 Bft) 96,00 %
03.09.2017 03:34 11,2 C 19,4 C 97 % 1014,0 hPa 0,2 l/m 6,8 km/h (2 Bft) W 259 0 min 0,000 mm 0,0 UV-I 0 W/m 10,7 C 10,9 C 11,3 km/h (2 Bft) 95,74 %
03.09.2017 03:36 11,2 C 19,4 C 97 % 1013,9 hPa 0,0 l/m 5,9 km/h (2 Bft) W-SW 252 0 min 0,000 mm 0,0 UV-I 0 W/m 10,7 C 11,2 C 11,3 km/h (2 Bft) 97,83 %
03.09.2017 03:38 11,2 C 19,4 C 97 % 1013,9 hPa 0,0 l/m 8,0 km/h (2 Bft) W-SW 246 0 min 0,000 mm 0,0 UV-I 0 W/m 10,7 C 10,1 C 12,9 km/h (3 Bft) 97,44 %
03.09.2017 03:40 11,2 C 19,4 C 97 % 1013,9 hPa 0,0 l/m 8,2 km/h (2 Bft) W-SW 257 0 min 0,000 mm 0,0 UV-I 0 W/m 10,7 C 10,0 C 14,5 km/h (3 Bft) 98,00 %
03.09.2017 03:42 11,2 C 19,4 C 97 % 1013,9 hPa 0,2 l/m 6,8 km/h (2 Bft) W 271 0 min 0,000 mm 0,0 UV-I 0 W/m 10,7 C 10,9 C 12,9 km/h (3 Bft) 95,74 %
03.09.2017 03:44 11,2 C 19,4 C 97 % 1013,9 hPa 0,0 l/m 6,2 km/h (2 Bft) W-NW 294 0 min 0,000 mm 0,0 UV-I 0 W/m 10,7 C 11,2 C 9,7 km/h (2 Bft) 100,00 %
03.09.2017 03:46 11,2 C 19,4 C 97 % 1013,9 hPa 0,0 l/m 4,8 km/h (1 Bft) W-SW 240 0 min 0,000 mm 0,0 UV-I 0 W/m 10,7 C 11,2 C 6,4 km/h (2 Bft) 98,15 %
03.09.2017 03:48 11,2 C 19,4 C 97 % 1013,9 hPa 0,0 l/m 5,8 km/h (2 Bft) W-SW 243 0 min 0,000 mm 0,0 UV-I 0 W/m 10,7 C 11,2 C 9,7 km/h (2 Bft) 94,74 %
03.09.2017 03:50 11,2 C 19,4 C 97 % 1013,9 hPa 0,0 l/m 5,0 km/h (1 Bft) W-SW 238 0 min 0,000 mm 0,0 UV-I 0 W/m 10,7 C 11,2 C 6,4 km/h (2 Bft) 100,00 %
03.09.2017 03:52 11,2 C 19,4 C 97 % 1013,9 hPa 0,2 l/m 7,5 km/h (2 Bft) W-SW 254 0 min 0,000 mm 0,0 UV-I 0 W/m 10,7 C 10,4 C 12,9 km/h (3 Bft) 97,92 %
03.09.2017 03:54 11,2 C 19,4 C 97 % 1013,9 hPa 0,0 l/m 6,8 km/h (2 Bft) W-SW 250 0 min 0,000 mm 0,0 UV-I 0 W/m 10,7 C 10,9 C 12,9 km/h (3 Bft) 97,87 %
03.09.2017 03:56 11,2 C 19,4 C 97 % 1013,8 hPa 0,0 l/m 8,6 km/h (2 Bft) W-SW 254 0 min 0,000 mm 0,0 UV-I 0 W/m 10,7 C 9,7 C 14,5 km/h (3 Bft) 97,92 %
03.09.2017 03:58 11,2 C 19,4 C 97 % 1013,9 hPa 0,0 l/m 7,4 km/h (2 Bft) W-SW 243 0 min 0,000 mm 0,0 UV-I 0 W/m 10,7 C 10,5 C 12,9 km/h (3 Bft) 98,00 %
03.09.2017 04:00 11,2 C 19,4 C 97 % 1013,8 hPa 0,0 l/m 6,1 km/h (2 Bft) W-SW 257 0 min 0,000 mm 0,0 UV-I 0 W/m 10,7 C 11,2 C 11,3 km/h (2 Bft) 97,87 %
03.09.2017 04:04 11,2 C 19,4 C 97 % 1013,8 hPa 0,2 l/m 6,0 km/h (2 Bft) W-SW 254 0 min 0,000 mm 0,0 UV-I 0 W/m 10,7 C 11,2 C 11,3 km/h (2 Bft) 100,00 %
03.09.2017 04:06 11,2 C 19,4 C 97 % 1013,8 hPa 0,0 l/m 6,6 km/h (2 Bft) W 265 0 min 0,000 mm 0,0 UV-I 0 W/m 10,7 C 11,1 C 11,3 km/h (2 Bft) 94,29 %
03.09.2017 04:08 11,2 C 19,4 C 97 % 1013,8 hPa 0,0 l/m 7,4 km/h (2 Bft) SW 232 0 min 0,000 mm 0,0 UV-I 0 W/m 10,7 C 10,5 C 12,9 km/h (3 Bft) 100,00 %
03.09.2017 04:10 11,2 C 19,4 C 97 % 1013,9 hPa 0,0 l/m 6,7 km/h (2 Bft) W-SW 245 0 min 0,000 mm 0,0 UV-I 0 W/m 10,7 C 11,0 C 9,7 km/h (2 Bft) 100,00 %
03.09.2017 04:12 11,1 C 19,4 C 97 % 1013,8 hPa 0,2 l/m 7,2 km/h (2 Bft) W-SW 254 0 min 0,000 mm 0,0 UV-I 0 W/m 10,6 C 10,5 C 11,3 km/h (2 Bft) 100,00 %
03.09.2017 04:14 11,2 C 19,4 C 97 % 1013,8 hPa 0,0 l/m 5,2 km/h (1 Bft) SW 228 0 min 0,000 mm 0,0 UV-I 0 W/m 10,7 C 11,2 C 9,7 km/h (2 Bft) 97,87 %
03.09.2017 04:16 11,1 C 19,4 C 97 % 1013,9 hPa 0,0 l/m 6,8 km/h (2 Bft) W 259 0 min 0,000 mm 0,0 UV-I 0 W/m 10,6 C 10,8 C 11,3 km/h (2 Bft) 97,87 %
03.09.2017 04:18 11,1 C 19,4 C 97 % 1013,9 hPa 0,0 l/m 7,8 km/h (2 Bft) W-SW 249 0 min 0,000 mm 0,0 UV-I 0 W/m 10,6 C 10,1 C 12,9 km/h (3 Bft) 97,87 %
03.09.2017 04:20 11,1 C 19,4 C 97 % 1013,8 hPa 0,0 l/m 7,6 km/h (2 Bft) W 265 0 min 0,000 mm 0,0 UV-I 0 W/m 10,6 C 10,3 C 12,9 km/h (3 Bft) 97,87 %
03.09.2017 04:22 11,1 C 19,4 C 97 % 1013,8 hPa 0,0 l/m 6,2 km/h (2 Bft) SW 233 0 min 0,000 mm 0,0 UV-I 0 W/m 10,6 C 11,1 C 11,3 km/h (2 Bft) 97,87 %
03.09.2017 04:24 11,1 C 19,4 C 97 % 1013,9 hPa 0,2 l/m 7,1 km/h (2 Bft) W-SW 244 0 min 0,000 mm 0,0 UV-I 0 W/m 10,6 C 10,6 C 11,3 km/h (2 Bft) 100,00 %
03.09.2017 04:26 11,1 C 19,4 C 97 % 1013,9 hPa 0,0 l/m 8,2 km/h (2 Bft) W-SW 256 0 min 0,000 mm 0,0 UV-I 0 W/m 10,6 C 9,9 C 12,9 km/h (3 Bft) 97,87 %
03.09.2017 04:28 11,1 C 19,4 C 97 % 1013,9 hPa 0,0 l/m 4,1 km/h (1 Bft) W-SW 255 0 min 0,000 mm 0,0 UV-I 0 W/m 10,6 C 11,1 C 6,4 km/h (2 Bft) 100,00 %
03.09.2017 04:30 11,1 C 19,4 C 97 % 1013,9 hPa 0,2 l/m 3,4 km/h (1 Bft) W-SW 244 0 min 0,000 mm 0,0 UV-I 0 W/m 10,6 C 11,1 C 6,4 km/h (2 Bft) 100,00 %
03.09.2017 04:32 11,1 C 19,4 C 97 % 1013,9 hPa 0,0 l/m 4,3 km/h (1 Bft) W-SW 254 0 min 0,000 mm 0,0 UV-I 0 W/m 10,6 C 11,1 C 11,3 km/h (2 Bft) 100,00 %
03.09.2017 04:34 11,1 C 19,4 C 97 % 1013,9 hPa 0,2 l/m 4,7 km/h (1 Bft) W-SW 257 0 min 0,000 mm 0,0 UV-I 0 W/m 10,6 C 11,1 C 6,4 km/h (2 Bft) 97,87 %
03.09.2017 04:36 11,1 C 19,4 C 97 % 1013,9 hPa 0,2 l/m 4,8 km/h (1 Bft) W-SW 248 0 min 0,000 mm 0,0 UV-I 0 W/m 10,6 C 11,1 C 8,0 km/h (2 Bft) 97,87 %
03.09.2017 04:38 11,1 C 19,4 C 97 % 1013,9 hPa 0,0 l/m 3,0 km/h (1 Bft) W-SW 243 0 min 0,000 mm 0,0 UV-I 0 W/m 10,6 C 11,1 C 6,4 km/h (2 Bft) 97,87 %
03.09.2017 04:40 11,1 C 19,4 C 97 % 1013,9 hPa 0,2 l/m 5,0 km/h (1 Bft) W-SW 243 0 min 0,000 mm 0,0 UV-I 0 W/m 10,6 C 11,1 C 6,4 km/h (2 Bft) 97,14 %
03.09.2017 04:42 11,1 C 19,4 C 97 % 1013,9 hPa 0,2 l/m 3,3 km/h (1 Bft) W-SW 241 0 min 0,000 mm 0,0 UV-I 0 W/m 10,6 C 11,1 C 4,8 km/h (1 Bft) 91,49 %
03.09.2017 04:44 11,1 C 19,4 C 97 % 1013,9 hPa 0,0 l/m 3,4 km/h (1 Bft) W-SW 246 0 min 0,000 mm 0,0 UV-I 0 W/m 10,6 C 11,1 C 6,4 km/h (2 Bft) 98,00 %
03.09.2017 04:46 11,1 C 19,4 C 97 % 1014,0 hPa 0,2 l/m 3,2 km/h (1 Bft) W-SW 252 0 min 0,000 mm 0,0 UV-I 0 W/m 10,6 C 11,1 C 6,4 km/h (2 Bft) 95,74 %
03.09.2017 04:48 11,1 C 19,4 C 97 % 1013,9 hPa 0,0 l/m 4,6 km/h (1 Bft) W-SW 256 0 min 0,000 mm 0,0 UV-I 0 W/m 10,6 C 11,1 C 9,7 km/h (2 Bft) 98,00 %
03.09.2017 04:50 11,1 C 19,4 C 97 % 1013,9 hPa 0,2 l/m 4,2 km/h (1 Bft) SW 232 0 min 0,000 mm 0,0 UV-I 0 W/m 10,6 C 11,1 C 6,4 km/h (2 Bft) 97,87 %
03.09.2017 04:52 11,1 C 19,4 C 97 % 1013,9 hPa 0,0 l/m 5,8 km/h (2 Bft) SW 230 0 min 0,000 mm 0,0 UV-I 0 W/m 10,6 C 11,1 C 8,0 km/h (2 Bft) 98,00 %
03.09.2017 04:54 11,1 C 19,4 C 97 % 1013,9 hPa 0,2 l/m 7,0 km/h (2 Bft) W-SW 257 0 min 0,000 mm 0,0 UV-I 0 W/m 10,6 C 10,7 C 11,3 km/h (2 Bft) 97,44 %
03.09.2017 04:56 11,1 C 19,4 C 97 % 1013,8 hPa 0,0 l/m 7,9 km/h (2 Bft) W-SW 252 0 min 0,000 mm 0,0 UV-I 0 W/m 10,6 C 10,1 C 11,3 km/h (2 Bft) 96,00 %
03.09.2017 04:58 11,1 C 19,4 C 97 % 1013,8 hPa 0,0 l/m 5,2 km/h (1 Bft) SW 231 0 min 0,000 mm 0,0 UV-I 0 W/m 10,6 C 11,1 C 11,3 km/h (2 Bft) 98,00 %
03.09.2017 05:00 11,1 C 19,4 C 97 % 1013,8 hPa 0,0 l/m 5,0 km/h (1 Bft) W-SW 240 0 min 0,000 mm 0,0 UV-I 0 W/m 10,6 C 11,1 C 8,0 km/h (2 Bft) 95,74 %
03.09.2017 05:02 11,1 C 19,4 C 97 % 1013,8 hPa 0,2 l/m 3,7 km/h (1 Bft) W-NW 293 0 min 0,000 mm 0,0 UV-I 0 W/m 10,6 C 11,1 C 6,4 km/h (2 Bft) 95,74 %
03.09.2017 05:04 11,1 C 19,4 C 97 % 1013,8 hPa 0,0 l/m 7,9 km/h (2 Bft) W-SW 257 0 min 0,000 mm 0,0 UV-I 0 W/m 10,6 C 10,1 C 12,9 km/h (3 Bft) 97,87 %
03.09.2017 05:06 11,1 C 19,4 C 97 % 1013,8 hPa 0,0 l/m 7,5 km/h (2 Bft) W-SW 255 0 min 0,000 mm 0,0 UV-I 0 W/m 10,6 C 10,3 C 12,9 km/h (3 Bft) 93,62 %
03.09.2017 05:08 11,1 C 19,4 C 97 % 1013,8 hPa 0,0 l/m 4,9 km/h (1 Bft) W-SW 244 0 min 0,000 mm 0,0 UV-I 0 W/m 10,6 C 11,1 C 9,7 km/h (2 Bft) 97,37 %
03.09.2017 05:10 11,1 C 19,4 C 97 % 1013,9 hPa 0,2 l/m 6,2 km/h (2 Bft) W-SW 247 0 min 0,000 mm 0,0 UV-I 0 W/m 10,6 C 11,1 C 9,7 km/h (2 Bft) 93,62 %
03.09.2017 05:12 11,1 C 19,4 C 97 % 1013,9 hPa 0,2 l/m 2,3 km/h (1 Bft) W 269 0 min 0,000 mm 0,0 UV-I 0 W/m 10,6 C 11,1 C 4,8 km/h (1 Bft) 95,74 %
03.09.2017 05:14 11,1 C 19,4 C 97 % 1013,9 hPa 0,2 l/m 2,5 km/h (1 Bft) NW 305 0 min 0,000 mm 0,0 UV-I 0 W/m 10,6 C 11,1 C 4,8 km/h (1 Bft) 95,74 %
03.09.2017 05:16 11,1 C 19,4 C 97 % 1013,9 hPa 0,0 l/m 2,1 km/h (1 Bft) W 273 0 min 0,000 mm 0,0 UV-I 0 W/m 10,6 C 11,1 C 4,8 km/h (1 Bft) 95,74 %
03.09.2017 05:18 11,1 C 19,4 C 97 % 1013,9 hPa 0,2 l/m 3,5 km/h (1 Bft) W 260 0 min 0,000 mm 0,0 UV-I 0 W/m 10,6 C 11,1 C 6,4 km/h (2 Bft) 95,74 %
03.09.2017 05:20 11,1 C 19,4 C 97 % 1013,9 hPa 0,0 l/m 4,0 km/h (1 Bft) W 274 0 min 0,000 mm 0,0 UV-I 0 W/m 10,6 C 11,1 C 9,7 km/h (2 Bft) 94,00 %
03.09.2017 05:22 11,1 C 19,4 C 97 % 1013,9 hPa 0,2 l/m 2,9 km/h (1 Bft) W 272 0 min 0,000 mm 0,0 UV-I 0 W/m 10,6 C 11,1 C 4,8 km/h (1 Bft) 95,74 %
03.09.2017 05:24 11,1 C 19,4 C 97 % 1013,9 hPa 0,0 l/m 3,0 km/h (1 Bft) W 263 0 min 0,000 mm 0,0 UV-I 0 W/m 10,6 C 11,1 C 6,4 km/h (2 Bft) 91,49 %
03.09.2017 05:26 11,1 C 19,4 C 97 % 1013,9 hPa 0,2 l/m 3,6 km/h (1 Bft) SW 218 0 min 0,000 mm 0,0 UV-I 0 W/m 10,6 C 11,1 C 8,0 km/h (2 Bft) 94,00 %
03.09.2017 05:28 11,1 C 19,4 C 97 % 1013,9 hPa 0,0 l/m 1,6 km/h (1 Bft) W 269 0 min 0,000 mm 0,0 UV-I 0 W/m 10,6 C 11,1 C 6,4 km/h (2 Bft) 93,62 %
03.09.2017 05:30 11,1 C 19,4 C 97 % 1013,9 hPa 0,2 l/m 2,9 km/h (1 Bft) W-SW 253 0 min 0,000 mm 0,0 UV-I 0 W/m 10,6 C 11,1 C 6,4 km/h (2 Bft) 97,87 %
03.09.2017 05:32 11,1 C 19,4 C 97 % 1013,8 hPa 0,0 l/m 1,8 km/h (1 Bft) W-SW 248 0 min 0,000 mm 0,0 UV-I 0 W/m 10,6 C 11,1 C 3,2 km/h (1 Bft) 94,44 %
03.09.2017 05:34 11,1 C 19,4 C 97 % 1013,9 hPa 0,2 l/m 4,7 km/h (1 Bft) W 261 0 min 0,000 mm 0,0 UV-I 0 W/m 10,6 C 11,1 C 11,3 km/h (2 Bft) 96,08 %
03.09.2017 05:36 11,1 C 19,4 C 97 % 1013,8 hPa 0,2 l/m 5,8 km/h (2 Bft) SW 233 0 min 0,000 mm 0,0 UV-I 0 W/m 10,6 C 11,1 C 12,9 km/h (3 Bft) 95,74 %
03.09.2017 05:38 11,1 C 19,4 C 97 % 1013,8 hPa 0,0 l/m 4,1 km/h (1 Bft) SW 221 0 min 0,000 mm 0,0 UV-I 0 W/m 10,6 C 11,1 C 8,0 km/h (2 Bft) 93,62 %
03.09.2017 05:40 11,1 C 19,4 C 97 % 1013,8 hPa 0,2 l/m 6,0 km/h (2 Bft) W 274 0 min 0,000 mm 0,0 UV-I 0 W/m 10,6 C 11,1 C 9,7 km/h (2 Bft) 97,87 %
03.09.2017 05:42 11,1 C 19,4 C 97 % 1013,9 hPa 0,2 l/m 5,4 km/h (1 Bft) W-NW 284 0 min 0,000 mm 0,0 UV-I 0 W/m 10,6 C 11,1 C 11,3 km/h (2 Bft) 100,00 %
03.09.2017 05:44 11,1 C 19,4 C 97 % 1013,9 hPa 0,0 l/m 4,2 km/h (1 Bft) W 261 0 min 0,000 mm 0,0 UV-I 0 W/m 10,6 C 11,1 C 6,4 km/h (2 Bft) 100,00 %
03.09.2017 05:46 11,1 C 19,4 C 97 % 1013,8 hPa 0,6 l/m 3,1 km/h (1 Bft) W 280 0 min 0,000 mm 0,0 UV-I 0 W/m 10,6 C 11,1 C 11,3 km/h (2 Bft) 100,00 %
03.09.2017 05:48 11,1 C 19,4 C 97 % 1013,7 hPa 0,4 l/m 5,7 km/h (1 Bft) W-NW 286 0 min 0,000 mm 0,0 UV-I 0 W/m 10,6 C 11,1 C 12,9 km/h (3 Bft) 95,74 %
03.09.2017 05:50 11,0 C 19,4 C 97 % 1013,7 hPa 0,2 l/m 5,6 km/h (1 Bft) W 262 0 min 0,000 mm 0,0 UV-I 0 W/m 10,5 C 11,0 C 12,9 km/h (3 Bft) 100,00 %
03.09.2017 05:52 11,0 C 19,4 C 97 % 1013,7 hPa 0,2 l/m 3,1 km/h (1 Bft) W-NW 287 0 min 0,000 mm 0,0 UV-I 0 W/m 10,5 C 11,0 C 6,4 km/h (2 Bft) 100,00 %
03.09.2017 05:54 11,0 C 19,4 C 97 % 1013,7 hPa 0,0 l/m 3,8 km/h (1 Bft) SW 235 0 min 0,000 mm 0,0 UV-I 0 W/m 10,5 C 11,0 C 8,0 km/h (2 Bft) 100,00 %
03.09.2017 05:56 11,0 C 19,4 C 97 % 1013,7 hPa 0,2 l/m 4,7 km/h (1 Bft) W-SW 254 0 min 0,000 mm 0,0 UV-I 0 W/m 10,5 C 11,0 C 9,7 km/h (2 Bft) 100,00 %
03.09.2017 05:58 11,0 C 19,4 C 97 % 1013,7 hPa 0,2 l/m 2,2 km/h (1 Bft) W-SW 248 0 min 0,000 mm 0,0 UV-I 0 W/m 10,5 C 11,0 C 4,8 km/h (1 Bft) 95,74 %
03.09.2017 06:00 11,0 C 19,4 C 97 % 1013,7 hPa 0,2 l/m 4,5 km/h (1 Bft) W-SW 238 0 min 0,000 mm 0,0 UV-I 0 W/m 10,5 C 11,0 C 6,4 km/h (2 Bft) 100,00 %
03.09.2017 06:02 11,0 C 19,4 C 97 % 1013,7 hPa 0,2 l/m 4,9 km/h (1 Bft) W-SW 243 0 min 0,000 mm 0,0 UV-I 0 W/m 10,5 C 11,0 C 6,4 km/h (2 Bft) 97,87 %
03.09.2017 06:04 11,0 C 19,4 C 97 % 1013,7 hPa 0,0 l/m 4,6 km/h (1 Bft) W-SW 242 0 min 0,000 mm 0,0 UV-I 0 W/m 10,5 C 11,0 C 6,4 km/h (2 Bft) 98,00 %
03.09.2017 06:06 11,0 C 19,4 C 97 % 1013,7 hPa 0,2 l/m 5,5 km/h (1 Bft) NW 311 0 min 0,000 mm 0,0 UV-I 0 W/m 10,5 C 11,0 C 11,3 km/h (2 Bft) 100,00 %
03.09.2017 06:08 10,9 C 19,4 C 97 % 1013,7 hPa 0,0 l/m 3,3 km/h (1 Bft) W-SW 254 0 min 0,000 mm 0,0 UV-I 0 W/m 10,4 C 10,9 C 6,4 km/h (2 Bft) 98,00 %
03.09.2017 06:10 10,9 C 19,4 C 97 % 1013,7 hPa 0,0 l/m 5,1 km/h (1 Bft) W 261 0 min 0,000 mm 0,0 UV-I 0 W/m 10,4 C 10,9 C 8,0 km/h (2 Bft) 97,44 %
03.09.2017 06:12 10,9 C 19,4 C 97 % 1013,7 hPa 0,2 l/m 4,4 km/h (1 Bft) SW 232 0 min 0,000 mm 0,0 UV-I 0 W/m 10,4 C 10,9 C 6,4 km/h (2 Bft) 98,00 %
03.09.2017 06:14 10,9 C 19,4 C 97 % 1013,7 hPa 0,0 l/m 4,3 km/h (1 Bft) W-SW 256 0 min 0,000 mm 0,0 UV-I 0 W/m 10,4 C 10,9 C 9,7 km/h (2 Bft) 100,00 %
03.09.2017 06:16 10,9 C 19,4 C 97 % 1013,7 hPa 0,0 l/m 7,1 km/h (2 Bft) W-SW 252 0 min 0,000 mm 0,0 UV-I 0 W/m 10,4 C 10,4 C 16,1 km/h (3 Bft) 100,00 %
03.09.2017 06:18 10,9 C 19,4 C 97 % 1013,7 hPa 0,0 l/m 5,6 km/h (1 Bft) W-NW 293 0 min 0,000 mm 0,0 UV-I 0 W/m 10,4 C 10,9 C 9,7 km/h (2 Bft) 97,87 %
03.09.2017 06:20 10,9 C 19,4 C 97 % 1013,7 hPa 0,0 l/m 4,7 km/h (1 Bft) W-SW 246 0 min 0,000 mm 0,0 UV-I 0 W/m 10,4 C 10,9 C 6,4 km/h (2 Bft) 100,00 %
03.09.2017 06:22 10,9 C 19,4 C 97 % 1013,7 hPa 0,2 l/m 4,1 km/h (1 Bft) W-SW 253 0 min 0,000 mm 0,0 UV-I 0 W/m 10,4 C 10,9 C 6,4 km/h (2 Bft) 100,00 %
03.09.2017 06:24 10,9 C 19,4 C 97 % 1013,8 hPa 0,0 l/m 2,6 km/h (1 Bft) W-SW 243 0 min 0,000 mm 0,0 UV-I 0 W/m 10,4 C 10,9 C 4,8 km/h (1 Bft) 100,00 %
03.09.2017 06:26 10,9 C 19,4 C 97 % 1013,8 hPa 0,0 l/m 4,9 km/h (1 Bft) W-SW 237 0 min 0,000 mm 0,0 UV-I 0 W/m 10,4 C 10,9 C 9,7 km/h (2 Bft) 100,00 %
03.09.2017 06:28 10,9 C 19,4 C 97 % 1013,8 hPa 0,0 l/m 5,3 km/h (1 Bft) W 265 0 min 0,000 mm 0,0 UV-I 0 W/m 10,4 C 10,9 C 12,9 km/h (3 Bft) 93,62 %
03.09.2017 06:30 10,9 C 19,4 C 97 % 1013,7 hPa 0,2 l/m 8,5 km/h (2 Bft) SW 233 0 min 0,000 mm 0,0 UV-I 0 W/m 10,4 C 9,5 C 12,9 km/h (3 Bft) 97,87 %
03.09.2017 06:32 10,9 C 19,4 C 97 % 1013,7 hPa 0,0 l/m 6,6 km/h (2 Bft) W-SW 251 0 min 0,000 mm 0,0 UV-I 0 W/m 10,4 C 10,8 C 12,9 km/h (3 Bft) 100,00 %
03.09.2017 06:34 10,9 C 19,4 C 97 % 1013,7 hPa 0,2 l/m 6,7 km/h (2 Bft) W-NW 294 0 min 0,000 mm 0,0 UV-I 1 W/m 10,4 C 10,7 C 8,0 km/h (2 Bft) 95,74 %
03.09.2017 06:36 10,9 C 19,4 C 97 % 1013,8 hPa 0,0 l/m 6,2 km/h (2 Bft) W-SW 252 0 min 0,000 mm 0,0 UV-I 5 W/m 10,4 C 10,9 C 11,3 km/h (2 Bft) 100,00 %
03.09.2017 06:38 10,9 C 19,4 C 97 % 1013,7 hPa 0,2 l/m 5,5 km/h (1 Bft) W-SW 250 0 min 0,000 mm 0,0 UV-I 5 W/m 10,4 C 10,9 C 9,7 km/h (2 Bft) 97,87 %
03.09.2017 06:40 10,9 C 19,4 C 97 % 1013,7 hPa 0,0 l/m 6,1 km/h (2 Bft) W-SW 246 0 min 0,000 mm 0,0 UV-I 5 W/m 10,4 C 10,9 C 9,7 km/h (2 Bft) 97,87 %
03.09.2017 06:42 10,9 C 19,4 C 97 % 1013,7 hPa 0,0 l/m 8,0 km/h (2 Bft) W-NW 303 0 min 0,000 mm 0,0 UV-I 5 W/m 10,4 C 9,8 C 17,7 km/h (3 Bft) 100,00 %
03.09.2017 06:44 10,9 C 19,4 C 97 % 1013,8 hPa 0,0 l/m 4,3 km/h (1 Bft) W-SW 249 0 min 0,000 mm 0,0 UV-I 5 W/m 10,4 C 10,9 C 6,4 km/h (2 Bft) 100,00 %
03.09.2017 06:46 10,9 C 19,4 C 97 % 1013,7 hPa 0,0 l/m 4,5 km/h (1 Bft) W 275 0 min 0,000 mm 0,0 UV-I 5 W/m 10,4 C 10,9 C 9,7 km/h (2 Bft) 97,87 %
03.09.2017 06:48 10,8 C 19,4 C 97 % 1013,8 hPa 0,0 l/m 6,1 km/h (2 Bft) W-SW 246 0 min 0,000 mm 0,0 UV-I 5 W/m 10,3 C 10,8 C 12,9 km/h (3 Bft) 100,00 %
03.09.2017 06:50 10,8 C 19,4 C 97 % 1013,8 hPa 0,2 l/m 6,5 km/h (2 Bft) SW 232 0 min 0,000 mm 0,0 UV-I 5 W/m 10,3 C 10,8 C 14,5 km/h (3 Bft) 100,00 %
03.09.2017 06:52 10,8 C 19,4 C 97 % 1013,7 hPa 0,0 l/m 5,8 km/h (2 Bft) W 268 0 min 0,000 mm 0,0 UV-I 6 W/m 10,3 C 10,8 C 11,3 km/h (2 Bft) 98,00 %
03.09.2017 06:54 10,9 C 19,4 C 97 % 1013,8 hPa 0,0 l/m 6,2 km/h (2 Bft) W-SW 251 0 min 0,000 mm 0,0 UV-I 7 W/m 10,4 C 10,9 C 11,3 km/h (2 Bft) 100,00 %
03.09.2017 06:56 10,8 C 19,4 C 97 % 1013,8 hPa 0,0 l/m 5,1 km/h (1 Bft) W 263 0 min 0,000 mm 0,0 UV-I 7 W/m 10,3 C 10,8 C 11,3 km/h (2 Bft) 100,00 %
03.09.2017 06:58 10,8 C 19,4 C 97 % 1013,8 hPa 0,0 l/m 5,6 km/h (1 Bft) W-SW 250 0 min 0,000 mm 0,0 UV-I 8 W/m 10,3 C 10,8 C 11,3 km/h (2 Bft) 100,00 %
03.09.2017 07:00 10,8 C 19,4 C 97 % 1013,8 hPa 0,2 l/m 5,6 km/h (1 Bft) SW 222 0 min 0,000 mm 0,0 UV-I 11 W/m 10,3 C 10,8 C 8,0 km/h (2 Bft) 100,00 %
03.09.2017 07:02 10,8 C 19,4 C 97 % 1013,8 hPa 0,0 l/m 7,0 km/h (2 Bft) W 262 0 min 0,000 mm 0,0 UV-I 12 W/m 10,3 C 10,4 C 14,5 km/h (3 Bft) 97,87 %
03.09.2017 07:04 10,8 C 19,4 C 97 % 1013,8 hPa 0,0 l/m 7,6 km/h (2 Bft) W 259 0 min 0,000 mm 0,0 UV-I 12 W/m 10,3 C 10,0 C 11,3 km/h (2 Bft) 97,14 %
03.09.2017 07:06 10,8 C 19,4 C 97 % 1013,9 hPa 0,0 l/m 5,5 km/h (1 Bft) W-SW 240 0 min 0,000 mm 0,0 UV-I 13 W/m 10,3 C 10,8 C 9,7 km/h (2 Bft) 100,00 %
03.09.2017 07:08 10,8 C 19,4 C 97 % 1013,8 hPa 0,0 l/m 6,5 km/h (2 Bft) W 273 0 min 0,000 mm 0,0 UV-I 15 W/m 10,3 C 10,8 C 11,3 km/h (2 Bft) 97,87 %
03.09.2017 07:10 10,8 C 19,4 C 97 % 1013,8 hPa 0,0 l/m 4,7 km/h (1 Bft) W-SW 238 0 min 0,000 mm 0,0 UV-I 16 W/m 10,3 C 10,8 C 6,4 km/h (2 Bft) 95,74 %
03.09.2017 07:12 10,9 C 19,4 C 97 % 1013,8 hPa 0,0 l/m 5,7 km/h (1 Bft) SW 225 0 min 0,000 mm 0,0 UV-I 17 W/m 10,4 C 10,9 C 11,3 km/h (2 Bft) 95,74 %
03.09.2017 07:14 10,8 C 19,4 C 97 % 1013,8 hPa 0,0 l/m 7,4 km/h (2 Bft) W-SW 258 0 min 0,000 mm 0,0 UV-I 18 W/m 10,3 C 10,1 C 14,5 km/h (3 Bft) 97,87 %
03.09.2017 07:16 10,8 C 19,4 C 97 % 1013,8 hPa 0,0 l/m 9,0 km/h (2 Bft) W-SW 256 0 min 0,000 mm 0,0 UV-I 18 W/m 10,3 C 9,1 C 12,9 km/h (3 Bft) 97,87 %
03.09.2017 07:18 10,8 C 19,4 C 97 % 1013,9 hPa 0,0 l/m 6,3 km/h (2 Bft) W-SW 252 0 min 0,000 mm 0,0 UV-I 20 W/m 10,3 C 10,8 C 11,3 km/h (2 Bft) 95,74 %
03.09.2017 07:20 10,8 C 19,4 C 97 % 1013,8 hPa 0,0 l/m 7,9 km/h (2 Bft) W-SW 243 0 min 0,000 mm 0,0 UV-I 22 W/m 10,3 C 9,8 C 12,9 km/h (3 Bft) 97,87 %
03.09.2017 07:22 10,9 C 18,9 C 97 % 1013,8 hPa 0,0 l/m 6,3 km/h (2 Bft) W-SW 246 0 min 0,000 mm 0,0 UV-I 23 W/m 10,4 C 10,9 C 14,5 km/h (3 Bft) 95,74 %
03.09.2017 07:24 10,9 C 18,9 C 97 % 1013,8 hPa 0,2 l/m 9,3 km/h (2 Bft) W 263 0 min 0,000 mm 0,0 UV-I 24 W/m 10,4 C 9,0 C 17,7 km/h (3 Bft) 95,74 %
03.09.2017 07:26 10,9 C 19,4 C 97 % 1013,8 hPa 0,0 l/m 6,1 km/h (2 Bft) W 263 0 min 0,000 mm 0,0 UV-I 26 W/m 10,4 C 10,9 C 11,3 km/h (2 Bft) 96,00 %
03.09.2017 07:28 10,9 C 18,9 C 97 % 1013,7 hPa 0,0 l/m 6,2 km/h (2 Bft) W-NW 286 0 min 0,000 mm 0,0 UV-I 26 W/m 10,4 C 10,9 C 11,3 km/h (2 Bft) 96,00 %
03.09.2017 07:30 10,9 C 18,9 C 97 % 1013,8 hPa 0,0 l/m 7,3 km/h (2 Bft) W 268 0 min 0,000 mm 0,0 UV-I 27 W/m 10,4 C 10,3 C 14,5 km/h (3 Bft) 97,87 %
03.09.2017 07:32 10,9 C 18,9 C 97 % 1013,8 hPa 0,0 l/m 9,5 km/h (2 Bft) W-NW 282 0 min 0,000 mm 0,0 UV-I 28 W/m 10,4 C 8,9 C 17,7 km/h (3 Bft) 93,75 %
03.09.2017 07:34 10,9 C 18,9 C 97 % 1013,8 hPa 0,0 l/m 7,2 km/h (2 Bft) W-SW 252 0 min 0,000 mm 0,0 UV-I 30 W/m 10,4 C 10,3 C 12,9 km/h (3 Bft) 97,22 %
03.09.2017 07:36 10,9 C 18,9 C 97 % 1013,9 hPa 0,0 l/m 6,5 km/h (2 Bft) W-SW 250 0 min 0,000 mm 0,0 UV-I 30 W/m 10,4 C 10,9 C 12,9 km/h (3 Bft) 98,00 %
03.09.2017 07:38 10,9 C 18,9 C 97 % 1013,9 hPa 0,0 l/m 7,9 km/h (2 Bft) W 269 0 min 0,000 mm 0,0 UV-I 30 W/m 10,4 C 9,9 C 11,3 km/h (2 Bft) 98,00 %
03.09.2017 07:40 10,9 C 18,9 C 97 % 1013,9 hPa 0,0 l/m 5,7 km/h (1 Bft) W-SW 239 0 min 0,000 mm 0,0 UV-I 31 W/m 10,4 C 10,9 C 11,3 km/h (2 Bft) 97,87 %
03.09.2017 07:42 10,9 C 18,9 C 97 % 1013,9 hPa 0,0 l/m 4,5 km/h (1 Bft) W-SW 250 0 min 0,000 mm 0,0 UV-I 31 W/m 10,4 C 10,9 C 6,4 km/h (2 Bft) 93,62 %
03.09.2017 07:44 10,9 C 18,9 C 97 % 1013,9 hPa 0,0 l/m 6,1 km/h (2 Bft) W-SW 246 0 min 0,000 mm 0,0 UV-I 33 W/m 10,4 C 10,9 C 12,9 km/h (3 Bft) 97,87 %
03.09.2017 07:46 10,9 C 18,9 C 97 % 1014,0 hPa 0,0 l/m 6,7 km/h (2 Bft) SW 229 0 min 0,000 mm 0,0 UV-I 35 W/m 10,4 C 10,7 C 12,9 km/h (3 Bft) 97,87 %
03.09.2017 07:48 10,9 C 18,9 C 97 % 1013,9 hPa 0,0 l/m 6,4 km/h (2 Bft) W 264 0 min 0,000 mm 0,0 UV-I 38 W/m 10,4 C 10,9 C 11,3 km/h (2 Bft) 100,00 %
03.09.2017 07:50 10,9 C 18,9 C 97 % 1014,0 hPa 0,2 l/m 8,5 km/h (2 Bft) W-SW 249 0 min 0,000 mm 0,0 UV-I 40 W/m 10,4 C 9,5 C 12,9 km/h (3 Bft) 100,00 %
03.09.2017 07:52 10,9 C 18,9 C 97 % 1014,0 hPa 0,0 l/m 7,2 km/h (2 Bft) W 259 0 min 0,000 mm 0,0 UV-I 42 W/m 10,4 C 10,3 C 12,9 km/h (3 Bft) 97,14 %
03.09.2017 07:54 10,9 C 18,9 C 97 % 1014,0 hPa 0,0 l/m 8,5 km/h (2 Bft) W 261 0 min 0,000 mm 0,0 UV-I 42 W/m 10,4 C 9,5 C 16,1 km/h (3 Bft) 98,00 %
03.09.2017 07:56 10,9 C 18,9 C 97 % 1014,0 hPa 0,0 l/m 6,9 km/h (2 Bft) W-SW 248 0 min 0,000 mm 0,0 UV-I 42 W/m 10,4 C 10,6 C 14,5 km/h (3 Bft) 97,87 %
03.09.2017 07:58 10,9 C 18,9 C 97 % 1014,0 hPa 0,0 l/m 8,1 km/h (2 Bft) W-SW 251 0 min 0,000 mm 0,0 UV-I 44 W/m 10,4 C 9,7 C 14,5 km/h (3 Bft) 97,87 %
03.09.2017 08:00 10,9 C 18,9 C 97 % 1014,1 hPa 0,0 l/m 7,2 km/h (2 Bft) W 260 0 min 0,025 mm 0,0 UV-I 45 W/m 10,4 C 10,3 C 12,9 km/h (3 Bft) 97,87 %
03.09.2017 08:02 10,9 C 18,9 C 97 % 1014,1 hPa 0,0 l/m 8,4 km/h (2 Bft) W-SW 246 0 min 0,000 mm 0,0 UV-I 47 W/m 10,4 C 9,5 C 14,5 km/h (3 Bft) 98,00 %
03.09.2017 08:04 10,9 C 18,9 C 97 % 1014,1 hPa 0,0 l/m 5,4 km/h (1 Bft) W-SW 244 0 min 0,000 mm 0,0 UV-I 48 W/m 10,4 C 10,9 C 8,0 km/h (2 Bft) 95,74 %
03.09.2017 08:06 10,9 C 18,9 C 97 % 1014,2 hPa 0,0 l/m 10,3 km/h (2 Bft) SW 226 0 min 0,000 mm 0,0 UV-I 51 W/m 10,4 C 8,4 C 19,3 km/h (3 Bft) 100,00 %
03.09.2017 08:08 10,9 C 18,9 C 97 % 1014,1 hPa 0,0 l/m 8,0 km/h (2 Bft) W-SW 256 0 min 0,000 mm 0,0 UV-I 53 W/m 10,4 C 9,8 C 14,5 km/h (3 Bft) 100,00 %
03.09.2017 08:10 10,9 C 18,9 C 97 % 1014,1 hPa 0,0 l/m 8,2 km/h (2 Bft) W-SW 252 0 min 0,000 mm 0,0 UV-I 53 W/m 10,4 C 9,7 C 12,9 km/h (3 Bft) 100,00 %
03.09.2017 08:12 11,0 C 18,9 C 97 % 1014,1 hPa 0,0 l/m 5,9 km/h (2 Bft) W 261 0 min 0,000 mm 0,0 UV-I 53 W/m 10,5 C 11,0 C 11,3 km/h (2 Bft) 98,36 %
03.09.2017 08:14 11,0 C 18,9 C 97 % 1014,1 hPa 0,0 l/m 6,8 km/h (2 Bft) W 279 0 min 0,000 mm 0,0 UV-I 53 W/m 10,5 C 10,7 C 14,5 km/h (3 Bft) 100,00 %
03.09.2017 08:16 11,0 C 18,9 C 97 % 1014,2 hPa 0,0 l/m 8,3 km/h (2 Bft) W-SW 241 0 min 0,000 mm 0,0 UV-I 57 W/m 10,5 C 9,7 C 16,1 km/h (3 Bft) 100,00 %
03.09.2017 08:18 11,0 C 18,9 C 97 % 1014,2 hPa 0,0 l/m 8,6 km/h (2 Bft) SW 229 0 min 0,000 mm 0,0 UV-I 62 W/m 10,5 C 9,5 C 16,1 km/h (3 Bft) 97,87 %
03.09.2017 08:20 11,1 C 18,9 C 97 % 1014,2 hPa 0,0 l/m 8,3 km/h (2 Bft) W-SW 250 0 min 0,000 mm 0,0 UV-I 65 W/m 10,6 C 9,8 C 12,9 km/h (3 Bft) 95,74 %
03.09.2017 08:22 11,1 C 18,9 C 97 % 1014,2 hPa 0,2 l/m 10,2 km/h (2 Bft) W 261 0 min 0,000 mm 0,0 UV-I 68 W/m 10,6 C 8,7 C 14,5 km/h (3 Bft) 95,74 %
03.09.2017 08:24 11,1 C 18,9 C 97 % 1014,2 hPa 0,0 l/m 7,9 km/h (2 Bft) W 265 0 min 0,000 mm 0,0 UV-I 70 W/m 10,6 C 10,1 C 14,5 km/h (3 Bft) 97,87 %
03.09.2017 08:26 11,1 C 18,9 C 97 % 1014,3 hPa 0,0 l/m 8,4 km/h (2 Bft) W 259 0 min 0,000 mm 0,0 UV-I 70 W/m 10,6 C 9,8 C 16,1 km/h (3 Bft) 95,74 %
03.09.2017 08:28 11,1 C 18,9 C 97 % 1014,3 hPa 0,0 l/m 6,3 km/h (2 Bft) W-SW 250 0 min 0,000 mm 0,0 UV-I 69 W/m 10,6 C 11,1 C 9,7 km/h (2 Bft) 97,87 %
03.09.2017 08:30 11,1 C 18,9 C 97 % 1014,4 hPa 0,0 l/m 8,7 km/h (2 Bft) W-NW 286 0 min 0,000 mm 0,0 UV-I 70 W/m 10,6 C 9,6 C 16,1 km/h (3 Bft) 95,74 %
03.09.2017 08:32 11,1 C 18,9 C 97 % 1014,3 hPa 0,0 l/m 7,2 km/h (2 Bft) W 270 0 min 0,000 mm 0,0 UV-I 71 W/m 10,6 C 10,5 C 16,1 km/h (3 Bft) 96,00 %
03.09.2017 08:34 11,1 C 18,9 C 97 % 1014,3 hPa 0,0 l/m 7,8 km/h (2 Bft) W 277 0 min 0,000 mm 0,0 UV-I 67 W/m 10,6 C 10,1 C 14,5 km/h (3 Bft) 97,87 %
03.09.2017 08:36 11,1 C 18,9 C 97 % 1014,4 hPa 0,0 l/m 7,9 km/h (2 Bft) W-NW 285 0 min 0,000 mm 0,0 UV-I 63 W/m 10,6 C 10,1 C 12,9 km/h (3 Bft) 100,00 %
03.09.2017 08:38 11,2 C 18,9 C 97 % 1014,4 hPa 0,0 l/m 5,2 km/h (1 Bft) W 266 0 min 0,000 mm 0,0 UV-I 67 W/m 10,7 C 11,2 C 9,7 km/h (2 Bft) 95,74 %
03.09.2017 08:40 11,2 C 18,9 C 97 % 1014,4 hPa 0,0 l/m 8,0 km/h (2 Bft) W 267 0 min 0,000 mm 0,0 UV-I 75 W/m 10,7 C 10,1 C 14,5 km/h (3 Bft) 97,87 %
03.09.2017 08:42 11,2 C 18,9 C 97 % 1014,4 hPa 0,0 l/m 4,9 km/h (1 Bft) W-SW 250 0 min 0,000 mm 0,0 UV-I 79 W/m 10,7 C 11,2 C 11,3 km/h (2 Bft) 97,87 %
03.09.2017 08:44 11,2 C 18,9 C 97 % 1014,4 hPa 0,2 l/m 5,4 km/h (1 Bft) W-SW 243 0 min 0,000 mm 0,0 UV-I 80 W/m 10,7 C 11,2 C 9,7 km/h (2 Bft) 97,87 %
03.09.2017 08:46 11,2 C 18,9 C 97 % 1014,4 hPa 0,0 l/m 5,1 km/h (1 Bft) W 262 0 min 0,000 mm 0,0 UV-I 76 W/m 10,7 C 11,2 C 8,0 km/h (2 Bft) 97,87 %
03.09.2017 08:48 11,2 C 18,9 C 97 % 1014,4 hPa 0,0 l/m 5,9 km/h (2 Bft) W 281 0 min 0,000 mm 0,0 UV-I 82 W/m 10,7 C 11,2 C 11,3 km/h (2 Bft) 98,11 %
03.09.2017 08:50 11,2 C 18,9 C 97 % 1014,5 hPa 0,0 l/m 5,6 km/h (1 Bft) W-SW 257 0 min 0,000 mm 0,0 UV-I 86 W/m 10,7 C 11,2 C 11,3 km/h (2 Bft) 97,22 %
03.09.2017 08:52 11,2 C 18,9 C 97 % 1014,5 hPa 0,0 l/m 4,3 km/h (1 Bft) SW 219 0 min 0,000 mm 0,0 UV-I 72 W/m 10,7 C 11,2 C 9,7 km/h (2 Bft) 98,04 %
03.09.2017 08:54 11,2 C 18,9 C 97 % 1014,5 hPa 0,2 l/m 5,1 km/h (1 Bft) W-NW 294 0 min 0,000 mm 0,0 UV-I 63 W/m 10,7 C 11,2 C 11,3 km/h (2 Bft) 98,00 %
03.09.2017 08:56 11,2 C 18,9 C 97 % 1014,6 hPa 0,0 l/m 6,0 km/h (2 Bft) SW 233 0 min 0,000 mm 0,0 UV-I 66 W/m 10,7 C 11,2 C 11,3 km/h (2 Bft) 97,87 %
03.09.2017 08:58 11,2 C 18,9 C 97 % 1014,6 hPa 0,0 l/m 9,2 km/h (2 Bft) W-NW 298 0 min 0,000 mm 0,0 UV-I 80 W/m 10,7 C 9,4 C 16,1 km/h (3 Bft) 95,74 %
03.09.2017 09:00 11,2 C 18,9 C 97 % 1014,6 hPa 0,0 l/m 5,9 km/h (2 Bft) W-NW 288 0 min 0,026 mm 0,0 UV-I 90 W/m 10,7 C 11,2 C 12,9 km/h (3 Bft) 97,87 %
03.09.2017 09:02 11,2 C 18,9 C 97 % 1014,6 hPa 0,0 l/m 9,8 km/h (2 Bft) W-SW 240 0 min 0,000 mm 0,0 UV-I 91 W/m 10,7 C 9,0 C 14,5 km/h (3 Bft) 93,62 %
03.09.2017 09:04 11,2 C 18,9 C 97 % 1014,6 hPa 0,0 l/m 6,8 km/h (2 Bft) W-SW 237 0 min 0,000 mm 0,0 UV-I 106 W/m 10,7 C 10,9 C 11,3 km/h (2 Bft) 97,37 %
03.09.2017 09:06 11,2 C 18,9 C 97 % 1014,6 hPa 0,2 l/m 10,0 km/h (2 Bft) W 265 0 min 0,000 mm 0,0 UV-I 113 W/m 10,7 C 8,9 C 14,5 km/h (3 Bft) 98,00 %
03.09.2017 09:08 11,2 C 18,9 C 97 % 1014,6 hPa 0,0 l/m 5,6 km/h (1 Bft) SW 232 0 min 0,000 mm 0,0 UV-I 118 W/m 10,7 C 11,2 C 11,3 km/h (2 Bft) 94,00 %
03.09.2017 09:10 11,2 C 18,9 C 97 % 1014,6 hPa 0,0 l/m 6,3 km/h (2 Bft) W 277 0 min 0,000 mm 0,0 UV-I 123 W/m 10,7 C 11,2 C 11,3 km/h (2 Bft) 95,74 %
03.09.2017 09:12 11,3 C 18,9 C 97 % 1014,6 hPa 0,0 l/m 6,4 km/h (2 Bft) W-SW 258 0 min 0,000 mm 0,0 UV-I 117 W/m 10,8 C 11,3 C 12,9 km/h (3 Bft) 93,62 %
03.09.2017 09:14 11,3 C 18,9 C 97 % 1014,6 hPa 0,0 l/m 6,6 km/h (2 Bft) W-SW 250 0 min 0,000 mm 0,0 UV-I 120 W/m 10,8 C 11,2 C 12,9 km/h (3 Bft) 93,62 %
03.09.2017 09:16 11,3 C 18,9 C 97 % 1014,6 hPa 0,0 l/m 6,4 km/h (2 Bft) W-SW 244 0 min 0,000 mm 0,0 UV-I 115 W/m 10,8 C 11,3 C 16,1 km/h (3 Bft) 95,74 %
03.09.2017 09:18 11,3 C 18,9 C 97 % 1014,6 hPa 0,0 l/m 7,7 km/h (2 Bft) W-SW 244 0 min 0,000 mm 0,0 UV-I 114 W/m 10,8 C 10,4 C 16,1 km/h (3 Bft) 93,62 %
03.09.2017 09:20 11,3 C 18,9 C 97 % 1014,6 hPa 0,2 l/m 5,6 km/h (1 Bft) W-SW 257 0 min 0,000 mm 0,0 UV-I 107 W/m 10,8 C 11,3 C 11,3 km/h (2 Bft) 95,12 %
03.09.2017 09:22 11,3 C 18,9 C 97 % 1014,6 hPa 0,0 l/m 9,9 km/h (2 Bft) W 277 0 min 0,000 mm 0,0 UV-I 113 W/m 10,8 C 9,1 C 16,1 km/h (3 Bft) 94,23 %
03.09.2017 09:24 11,3 C 18,9 C 97 % 1014,7 hPa 0,0 l/m 7,2 km/h (2 Bft) W 267 0 min 0,000 mm 0,1 UV-I 116 W/m 10,8 C 10,8 C 11,3 km/h (2 Bft) 93,62 %
03.09.2017 09:26 11,3 C 18,9 C 97 % 1014,6 hPa 0,0 l/m 7,5 km/h (2 Bft) W-SW 254 0 min 0,000 mm 0,4 UV-I 118 W/m 10,8 C 10,5 C 14,5 km/h (3 Bft) 96,23 %
03.09.2017 09:28 11,3 C 18,9 C 97 % 1014,7 hPa 0,0 l/m 9,3 km/h (2 Bft) SW 234 0 min 0,000 mm 0,2 UV-I 114 W/m 10,8 C 9,4 C 16,1 km/h (3 Bft) 100,00 %
03.09.2017 09:30 11,3 C 18,9 C 97 % 1014,7 hPa 0,0 l/m 7,2 km/h (2 Bft) W 271 0 min 0,000 mm 0,0 UV-I 102 W/m 10,8 C 10,8 C 12,9 km/h (3 Bft) 89,36 %
03.09.2017 09:32 11,3 C 18,9 C 97 % 1014,7 hPa 0,2 l/m 7,4 km/h (2 Bft) SW 223 0 min 0,000 mm 0,0 UV-I 76 W/m 10,8 C 10,6 C 12,9 km/h (3 Bft) 95,74 %
03.09.2017 09:34 11,3 C 18,9 C 97 % 1014,7 hPa 0,0 l/m 7,9 km/h (2 Bft) W-SW 252 0 min 0,000 mm 0,0 UV-I 67 W/m 10,8 C 10,3 C 14,5 km/h (3 Bft) 98,00 %
03.09.2017 09:36 11,2 C 18,9 C 97 % 1014,7 hPa 0,0 l/m 4,9 km/h (1 Bft) W 271 0 min 0,000 mm 0,0 UV-I 68 W/m 10,7 C 11,2 C 11,3 km/h (2 Bft) 98,00 %
03.09.2017 09:38 11,2 C 18,9 C 97 % 1014,7 hPa 0,0 l/m 4,7 km/h (1 Bft) W-SW 255 0 min 0,000 mm 0,0 UV-I 64 W/m 10,7 C 11,2 C 14,5 km/h (3 Bft) 95,74 %
03.09.2017 09:40 11,2 C 18,9 C 97 % 1014,7 hPa 0,0 l/m 7,2 km/h (2 Bft) W 281 0 min 0,000 mm 0,0 UV-I 52 W/m 10,7 C 10,6 C 14,5 km/h (3 Bft) 98,00 %
03.09.2017 09:42 11,2 C 18,9 C 97 % 1014,7 hPa 0,2 l/m 4,4 km/h (1 Bft) W-SW 240 0 min 0,000 mm 0,0 UV-I 62 W/m 10,7 C 11,2 C 8,0 km/h (2 Bft) 94,87 %
03.09.2017 09:44 11,2 C 18,9 C 97 % 1014,7 hPa 0,0 l/m 6,7 km/h (2 Bft) W-NW 291 0 min 0,000 mm 0,0 UV-I 79 W/m 10,7 C 11,0 C 9,7 km/h (2 Bft) 100,00 %
03.09.2017 09:46 11,2 C 18,9 C 97 % 1014,7 hPa 0,0 l/m 5,7 km/h (1 Bft) W-SW 258 0 min 0,000 mm 0,0 UV-I 89 W/m 10,7 C 11,2 C 11,3 km/h (2 Bft) 100,00 %
03.09.2017 09:48 11,3 C 18,9 C 97 % 1014,7 hPa 0,0 l/m 6,2 km/h (2 Bft) W-SW 242 0 min 0,000 mm 0,0 UV-I 81 W/m 10,8 C 11,3 C 12,9 km/h (3 Bft) 95,74 %
03.09.2017 09:50 11,2 C 18,9 C 97 % 1014,8 hPa 0,2 l/m 10,6 km/h (2 Bft) W 280 0 min 0,000 mm 0,0 UV-I 88 W/m 10,7 C 8,6 C 20,9 km/h (4 Bft) 95,74 %
03.09.2017 09:52 11,2 C 18,9 C 97 % 1014,7 hPa 0,0 l/m 9,7 km/h (2 Bft) W-SW 258 0 min 0,000 mm 0,0 UV-I 90 W/m 10,7 C 9,1 C 16,1 km/h (3 Bft) 100,00 %
03.09.2017 09:54 11,2 C 18,9 C 97 % 1014,8 hPa 0,0 l/m 9,3 km/h (2 Bft) W-SW 239 0 min 0,000 mm 0,5 UV-I 103 W/m 10,7 C 9,3 C 17,7 km/h (3 Bft) 94,74 %
03.09.2017 09:56 11,2 C 18,9 C 97 % 1014,8 hPa 0,2 l/m 5,4 km/h (1 Bft) SW 234 0 min 0,000 mm 0,5 UV-I 109 W/m 10,7 C 11,2 C 11,3 km/h (2 Bft) 100,00 %
03.09.2017 09:58 11,3 C 18,9 C 97 % 1014,8 hPa 0,0 l/m 8,8 km/h (2 Bft) W-NW 295 0 min 0,000 mm 0,5 UV-I 114 W/m 10,8 C 9,7 C 16,1 km/h (3 Bft) 100,00 %
03.09.2017 10:00 11,3 C 18,9 C 97 % 1014,8 hPa 0,0 l/m 4,6 km/h (1 Bft) W-NW 283 0 min 0,051 mm 0,5 UV-I 111 W/m 10,8 C 11,3 C 8,0 km/h (2 Bft) 98,00 %
03.09.2017 10:02 11,3 C 18,9 C 97 % 1014,8 hPa 0,0 l/m 6,4 km/h (2 Bft) W 273 0 min 0,000 mm 0,6 UV-I 117 W/m 10,8 C 11,3 C 14,5 km/h (3 Bft) 100,00 %
03.09.2017 10:04 11,3 C 18,9 C 97 % 1014,8 hPa 0,0 l/m 6,4 km/h (2 Bft) W-NW 287 0 min 0,000 mm 0,6 UV-I 124 W/m 10,8 C 11,3 C 11,3 km/h (2 Bft) 97,37 %
03.09.2017 10:06 11,3 C 18,9 C 97 % 1014,8 hPa 0,2 l/m 5,2 km/h (1 Bft) W-SW 246 0 min 0,000 mm 0,6 UV-I 124 W/m 10,8 C 11,3 C 6,4 km/h (2 Bft) 97,92 %
03.09.2017 10:08 11,3 C 18,9 C 97 % 1014,8 hPa 0,0 l/m 6,7 km/h (2 Bft) SW 223 0 min 0,000 mm 0,6 UV-I 127 W/m 10,8 C 11,1 C 12,9 km/h (3 Bft) 100,00 %
03.09.2017 10:10 11,3 C 18,9 C 97 % 1014,8 hPa 0,0 l/m 7,6 km/h (2 Bft) W 263 0 min 0,000 mm 0,6 UV-I 130 W/m 10,8 C 10,5 C 16,1 km/h (3 Bft) 100,00 %
03.09.2017 10:12 11,3 C 18,9 C 97 % 1014,8 hPa 0,0 l/m 6,2 km/h (2 Bft) W-NW 284 0 min 0,000 mm 0,7 UV-I 134 W/m 10,8 C 11,3 C 11,3 km/h (2 Bft) 97,87 %
03.09.2017 10:14 11,3 C 18,9 C 97 % 1014,8 hPa 0,0 l/m 9,0 km/h (2 Bft) W-SW 250 0 min 0,000 mm 0,6 UV-I 130 W/m 10,8 C 9,6 C 19,3 km/h (3 Bft) 95,74 %
03.09.2017 10:16 11,3 C 18,9 C 97 % 1014,8 hPa 0,2 l/m 6,2 km/h (2 Bft) W 267 0 min 0,000 mm 0,6 UV-I 126 W/m 10,8 C 11,3 C 12,9 km/h (3 Bft) 100,00 %
03.09.2017 10:18 11,3 C 18,9 C 97 % 1014,8 hPa 0,0 l/m 7,9 km/h (2 Bft) W-SW 242 0 min 0,000 mm 0,7 UV-I 131 W/m 10,8 C 10,3 C 12,9 km/h (3 Bft) 100,00 %
03.09.2017 10:20 11,4 C 18,9 C 97 % 1014,8 hPa 0,0 l/m 9,7 km/h (2 Bft) W-SW 254 0 min 0,000 mm 0,7 UV-I 142 W/m 10,9 C 9,3 C 14,5 km/h (3 Bft) 100,00 %
03.09.2017 10:22 11,4 C 18,9 C 97 % 1014,8 hPa 0,0 l/m 6,7 km/h (2 Bft) W 260 0 min 0,000 mm 0,8 UV-I 149 W/m 10,9 C 11,2 C 11,3 km/h (2 Bft) 100,00 %
03.09.2017 10:24 11,4 C 18,9 C 97 % 1014,8 hPa 0,0 l/m 7,9 km/h (2 Bft) SW 230 0 min 0,000 mm 0,8 UV-I 153 W/m 10,9 C 10,4 C 16,1 km/h (3 Bft) 100,00 %
03.09.2017 10:26 11,4 C 18,9 C 97 % 1014,9 hPa 0,0 l/m 7,6 km/h (2 Bft) SW 234 0 min 0,000 mm 0,8 UV-I 154 W/m 10,9 C 10,6 C 12,9 km/h (3 Bft) 100,00 %
03.09.2017 10:28 11,4 C 18,9 C 97 % 1014,8 hPa 0,0 l/m 8,6 km/h (2 Bft) W-SW 255 0 min 0,000 mm 0,8 UV-I 149 W/m 10,9 C 9,9 C 14,5 km/h (3 Bft) 100,00 %
03.09.2017 10:30 11,4 C 18,9 C 97 % 1014,9 hPa 0,0 l/m 11,1 km/h (2 Bft) W 277 0 min 0,000 mm 0,8 UV-I 146 W/m 10,9 C 8,6 C 19,3 km/h (3 Bft) 100,00 %
03.09.2017 10:32 11,4 C 18,9 C 97 % 1014,9 hPa 0,2 l/m 7,7 km/h (2 Bft) W-SW 257 0 min 0,000 mm 0,8 UV-I 150 W/m 10,9 C 10,5 C 12,9 km/h (3 Bft) 97,87 %
03.09.2017 10:34 11,4 C 18,9 C 97 % 1014,8 hPa 0,0 l/m 7,9 km/h (2 Bft) W-SW 243 0 min 0,000 mm 0,9 UV-I 162 W/m 10,9 C 10,4 C 17,7 km/h (3 Bft) 100,00 %
03.09.2017 10:36 11,5 C 18,9 C 97 % 1014,9 hPa 0,0 l/m 7,1 km/h (2 Bft) W-SW 244 0 min 0,000 mm 0,9 UV-I 166 W/m 11,0 C 11,0 C 11,3 km/h (2 Bft) 100,00 %
03.09.2017 10:38 11,6 C 18,9 C 97 % 1014,9 hPa 0,0 l/m 5,2 km/h (1 Bft) W-SW 249 0 min 0,000 mm 0,9 UV-I 163 W/m 11,1 C 11,6 C 11,3 km/h (2 Bft) 100,00 %
03.09.2017 10:40 11,5 C 18,9 C 97 % 1014,9 hPa 0,0 l/m 6,5 km/h (2 Bft) W-SW 246 0 min 0,000 mm 0,9 UV-I 167 W/m 11,0 C 11,5 C 9,7 km/h (2 Bft) 100,00 %
03.09.2017 10:42 11,5 C 18,9 C 97 % 1014,8 hPa 0,0 l/m 6,9 km/h (2 Bft) W 275 0 min 0,000 mm 0,9 UV-I 168 W/m 11,0 C 11,2 C 12,9 km/h (3 Bft) 97,87 %
03.09.2017 10:44 11,5 C 18,9 C 97 % 1014,8 hPa 0,0 l/m 9,5 km/h (2 Bft) W-SW 254 0 min 0,000 mm 0,9 UV-I 164 W/m 11,0 C 9,5 C 16,1 km/h (3 Bft) 100,00 %
03.09.2017 10:46 11,6 C 18,9 C 97 % 1014,8 hPa 0,0 l/m 8,6 km/h (2 Bft) W-SW 240 0 min 0,000 mm 0,9 UV-I 159 W/m 11,1 C 10,2 C 16,1 km/h (3 Bft) 100,00 %
03.09.2017 10:48 11,6 C 18,9 C 97 % 1014,8 hPa 0,0 l/m 5,7 km/h (1 Bft) W-SW 247 0 min 0,000 mm 0,9 UV-I 156 W/m 11,1 C 11,6 C 12,9 km/h (3 Bft) 97,87 %
03.09.2017 10:50 11,6 C 18,9 C 97 % 1014,8 hPa 0,0 l/m 6,8 km/h (2 Bft) W-SW 257 0 min 0,000 mm 0,9 UV-I 156 W/m 11,1 C 11,3 C 12,9 km/h (3 Bft) 97,87 %
03.09.2017 10:52 11,6 C 18,9 C 96 % 1014,8 hPa 0,2 l/m 12,0 km/h (2 Bft) W-SW 256 0 min 0,000 mm 0,9 UV-I 156 W/m 11,0 C 8,4 C 17,7 km/h (3 Bft) 100,00 %
03.09.2017 10:54 11,6 C 18,9 C 96 % 1014,8 hPa 0,0 l/m 7,5 km/h (2 Bft) W-NW 298 0 min 0,000 mm 0,9 UV-I 154 W/m 11,0 C 10,9 C 14,5 km/h (3 Bft) 100,00 %
03.09.2017 10:56 11,6 C 18,9 C 96 % 1014,8 hPa 0,0 l/m 8,7 km/h (2 Bft) W-NW 292 0 min 0,000 mm 0,8 UV-I 147 W/m 11,0 C 10,1 C 12,9 km/h (3 Bft) 98,11 %
03.09.2017 10:58 11,6 C 18,9 C 96 % 1014,9 hPa 0,0 l/m 7,2 km/h (2 Bft) W 265 0 min 0,000 mm 0,8 UV-I 137 W/m 11,0 C 11,1 C 14,5 km/h (3 Bft) 100,00 %
03.09.2017 11:00 11,6 C 18,9 C 96 % 1014,8 hPa 0,0 l/m 6,6 km/h (2 Bft) W 267 0 min 0,000 mm 0,8 UV-I 134 W/m 11,0 C 11,5 C 12,9 km/h (3 Bft) 100,00 %
03.09.2017 11:02 11,6 C 18,9 C 96 % 1014,8 hPa 0,0 l/m 9,6 km/h (2 Bft) W-NW 283 0 min 0,076 mm 0,8 UV-I 136 W/m 11,0 C 9,6 C 19,3 km/h (3 Bft) 98,00 %
03.09.2017 11:04 11,6 C 18,9 C 96 % 1014,9 hPa 0,0 l/m 7,6 km/h (2 Bft) W 273 0 min 0,000 mm 0,8 UV-I 137 W/m 11,0 C 10,8 C 12,9 km/h (3 Bft) 100,00 %
03.09.2017 11:06 11,6 C 18,9 C 96 % 1014,9 hPa 0,0 l/m 6,6 km/h (2 Bft) W 280 0 min 0,000 mm 0,8 UV-I 138 W/m 11,0 C 11,5 C 9,7 km/h (2 Bft) 97,87 %
03.09.2017 11:08 11,6 C 18,9 C 96 % 1014,9 hPa 0,0 l/m 5,3 km/h (1 Bft) W 264 0 min 0,000 mm 0,8 UV-I 139 W/m 11,0 C 11,6 C 9,7 km/h (2 Bft) 95,74 %
03.09.2017 11:10 11,7 C 18,9 C 96 % 1014,9 hPa 0,0 l/m 4,1 km/h (1 Bft) W-SW 257 0 min 0,000 mm 0,8 UV-I 142 W/m 11,1 C 11,7 C 6,4 km/h (2 Bft) 95,74 %
03.09.2017 11:12 11,6 C 18,9 C 96 % 1014,9 hPa 0,2 l/m 5,8 km/h (2 Bft) W 274 0 min 0,000 mm 0,8 UV-I 143 W/m 11,0 C 11,6 C 12,9 km/h (3 Bft) 97,87 %
03.09.2017 11:14 11,6 C 18,9 C 96 % 1014,9 hPa 0,0 l/m 6,3 km/h (2 Bft) W-SW 242 0 min 0,000 mm 0,8 UV-I 131 W/m 11,0 C 11,6 C 11,3 km/h (2 Bft) 95,74 %
03.09.2017 11:16 11,7 C 18,9 C 96 % 1014,9 hPa 0,0 l/m 5,4 km/h (1 Bft) SW 232 0 min 0,000 mm 0,7 UV-I 119 W/m 11,1 C 11,7 C 11,3 km/h (2 Bft) 97,92 %
03.09.2017 11:18 11,7 C 18,9 C 96 % 1014,9 hPa 0,0 l/m 5,0 km/h (1 Bft) W-SW 251 0 min 0,000 mm 0,7 UV-I 112 W/m 11,1 C 11,7 C 8,0 km/h (2 Bft) 97,87 %
03.09.2017 11:20 11,7 C 18,9 C 96 % 1014,9 hPa 0,0 l/m 7,4 km/h (2 Bft) W-SW 257 0 min 0,000 mm 0,7 UV-I 113 W/m 11,1 C 11,0 C 16,1 km/h (3 Bft) 97,87 %
03.09.2017 11:22 11,7 C 18,9 C 96 % 1014,9 hPa 0,0 l/m 7,1 km/h (2 Bft) W-NW 284 0 min 0,000 mm 0,7 UV-I 116 W/m 11,1 C 11,2 C 14,5 km/h (3 Bft) 97,87 %
03.09.2017 11:24 11,6 C 18,9 C 96 % 1015,0 hPa 0,0 l/m 6,2 km/h (2 Bft) W 268 0 min 0,000 mm 0,7 UV-I 120 W/m 11,0 C 11,6 C 9,7 km/h (2 Bft) 97,87 %
03.09.2017 11:26 11,7 C 18,9 C 96 % 1015,0 hPa 0,0 l/m 5,7 km/h (1 Bft) W 277 0 min 0,000 mm 0,7 UV-I 122 W/m 11,1 C 11,7 C 12,9 km/h (3 Bft) 97,92 %
03.09.2017 11:28 11,6 C 18,9 C 96 % 1014,9 hPa 0,0 l/m 5,9 km/h (2 Bft) W-NW 292 0 min 0,000 mm 0,7 UV-I 124 W/m 11,0 C 11,6 C 11,3 km/h (2 Bft) 97,87 %
03.09.2017 11:30 11,6 C 18,9 C 96 % 1015,0 hPa 0,0 l/m 7,0 km/h (2 Bft) W-SW 248 0 min 0,000 mm 0,8 UV-I 129 W/m 11,0 C 11,2 C 11,3 km/h (2 Bft) 93,62 %
03.09.2017 11:32 11,6 C 18,9 C 96 % 1014,9 hPa 0,0 l/m 9,0 km/h (2 Bft) W-NW 300 0 min 0,000 mm 0,8 UV-I 136 W/m 11,0 C 9,9 C 14,5 km/h (3 Bft) 97,56 %
03.09.2017 11:34 11,6 C 18,9 C 96 % 1014,9 hPa 0,0 l/m 5,8 km/h (2 Bft) W 268 0 min 0,000 mm 0,9 UV-I 141 W/m 11,0 C 11,6 C 8,0 km/h (2 Bft) 97,87 %
03.09.2017 11:36 11,6 C 18,9 C 96 % 1015,0 hPa 0,0 l/m 5,8 km/h (2 Bft) W-SW 252 0 min 0,000 mm 0,9 UV-I 141 W/m 11,0 C 11,6 C 14,5 km/h (3 Bft) 97,92 %
03.09.2017 11:38 11,6 C 18,9 C 96 % 1014,9 hPa 0,0 l/m 5,9 km/h (2 Bft) W-SW 246 0 min 0,000 mm 0,8 UV-I 138 W/m 11,0 C 11,6 C 9,7 km/h (2 Bft) 97,87 %
03.09.2017 11:40 11,7 C 18,9 C 95 % 1015,0 hPa 0,0 l/m 9,5 km/h (2 Bft) SW 234 0 min 0,000 mm 0,8 UV-I 137 W/m 10,9 C 9,7 C 16,1 km/h (3 Bft) 100,00 %
03.09.2017 11:42 11,7 C 18,9 C 95 % 1015,0 hPa 0,0 l/m 7,4 km/h (2 Bft) W 259 0 min 0,000 mm 0,8 UV-I 139 W/m 10,9 C 11,0 C 9,7 km/h (2 Bft) 100,00 %
03.09.2017 11:44 11,7 C 18,9 C 95 % 1015,0 hPa 0,0 l/m 6,6 km/h (2 Bft) W 267 0 min 0,000 mm 0,9 UV-I 143 W/m 10,9 C 11,6 C 12,9 km/h (3 Bft) 100,00 %
03.09.2017 11:46 11,8 C 18,9 C 95 % 1015,0 hPa 0,0 l/m 4,9 km/h (1 Bft) W-SW 258 0 min 0,000 mm 0,9 UV-I 146 W/m 11,0 C 11,8 C 9,7 km/h (2 Bft) 97,87 %
03.09.2017 11:48 11,8 C 18,9 C 95 % 1014,9 hPa 0,0 l/m 5,6 km/h (1 Bft) W 279 0 min 0,000 mm 0,9 UV-I 144 W/m 11,0 C 11,8 C 11,3 km/h (2 Bft) 100,00 %
03.09.2017 11:50 11,8 C 18,9 C 95 % 1014,9 hPa 0,0 l/m 5,9 km/h (2 Bft) W-SW 237 0 min 0,000 mm 0,9 UV-I 144 W/m 11,0 C 11,8 C 9,7 km/h (2 Bft) 100,00 %
03.09.2017 11:52 11,8 C 18,9 C 95 % 1014,9 hPa 0,0 l/m 5,8 km/h (2 Bft) W 279 0 min 0,000 mm 0,9 UV-I 148 W/m 11,0 C 11,8 C 9,7 km/h (2 Bft) 100,00 %
03.09.2017 11:54 11,8 C 18,9 C 95 % 1014,9 hPa 0,0 l/m 6,3 km/h (2 Bft) W-SW 246 0 min 0,000 mm 0,9 UV-I 152 W/m 11,0 C 11,8 C 12,9 km/h (3 Bft) 97,87 %
03.09.2017 11:56 11,9 C 18,9 C 95 % 1014,9 hPa 0,0 l/m 9,5 km/h (2 Bft) W-NW 286 0 min 0,000 mm 1,0 UV-I 156 W/m 11,1 C 10,0 C 14,5 km/h (3 Bft) 100,00 %
03.09.2017 11:58 11,9 C 18,9 C 95 % 1015,0 hPa 0,0 l/m 7,2 km/h (2 Bft) W-SW 250 0 min 0,000 mm 1,0 UV-I 160 W/m 11,1 C 11,4 C 12,9 km/h (3 Bft) 100,00 %
03.09.2017 12:00 11,9 C 18,9 C 95 % 1015,0 hPa 0,0 l/m 6,9 km/h (2 Bft) W-SW 248 0 min 0,076 mm 1,0 UV-I 162 W/m 11,1 C 11,6 C 12,9 km/h (3 Bft) 100,00 %
03.09.2017 12:02 12,0 C 18,9 C 95 % 1015,0 hPa 0,0 l/m 5,7 km/h (1 Bft) W-SW 252 0 min 0,000 mm 1,1 UV-I 165 W/m 11,2 C 12,0 C 9,7 km/h (2 Bft) 100,00 %
03.09.2017 12:04 12,1 C 18,9 C 95 % 1014,9 hPa 0,0 l/m 7,9 km/h (2 Bft) W-SW 252 0 min 0,000 mm 1,1 UV-I 171 W/m 11,3 C 11,1 C 12,9 km/h (3 Bft) 100,00 %
03.09.2017 12:06 12,1 C 18,9 C 95 % 1015,0 hPa 0,0 l/m 9,8 km/h (2 Bft) W-SW 244 0 min 0,000 mm 1,1 UV-I 177 W/m 11,3 C 10,0 C 14,5 km/h (3 Bft) 100,00 %
03.09.2017 12:08 12,1 C 18,9 C 95 % 1014,9 hPa 0,0 l/m 7,6 km/h (2 Bft) W-SW 237 0 min 0,000 mm 1,2 UV-I 179 W/m 11,3 C 11,3 C 12,9 km/h (3 Bft) 97,87 %
03.09.2017 12:10 12,1 C 18,9 C 95 % 1015,0 hPa 0,0 l/m 10,1 km/h (2 Bft) W-SW 238 0 min 0,000 mm 1,1 UV-I 175 W/m 11,3 C 9,9 C 14,5 km/h (3 Bft) 97,87 %
03.09.2017 12:12 12,2 C 18,9 C 95 % 1015,0 hPa 0,0 l/m 9,0 km/h (2 Bft) SW 215 0 min 0,000 mm 1,1 UV-I 166 W/m 11,4 C 10,6 C 14,5 km/h (3 Bft) 97,87 %
03.09.2017 12:14 12,2 C 18,9 C 94 % 1015,0 hPa 0,0 l/m 11,3 km/h (2 Bft) W-SW 254 0 min 0,000 mm 1,0 UV-I 155 W/m 11,3 C 9,4 C 16,1 km/h (3 Bft) 98,00 %
03.09.2017 12:16 12,2 C 18,9 C 94 % 1015,0 hPa 0,0 l/m 5,6 km/h (1 Bft) W-SW 245 0 min 0,000 mm 0,9 UV-I 141 W/m 11,3 C 12,2 C 8,0 km/h (2 Bft) 93,62 %
03.09.2017 12:18 12,3 C 18,9 C 95 % 1015,0 hPa 0,0 l/m 6,5 km/h (2 Bft) W-SW 242 0 min 0,000 mm 0,8 UV-I 129 W/m 11,5 C 12,3 C 11,3 km/h (2 Bft) 97,87 %
03.09.2017 12:20 12,3 C 18,9 C 94 % 1015,0 hPa 0,0 l/m 7,9 km/h (2 Bft) W-SW 258 0 min 0,000 mm 0,8 UV-I 120 W/m 11,4 C 11,3 C 11,3 km/h (2 Bft) 95,74 %
03.09.2017 12:22 12,2 C 18,9 C 94 % 1015,0 hPa 0,0 l/m 7,6 km/h (2 Bft) S-SW 203 0 min 0,000 mm 0,7 UV-I 116 W/m 11,3 C 11,4 C 14,5 km/h (3 Bft) 97,87 %
03.09.2017 12:24 12,2 C 18,9 C 94 % 1015,0 hPa 0,0 l/m 7,1 km/h (2 Bft) W-SW 258 0 min 0,000 mm 0,8 UV-I 120 W/m 11,3 C 11,7 C 14,5 km/h (3 Bft) 97,87 %
03.09.2017 12:26 12,2 C 18,9 C 94 % 1015,0 hPa 0,0 l/m 10,7 km/h (2 Bft) W-SW 256 0 min 0,000 mm 0,8 UV-I 130 W/m 11,3 C 9,7 C 16,1 km/h (3 Bft) 93,62 %
03.09.2017 12:28 12,2 C 18,9 C 94 % 1015,0 hPa 0,0 l/m 5,9 km/h (2 Bft) W 266 0 min 0,000 mm 0,9 UV-I 139 W/m 11,3 C 12,2 C 9,7 km/h (2 Bft) 97,87 %
03.09.2017 12:30 12,2 C 18,9 C 94 % 1015,0 hPa 0,0 l/m 11,0 km/h (2 Bft) W-SW 244 0 min 0,000 mm 0,9 UV-I 145 W/m 11,3 C 9,5 C 16,1 km/h (3 Bft) 95,74 %
03.09.2017 12:32 12,2 C 18,9 C 94 % 1015,0 hPa 0,0 l/m 8,7 km/h (2 Bft) W-SW 254 0 min 0,000 mm 0,9 UV-I 146 W/m 11,3 C 10,7 C 14,5 km/h (3 Bft) 100,00 %
03.09.2017 12:34 12,2 C 18,9 C 94 % 1015,0 hPa 0,0 l/m 6,8 km/h (2 Bft) W 269 0 min 0,000 mm 1,0 UV-I 148 W/m 11,3 C 11,9 C 14,5 km/h (3 Bft) 95,74 %
03.09.2017 12:36 12,2 C 18,9 C 94 % 1015,0 hPa 0,0 l/m 10,5 km/h (2 Bft) W 267 0 min 0,000 mm 1,0 UV-I 153 W/m 11,3 C 9,8 C 16,1 km/h (3 Bft) 97,87 %
03.09.2017 12:38 12,2 C 18,9 C 93 % 1015,0 hPa 0,0 l/m 7,9 km/h (2 Bft) W 259 0 min 0,000 mm 1,0 UV-I 156 W/m 11,1 C 11,2 C 14,5 km/h (3 Bft) 97,92 %
03.09.2017 12:40 12,2 C 18,9 C 93 % 1015,0 hPa 0,0 l/m 6,1 km/h (2 Bft) SW 234 0 min 0,000 mm 1,0 UV-I 159 W/m 11,1 C 12,2 C 12,9 km/h (3 Bft) 97,87 %
03.09.2017 12:42 12,2 C 18,9 C 94 % 1015,0 hPa 0,0 l/m 8,9 km/h (2 Bft) W-SW 251 0 min 0,000 mm 1,1 UV-I 160 W/m 11,3 C 10,6 C 12,9 km/h (3 Bft) 97,87 %
03.09.2017 12:44 12,3 C 18,9 C 94 % 1015,0 hPa 0,0 l/m 7,9 km/h (2 Bft) W-SW 253 0 min 0,000 mm 1,1 UV-I 161 W/m 11,4 C 11,3 C 14,5 km/h (3 Bft) 98,00 %
03.09.2017 12:46 12,2 C 18,9 C 93 % 1015,0 hPa 0,0 l/m 11,1 km/h (2 Bft) W-SW 239 0 min 0,000 mm 1,0 UV-I 157 W/m 11,1 C 9,5 C 16,1 km/h (3 Bft) 97,87 %
03.09.2017 12:48 12,2 C 18,9 C 93 % 1015,0 hPa 0,0 l/m 9,1 km/h (2 Bft) W-SW 246 0 min 0,000 mm 1,0 UV-I 152 W/m 11,1 C 10,5 C 14,5 km/h (3 Bft) 97,87 %
03.09.2017 12:50 12,3 C 18,9 C 93 % 1015,0 hPa 0,0 l/m 12,0 km/h (2 Bft) W-SW 250 0 min 0,000 mm 1,0 UV-I 148 W/m 11,2 C 9,2 C 19,3 km/h (3 Bft) 97,87 %
03.09.2017 12:52 12,3 C 18,9 C 93 % 1015,0 hPa 0,0 l/m 10,8 km/h (2 Bft) SW 236 0 min 0,000 mm 0,9 UV-I 145 W/m 11,2 C 9,7 C 17,7 km/h (3 Bft) 95,74 %
03.09.2017 12:54 12,3 C 18,9 C 93 % 1015,0 hPa 0,0 l/m 7,5 km/h (2 Bft) W-SW 249 0 min 0,000 mm 0,9 UV-I 136 W/m 11,2 C 11,6 C 12,9 km/h (3 Bft) 93,62 %
03.09.2017 12:56 12,3 C 18,9 C 93 % 1015,0 hPa 0,0 l/m 8,5 km/h (2 Bft) W-SW 258 0 min 0,000 mm 0,8 UV-I 123 W/m 11,2 C 11,0 C 14,5 km/h (3 Bft) 97,87 %
03.09.2017 12:58 12,3 C 18,9 C 93 % 1015,0 hPa 0,0 l/m 9,4 km/h (2 Bft) W-SW 246 0 min 0,000 mm 0,7 UV-I 111 W/m 11,2 C 10,5 C 14,5 km/h (3 Bft) 97,56 %
03.09.2017 13:00 12,3 C 18,9 C 93 % 1015,0 hPa 0,0 l/m 7,8 km/h (2 Bft) SW 216 0 min 0,076 mm 0,7 UV-I 104 W/m 11,2 C 11,4 C 12,9 km/h (3 Bft) 97,87 %
03.09.2017 13:02 12,3 C 18,9 C 93 % 1015,0 hPa 0,2 l/m 11,3 km/h (2 Bft) W-SW 249 0 min 0,000 mm 0,6 UV-I 99 W/m 11,2 C 9,5 C 17,7 km/h (3 Bft) 98,00 %
03.09.2017 13:04 12,2 C 18,9 C 92 % 1015,0 hPa 0,0 l/m 8,3 km/h (2 Bft) W 272 0 min 0,000 mm 0,6 UV-I 96 W/m 10,9 C 11,0 C 16,1 km/h (3 Bft) 100,00 %
03.09.2017 13:06 12,3 C 18,9 C 93 % 1015,0 hPa 0,0 l/m 6,3 km/h (2 Bft) SW 220 0 min 0,000 mm 0,6 UV-I 94 W/m 11,2 C 12,3 C 11,3 km/h (2 Bft) 95,74 %
03.09.2017 13:08 12,2 C 18,9 C 93 % 1015,0 hPa 0,0 l/m 10,3 km/h (2 Bft) W-SW 252 0 min 0,000 mm 0,6 UV-I 93 W/m 11,1 C 9,9 C 14,5 km/h (3 Bft) 95,74 %
03.09.2017 13:10 12,2 C 18,9 C 93 % 1015,0 hPa 0,0 l/m 8,7 km/h (2 Bft) W 275 0 min 0,000 mm 0,6 UV-I 93 W/m 11,1 C 10,7 C 16,1 km/h (3 Bft) 95,74 %
03.09.2017 13:12 12,2 C 18,9 C 93 % 1014,9 hPa 0,0 l/m 7,8 km/h (2 Bft) W-SW 256 0 min 0,000 mm 0,6 UV-I 94 W/m 11,1 C 11,3 C 12,9 km/h (3 Bft) 95,74 %
03.09.2017 13:14 12,2 C 18,9 C 93 % 1015,0 hPa 0,0 l/m 9,3 km/h (2 Bft) W 263 0 min 0,000 mm 0,6 UV-I 95 W/m 11,1 C 10,4 C 14,5 km/h (3 Bft) 93,62 %
03.09.2017 13:16 12,2 C 18,9 C 93 % 1015,0 hPa 0,0 l/m 9,4 km/h (2 Bft) W 260 0 min 0,000 mm 0,6 UV-I 97 W/m 11,1 C 10,3 C 16,1 km/h (3 Bft) 93,62 %
03.09.2017 13:18 12,2 C 18,9 C 93 % 1015,0 hPa 0,0 l/m 9,0 km/h (2 Bft) W 260 0 min 0,000 mm 0,6 UV-I 97 W/m 11,1 C 10,6 C 16,1 km/h (3 Bft) 98,00 %
03.09.2017 13:20 12,2 C 18,9 C 93 % 1014,9 hPa 0,0 l/m 10,9 km/h (2 Bft) W-SW 240 0 min 0,000 mm 0,6 UV-I 97 W/m 11,1 C 9,6 C 16,1 km/h (3 Bft) 97,87 %
03.09.2017 13:22 12,2 C 18,9 C 93 % 1015,0 hPa 0,0 l/m 8,5 km/h (2 Bft) W 273 0 min 0,000 mm 0,6 UV-I 96 W/m 11,1 C 10,9 C 12,9 km/h (3 Bft) 97,87 %
03.09.2017 13:24 12,2 C 18,9 C 93 % 1015,0 hPa 0,0 l/m 9,6 km/h (2 Bft) W 261 0 min 0,000 mm 0,6 UV-I 92 W/m 11,1 C 10,2 C 12,9 km/h (3 Bft) 95,74 %
03.09.2017 13:26 12,3 C 18,9 C 93 % 1015,0 hPa 0,0 l/m 8,1 km/h (2 Bft) W 269 0 min 0,000 mm 0,5 UV-I 89 W/m 11,2 C 11,2 C 12,9 km/h (3 Bft) 97,92 %
03.09.2017 13:28 12,3 C 18,9 C 93 % 1014,9 hPa 0,0 l/m 10,4 km/h (2 Bft) W-SW 252 0 min 0,000 mm 0,5 UV-I 89 W/m 11,2 C 9,9 C 14,5 km/h (3 Bft) 97,87 %
03.09.2017 13:30 12,3 C 18,9 C 93 % 1014,9 hPa 0,0 l/m 8,3 km/h (2 Bft) W-SW 246 0 min 0,000 mm 0,6 UV-I 96 W/m 11,2 C 11,1 C 12,9 km/h (3 Bft) 97,37 %
03.09.2017 13:32 12,3 C 18,9 C 93 % 1014,9 hPa 0,0 l/m 6,2 km/h (2 Bft) SW 226 0 min 0,000 mm 0,7 UV-I 108 W/m 11,2 C 12,3 C 9,7 km/h (2 Bft) 91,49 %
03.09.2017 13:34 12,3 C 18,9 C 93 % 1014,9 hPa 0,0 l/m 7,0 km/h (2 Bft) SW 233 0 min 0,000 mm 0,7 UV-I 115 W/m 11,2 C 11,9 C 9,7 km/h (2 Bft) 97,87 %
03.09.2017 13:36 12,3 C 18,9 C 93 % 1014,9 hPa 0,0 l/m 6,7 km/h (2 Bft) SW 218 0 min 0,000 mm 0,8 UV-I 120 W/m 11,2 C 12,1 C 12,9 km/h (3 Bft) 97,87 %
03.09.2017 13:38 12,4 C 18,9 C 93 % 1015,0 hPa 0,0 l/m 6,6 km/h (2 Bft) SW 236 0 min 0,000 mm 0,8 UV-I 124 W/m 11,3 C 12,3 C 9,7 km/h (2 Bft) 100,00 %
03.09.2017 13:40 12,4 C 18,9 C 93 % 1014,9 hPa 0,0 l/m 10,0 km/h (2 Bft) SW 236 0 min 0,000 mm 0,8 UV-I 128 W/m 11,3 C 10,2 C 16,1 km/h (3 Bft) 100,00 %
03.09.2017 13:42 12,4 C 18,9 C 92 % 1014,9 hPa 0,0 l/m 8,5 km/h (2 Bft) W-SW 254 0 min 0,000 mm 0,8 UV-I 132 W/m 11,1 C 11,1 C 12,9 km/h (3 Bft) 100,00 %
03.09.2017 13:44 12,4 C 18,9 C 93 % 1014,9 hPa 0,0 l/m 7,1 km/h (2 Bft) SW 232 0 min 0,000 mm 0,8 UV-I 134 W/m 11,3 C 11,9 C 11,3 km/h (2 Bft) 96,00 %
03.09.2017 13:46 12,5 C 18,9 C 93 % 1014,9 hPa 0,0 l/m 7,8 km/h (2 Bft) W 261 0 min 0,000 mm 0,9 UV-I 135 W/m 11,4 C 11,6 C 14,5 km/h (3 Bft) 100,00 %
03.09.2017 13:48 12,5 C 18,9 C 93 % 1014,9 hPa 0,0 l/m 9,7 km/h (2 Bft) SW 234 0 min 0,000 mm 0,8 UV-I 135 W/m 11,4 C 10,5 C 16,1 km/h (3 Bft) 100,00 %
03.09.2017 13:50 12,6 C 18,9 C 93 % 1014,9 hPa 0,0 l/m 7,2 km/h (2 Bft) W-SW 241 0 min 0,000 mm 0,8 UV-I 136 W/m 11,5 C 12,1 C 11,3 km/h (2 Bft) 100,00 %
03.09.2017 13:52 12,6 C 18,9 C 93 % 1014,9 hPa 0,0 l/m 5,8 km/h (2 Bft) S-SW 213 0 min 0,000 mm 0,9 UV-I 141 W/m 11,5 C 12,6 C 11,3 km/h (2 Bft) 100,00 %
03.09.2017 13:54 12,6 C 18,9 C 93 % 1014,9 hPa 0,0 l/m 6,9 km/h (2 Bft) W-SW 257 0 min 0,000 mm 0,9 UV-I 150 W/m 11,5 C 12,3 C 12,9 km/h (3 Bft) 100,00 %
03.09.2017 13:56 12,7 C 18,9 C 93 % 1014,8 hPa 0,0 l/m 7,4 km/h (2 Bft) SW 232 0 min 0,000 mm 1,0 UV-I 159 W/m 11,6 C 12,1 C 12,9 km/h (3 Bft) 97,87 %
03.09.2017 13:58 12,7 C 18,9 C 92 % 1014,8 hPa 0,0 l/m 6,0 km/h (2 Bft) W-SW 239 0 min 0,000 mm 1,0 UV-I 166 W/m 11,4 C 12,7 C 9,7 km/h (2 Bft) 100,00 %
03.09.2017 14:00 12,7 C 18,9 C 92 % 1014,8 hPa 0,0 l/m 9,3 km/h (2 Bft) W-SW 242 0 min 0,076 mm 1,1 UV-I 174 W/m 11,4 C 10,9 C 16,1 km/h (3 Bft) 100,00 %
03.09.2017 14:02 12,7 C 18,9 C 92 % 1014,8 hPa 0,0 l/m 8,7 km/h (2 Bft) SW 226 0 min 0,000 mm 1,1 UV-I 182 W/m 11,4 C 11,3 C 14,5 km/h (3 Bft) 97,83 %
03.09.2017 14:04 12,8 C 18,9 C 92 % 1014,8 hPa 0,0 l/m 10,8 km/h (2 Bft) SW 216 0 min 0,000 mm 1,1 UV-I 188 W/m 11,5 C 10,3 C 16,1 km/h (3 Bft) 100,00 %
03.09.2017 14:06 12,8 C 18,9 C 91 % 1014,8 hPa 0,0 l/m 9,6 km/h (2 Bft) W 268 0 min 0,000 mm 1,1 UV-I 192 W/m 11,4 C 10,9 C 16,1 km/h (3 Bft) 100,00 %
03.09.2017 14:08 12,9 C 18,9 C 91 % 1014,8 hPa 0,0 l/m 7,9 km/h (2 Bft) W-SW 240 0 min 0,000 mm 1,2 UV-I 196 W/m 11,5 C 12,0 C 12,9 km/h (3 Bft) 100,00 %
03.09.2017 14:10 12,9 C 18,9 C 91 % 1014,8 hPa 0,0 l/m 10,0 km/h (2 Bft) W-SW 257 0 min 0,000 mm 1,2 UV-I 201 W/m 11,5 C 10,8 C 16,1 km/h (3 Bft) 97,14 %
03.09.2017 14:12 12,9 C 18,9 C 91 % 1014,8 hPa 0,0 l/m 10,4 km/h (2 Bft) W 259 0 min 0,000 mm 1,2 UV-I 203 W/m 11,5 C 10,6 C 16,1 km/h (3 Bft) 100,00 %
03.09.2017 14:14 12,9 C 18,9 C 90 % 1014,7 hPa 0,0 l/m 9,8 km/h (2 Bft) W-SW 250 0 min 0,000 mm 1,2 UV-I 206 W/m 11,3 C 10,9 C 14,5 km/h (3 Bft) 98,00 %
03.09.2017 14:16 13,0 C 18,9 C 90 % 1014,7 hPa 0,0 l/m 7,6 km/h (2 Bft) SW 234 0 min 0,000 mm 1,2 UV-I 209 W/m 11,4 C 12,2 C 12,9 km/h (3 Bft) 100,00 %
03.09.2017 14:18 13,1 C 18,9 C 90 % 1014,7 hPa 0,0 l/m 6,4 km/h (2 Bft) SW 217 0 min 0,000 mm 1,2 UV-I 219 W/m 11,5 C 13,1 C 11,3 km/h (2 Bft) 100,00 %
03.09.2017 14:20 13,1 C 18,9 C 90 % 1014,7 hPa 0,0 l/m 11,9 km/h (2 Bft) SW 228 0 min 0,000 mm 1,3 UV-I 232 W/m 11,5 C 10,1 C 14,5 km/h (3 Bft) 100,00 %
03.09.2017 14:22 13,1 C 18,9 C 89 % 1014,6 hPa 0,0 l/m 11,9 km/h (2 Bft) S 184 0 min 0,000 mm 1,4 UV-I 247 W/m 11,3 C 10,1 C 17,7 km/h (3 Bft) 100,00 %
03.09.2017 14:24 13,2 C 18,9 C 89 % 1014,6 hPa 0,0 l/m 11,1 km/h (2 Bft) W-SW 255 0 min 0,000 mm 1,4 UV-I 255 W/m 11,4 C 10,6 C 16,1 km/h (3 Bft) 100,00 %
03.09.2017 14:26 13,2 C 18,9 C 89 % 1014,5 hPa 0,0 l/m 11,5 km/h (2 Bft) W-SW 257 0 min 0,000 mm 1,4 UV-I 265 W/m 11,4 C 10,4 C 14,5 km/h (3 Bft) 100,00 %
03.09.2017 14:28 13,3 C 18,9 C 89 % 1014,5 hPa 0,0 l/m 8,1 km/h (2 Bft) SW 230 0 min 0,000 mm 1,5 UV-I 277 W/m 11,5 C 12,3 C 11,3 km/h (2 Bft) 100,00 %
03.09.2017 14:30 13,3 C 18,9 C 88 % 1014,5 hPa 0,0 l/m 8,6 km/h (2 Bft) W-SW 244 0 min 0,000 mm 1,6 UV-I 290 W/m 11,4 C 12,0 C 14,5 km/h (3 Bft) 100,00 %
03.09.2017 14:32 13,4 C 18,9 C 88 % 1014,5 hPa 0,0 l/m 6,8 km/h (2 Bft) SW 229 0 min 0,000 mm 1,6 UV-I 303 W/m 11,5 C 13,2 C 9,7 km/h (2 Bft) 95,74 %
03.09.2017 14:34 13,4 C 18,9 C 88 % 1014,4 hPa 0,0 l/m 9,4 km/h (2 Bft) SW 216 0 min 0,000 mm 1,6 UV-I 312 W/m 11,5 C 11,7 C 12,9 km/h (3 Bft) 97,87 %
03.09.2017 14:36 13,5 C 18,9 C 88 % 1014,5 hPa 0,0 l/m 7,8 km/h (2 Bft) W-SW 252 0 min 0,000 mm 1,6 UV-I 316 W/m 11,6 C 12,6 C 14,5 km/h (3 Bft) 100,00 %
03.09.2017 14:38 13,6 C 18,9 C 88 % 1014,5 hPa 0,0 l/m 8,3 km/h (2 Bft) W-SW 251 0 min 0,000 mm 1,6 UV-I 319 W/m 11,6 C 12,5 C 14,5 km/h (3 Bft) 97,87 %
03.09.2017 14:40 13,7 C 18,9 C 88 % 1014,4 hPa 0,0 l/m 9,0 km/h (2 Bft) W-SW 240 0 min 0,000 mm 1,7 UV-I 325 W/m 11,7 C 12,2 C 14,5 km/h (3 Bft) 100,00 %
03.09.2017 14:42 13,7 C 18,9 C 87 % 1014,4 hPa 0,0 l/m 9,6 km/h (2 Bft) W 263 0 min 0,000 mm 1,7 UV-I 334 W/m 11,6 C 11,9 C 16,1 km/h (3 Bft) 100,00 %
03.09.2017 14:44 13,8 C 18,9 C 87 % 1014,4 hPa 0,0 l/m 8,7 km/h (2 Bft) S-SW 202 0 min 0,000 mm 1,8 UV-I 349 W/m 11,7 C 12,5 C 12,9 km/h (3 Bft) 100,00 %
03.09.2017 14:46 13,9 C 18,9 C 87 % 1014,3 hPa 0,0 l/m 11,3 km/h (2 Bft) W-SW 254 0 min 0,000 mm 1,8 UV-I 359 W/m 11,8 C 11,3 C 19,3 km/h (3 Bft) 100,00 %
03.09.2017 14:48 13,9 C 18,9 C 85 % 1014,3 hPa 0,0 l/m 12,5 km/h (3 Bft) W-SW 252 0 min 0,000 mm 1,9 UV-I 361 W/m 11,4 C 10,8 C 19,3 km/h (3 Bft) 95,74 %
03.09.2017 14:50 13,9 C 18,9 C 86 % 1014,3 hPa 0,0 l/m 9,3 km/h (2 Bft) W-SW 242 0 min 0,000 mm 1,9 UV-I 359 W/m 11,6 C 12,2 C 14,5 km/h (3 Bft) 100,00 %
03.09.2017 14:52 14,1 C 18,9 C 86 % 1014,3 hPa 0,0 l/m 6,9 km/h (2 Bft) SW 219 0 min 0,000 mm 1,9 UV-I 360 W/m 11,8 C 13,8 C 11,3 km/h (2 Bft) 97,87 %
03.09.2017 14:54 14,1 C 18,9 C 85 % 1014,3 hPa 0,0 l/m 10,9 km/h (2 Bft) W-SW 248 0 min 0,000 mm 1,9 UV-I 364 W/m 11,6 C 11,7 C 17,7 km/h (3 Bft) 100,00 %
03.09.2017 14:56 14,1 C 18,9 C 85 % 1014,2 hPa 0,0 l/m 11,6 km/h (2 Bft) W-SW 249 2 min 0,000 mm 2,0 UV-I 378 W/m 11,6 C 11,4 C 17,7 km/h (3 Bft) 97,56 %
03.09.2017 14:58 14,2 C 18,9 C 83 % 1014,2 hPa 0,0 l/m 12,2 km/h (2 Bft) SW 226 2 min 0,000 mm 2,1 UV-I 403 W/m 11,4 C 11,3 C 17,7 km/h (3 Bft) 96,00 %
03.09.2017 15:00 14,3 C 18,9 C 84 % 1014,2 hPa 0,0 l/m 8,6 km/h (2 Bft) SW 236 2 min 0,000 mm 2,3 UV-I 448 W/m 11,6 C 13,0 C 12,9 km/h (3 Bft) 100,00 %
03.09.2017 15:02 14,4 C 18,9 C 85 % 1014,2 hPa 0,0 l/m 6,8 km/h (2 Bft) SW 215 2 min 0,153 mm 2,6 UV-I 560 W/m 11,9 C 14,2 C 12,9 km/h (3 Bft) 98,00 %
03.09.2017 15:04 14,7 C 18,9 C 83 % 1014,2 hPa 0,0 l/m 11,3 km/h (2 Bft) W-SW 254 2 min 0,000 mm 2,6 UV-I 671 W/m 11,8 C 12,2 C 17,7 km/h (3 Bft) 97,87 %
03.09.2017 15:06 14,8 C 18,9 C 83 % 1014,2 hPa 0,0 l/m 12,8 km/h (3 Bft) S-SW 207 2 min 0,000 mm 2,7 UV-I 666 W/m 11,9 C 11,7 C 19,3 km/h (3 Bft) 97,87 %
03.09.2017 15:08 14,8 C 18,9 C 80 % 1014,2 hPa 0,0 l/m 12,6 km/h (3 Bft) W-SW 237 2 min 0,000 mm 2,7 UV-I 633 W/m 11,4 C 11,8 C 19,3 km/h (3 Bft) 97,87 %
03.09.2017 15:10 14,9 C 18,9 C 80 % 1014,1 hPa 0,0 l/m 10,2 km/h (2 Bft) W 271 2 min 0,000 mm 2,6 UV-I 612 W/m 11,5 C 12,9 C 16,1 km/h (3 Bft) 97,37 %
03.09.2017 15:12 15,0 C 18,9 C 80 % 1014,2 hPa 0,0 l/m 9,3 km/h (2 Bft) W-NW 291 2 min 0,000 mm 2,6 UV-I 597 W/m 11,6 C 13,4 C 17,7 km/h (3 Bft) 97,87 %
03.09.2017 15:14 15,1 C 18,9 C 79 % 1014,2 hPa 0,0 l/m 12,8 km/h (3 Bft) SW 236 2 min 0,000 mm 2,5 UV-I 584 W/m 11,5 C 12,1 C 19,3 km/h (3 Bft) 97,87 %
03.09.2017 15:16 15,2 C 18,9 C 79 % 1014,1 hPa 0,0 l/m 12,2 km/h (2 Bft) W-SW 241 2 min 0,000 mm 2,4 UV-I 578 W/m 11,6 C 12,4 C 20,9 km/h (4 Bft) 95,74 %
03.09.2017 15:18 15,1 C 18,9 C 77 % 1014,1 hPa 0,0 l/m 9,7 km/h (2 Bft) W 273 2 min 0,000 mm 2,4 UV-I 562 W/m 11,1 C 13,4 C 17,7 km/h (3 Bft) 93,75 %
03.09.2017 15:20 15,2 C 18,9 C 79 % 1014,0 hPa 0,0 l/m 8,9 km/h (2 Bft) W-SW 238 2 min 0,000 mm 2,4 UV-I 547 W/m 11,6 C 13,9 C 14,5 km/h (3 Bft) 98,04 %
03.09.2017 15:22 15,2 C 18,9 C 80 % 1014,0 hPa 0,0 l/m 6,6 km/h (2 Bft) W 280 2 min 0,000 mm 2,4 UV-I 542 W/m 11,8 C 15,1 C 11,3 km/h (2 Bft) 96,00 %
03.09.2017 15:24 15,3 C 18,9 C 80 % 1014,1 hPa 0,0 l/m 6,1 km/h (2 Bft) W 269 2 min 0,000 mm 2,3 UV-I 547 W/m 11,9 C 15,3 C 11,3 km/h (2 Bft) 97,44 %
03.09.2017 15:26 15,3 C 18,9 C 76 % 1014,0 hPa 0,0 l/m 5,2 km/h (1 Bft) W-SW 240 2 min 0,000 mm 2,3 UV-I 548 W/m 11,1 C 15,3 C 11,3 km/h (2 Bft) 98,00 %
03.09.2017 15:28 15,3 C 18,9 C 75 % 1014,0 hPa 0,0 l/m 9,4 km/h (2 Bft) S-SW 212 2 min 0,000 mm 2,2 UV-I 558 W/m 10,9 C 13,7 C 12,9 km/h (3 Bft) 98,00 %
03.09.2017 15:30 15,3 C 18,9 C 76 % 1014,0 hPa 0,0 l/m 13,8 km/h (3 Bft) W-SW 252 2 min 0,000 mm 2,1 UV-I 478 W/m 11,1 C 12,0 C 22,5 km/h (4 Bft) 97,87 %
03.09.2017 15:32 15,3 C 18,9 C 74 % 1013,9 hPa 0,0 l/m 12,4 km/h (3 Bft) W-SW 247 2 min 0,000 mm 1,6 UV-I 386 W/m 10,7 C 12,5 C 19,3 km/h (3 Bft) 95,74 %
03.09.2017 15:34 15,2 C 18,9 C 76 % 1013,9 hPa 0,0 l/m 13,7 km/h (3 Bft) W 270 0 min 0,000 mm 1,2 UV-I 233 W/m 11,0 C 11,9 C 20,9 km/h (4 Bft) 100,00 %
03.09.2017 15:36 15,0 C 18,9 C 77 % 1013,9 hPa 0,0 l/m 7,6 km/h (2 Bft) SW 227 0 min 0,000 mm 1,1 UV-I 222 W/m 11,0 C 14,3 C 14,5 km/h (3 Bft) 100,00 %
03.09.2017 15:38 14,9 C 18,9 C 79 % 1013,9 hPa 0,0 l/m 9,3 km/h (2 Bft) W-SW 253 0 min 0,000 mm 1,3 UV-I 265 W/m 11,3 C 13,3 C 16,1 km/h (3 Bft) 100,00 %
03.09.2017 15:40 14,8 C 18,9 C 80 % 1013,9 hPa 0,0 l/m 8,7 km/h (2 Bft) W-SW 248 0 min 0,000 mm 1,4 UV-I 306 W/m 11,4 C 13,5 C 16,1 km/h (3 Bft) 94,00 %
03.09.2017 15:42 14,9 C 18,9 C 81 % 1013,9 hPa 0,0 l/m 13,0 km/h (3 Bft) W-SW 244 0 min 0,000 mm 1,4 UV-I 250 W/m 11,7 C 11,8 C 19,3 km/h (3 Bft) 97,87 %
03.09.2017 15:44 14,9 C 18,9 C 80 % 1013,9 hPa 0,0 l/m 14,3 km/h (3 Bft) W-SW 243 0 min 0,000 mm 1,7 UV-I 288 W/m 11,5 C 11,3 C 19,3 km/h (3 Bft) 100,00 %
03.09.2017 15:46 14,9 C 18,9 C 79 % 1013,9 hPa 0,0 l/m 15,1 km/h (3 Bft) W 263 2 min 0,000 mm 1,9 UV-I 532 W/m 11,3 C 11,0 C 20,9 km/h (4 Bft) 100,00 %
03.09.2017 15:48 14,9 C 18,9 C 79 % 1013,9 hPa 0,0 l/m 13,6 km/h (3 Bft) W-SW 247 2 min 0,000 mm 2,0 UV-I 511 W/m 11,3 C 11,6 C 19,3 km/h (3 Bft) 100,00 %
03.09.2017 15:50 15,1 C 18,9 C 79 % 1013,8 hPa 0,0 l/m 15,3 km/h (3 Bft) W-SW 244 2 min 0,000 mm 1,8 UV-I 524 W/m 11,5 C 11,2 C 24,1 km/h (4 Bft) 97,87 %
03.09.2017 15:52 15,2 C 18,9 C 80 % 1013,9 hPa 0,0 l/m 12,5 km/h (3 Bft) W-SW 237 2 min 0,000 mm 1,3 UV-I 394 W/m 11,8 C 12,3 C 17,7 km/h (3 Bft) 100,00 %
03.09.2017 15:54 15,1 C 18,9 C 78 % 1013,9 hPa 0,0 l/m 18,5 km/h (3 Bft) SW 227 0 min 0,000 mm 1,3 UV-I 174 W/m 11,3 C 10,3 C 25,7 km/h (4 Bft) 95,74 %
03.09.2017 15:56 14,9 C 18,9 C 78 % 1013,9 hPa 0,0 l/m 15,6 km/h (3 Bft) SW 236 0 min 0,000 mm 1,6 UV-I 202 W/m 11,1 C 10,9 C 24,1 km/h (4 Bft) 98,11 %
03.09.2017 15:58 15,0 C 18,9 C 79 % 1013,9 hPa 0,0 l/m 10,1 km/h (2 Bft) W 265 0 min 0,000 mm 1,5 UV-I 203 W/m 11,4 C 13,1 C 16,1 km/h (3 Bft) 100,00 %
03.09.2017 16:00 15,0 C 18,9 C 78 % 1013,9 hPa 0,0 l/m 5,7 km/h (1 Bft) W-SW 254 0 min 0,254 mm 1,7 UV-I 211 W/m 11,2 C 15,0 C 8,0 km/h (2 Bft) 97,92 %
03.09.2017 16:02 15,1 C 18,9 C 78 % 1013,9 hPa 0,0 l/m 5,2 km/h (1 Bft) SW 234 2 min 0,000 mm 1,8 UV-I 351 W/m 11,3 C 15,1 C 14,5 km/h (3 Bft) 97,87 %
03.09.2017 16:04 15,3 C 18,9 C 73 % 1013,9 hPa 0,0 l/m 7,4 km/h (2 Bft) W-SW 258 2 min 0,000 mm 1,8 UV-I 574 W/m 10,5 C 14,7 C 12,9 km/h (3 Bft) 97,87 %
03.09.2017 16:06 15,4 C 18,9 C 73 % 1013,9 hPa 0,0 l/m 8,6 km/h (2 Bft) W-SW 247 2 min 0,000 mm 1,7 UV-I 643 W/m 10,6 C 14,2 C 14,5 km/h (3 Bft) 97,87 %
03.09.2017 16:08 15,6 C 18,9 C 74 % 1013,9 hPa 0,0 l/m 11,2 km/h (2 Bft) SW 226 2 min 0,000 mm 1,5 UV-I 639 W/m 11,0 C 13,3 C 17,7 km/h (3 Bft) 100,00 %
03.09.2017 16:10 15,6 C 18,9 C 76 % 1013,9 hPa 0,0 l/m 13,1 km/h (3 Bft) W-SW 248 2 min 0,000 mm 1,2 UV-I 552 W/m 11,4 C 12,6 C 20,9 km/h (4 Bft) 97,87 %
03.09.2017 16:12 15,6 C 18,9 C 75 % 1013,9 hPa 0,0 l/m 15,2 km/h (3 Bft) W 259 0 min 0,000 mm 0,8 UV-I 172 W/m 11,2 C 11,9 C 22,5 km/h (4 Bft) 100,00 %
03.09.2017 16:14 15,4 C 18,9 C 74 % 1013,8 hPa 0,0 l/m 13,6 km/h (3 Bft) W 267 0 min 0,000 mm 0,7 UV-I 136 W/m 10,8 C 12,1 C 20,9 km/h (4 Bft) 100,00 %
03.09.2017 16:16 15,2 C 18,9 C 75 % 1013,8 hPa 0,0 l/m 12,4 km/h (3 Bft) SW 227 0 min 0,000 mm 0,6 UV-I 117 W/m 10,8 C 12,3 C 19,3 km/h (3 Bft) 100,00 %
03.09.2017 16:18 15,0 C 18,9 C 76 % 1013,9 hPa 0,0 l/m 16,4 km/h (3 Bft) W-NW 288 0 min 0,000 mm 0,5 UV-I 103 W/m 10,8 C 10,7 C 25,7 km/h (4 Bft) 100,00 %
03.09.2017 16:20 14,9 C 18,9 C 77 % 1013,9 hPa 0,0 l/m 12,8 km/h (3 Bft) W-SW 248 0 min 0,000 mm 0,0 UV-I 90 W/m 10,9 C 11,8 C 22,5 km/h (4 Bft) 97,87 %
03.09.2017 16:22 14,7 C 18,9 C 78 % 1013,9 hPa 0,0 l/m 13,2 km/h (3 Bft) W-SW 253 0 min 0,000 mm 0,4 UV-I 102 W/m 10,9 C 11,5 C 19,3 km/h (3 Bft) 97,87 %
03.09.2017 16:24 14,6 C 18,9 C 78 % 1014,0 hPa 0,0 l/m 18,3 km/h (3 Bft) W-SW 258 0 min 0,000 mm 0,5 UV-I 119 W/m 10,8 C 9,7 C 30,6 km/h (5 Bft) 100,00 %
03.09.2017 16:26 14,3 C 18,9 C 79 % 1014,0 hPa 0,0 l/m 17,1 km/h (3 Bft) S-SW 211 0 min 0,000 mm 0,6 UV-I 135 W/m 10,7 C 9,7 C 30,6 km/h (5 Bft) 97,87 %
03.09.2017 16:28 13,9 C 18,9 C 78 % 1014,0 hPa 0,0 l/m 21,4 km/h (4 Bft) W-SW 244 0 min 0,000 mm 0,6 UV-I 144 W/m 10,1 C 8,0 C 32,2 km/h (5 Bft) 100,00 %
03.09.2017 16:30 13,6 C 18,9 C 80 % 1014,0 hPa 0,0 l/m 19,0 km/h (3 Bft) W 262 0 min 0,000 mm 0,7 UV-I 146 W/m 10,2 C 8,2 C 27,4 km/h (4 Bft) 97,87 %
03.09.2017 16:32 13,3 C 18,9 C 81 % 1014,1 hPa 0,0 l/m 15,9 km/h (3 Bft) W-SW 237 0 min 0,000 mm 0,7 UV-I 147 W/m 10,1 C 8,8 C 24,1 km/h (4 Bft) 100,00 %
03.09.2017 16:34 13,1 C 18,9 C 82 % 1014,0 hPa 0,0 l/m 13,9 km/h (3 Bft) W 261 0 min 0,000 mm 0,7 UV-I 148 W/m 10,1 C 9,3 C 19,3 km/h (3 Bft) 100,00 %
03.09.2017 16:36 12,9 C 18,9 C 83 % 1014,0 hPa 0,0 l/m 13,5 km/h (3 Bft) W-SW 240 0 min 0,000 mm 0,7 UV-I 148 W/m 10,1 C 9,2 C 20,9 km/h (4 Bft) 100,00 %
03.09.2017 16:38 12,8 C 18,9 C 84 % 1014,0 hPa 0,0 l/m 17,7 km/h (3 Bft) SW 217 0 min 0,000 mm 0,7 UV-I 148 W/m 10,2 C 7,6 C 29,0 km/h (5 Bft) 100,00 %
03.09.2017 16:40 12,8 C 18,9 C 84 % 1014,0 hPa 0,0 l/m 13,6 km/h (3 Bft) W 269 0 min 0,000 mm 0,7 UV-I 147 W/m 10,2 C 9,1 C 19,3 km/h (3 Bft) 100,00 %
03.09.2017 16:42 12,8 C 18,9 C 84 % 1014,0 hPa 0,0 l/m 15,1 km/h (3 Bft) W-SW 247 0 min 0,000 mm 0,7 UV-I 144 W/m 10,2 C 8,5 C 20,9 km/h (4 Bft) 97,87 %
03.09.2017 16:44 12,8 C 18,9 C 83 % 1014,0 hPa 0,0 l/m 12,6 km/h (3 Bft) W-SW 257 0 min 0,000 mm 0,7 UV-I 141 W/m 10,0 C 9,5 C 19,3 km/h (3 Bft) 97,87 %
03.09.2017 16:46 12,8 C 18,9 C 84 % 1014,0 hPa 0,0 l/m 15,6 km/h (3 Bft) W-SW 254 0 min 0,000 mm 0,6 UV-I 132 W/m 10,2 C 8,3 C 20,9 km/h (4 Bft) 100,00 %
03.09.2017 16:48 12,8 C 18,9 C 84 % 1014,0 hPa 0,0 l/m 15,3 km/h (3 Bft) SW 225 0 min 0,000 mm 0,6 UV-I 123 W/m 10,2 C 8,4 C 22,5 km/h (4 Bft) 100,00 %
03.09.2017 16:50 12,8 C 18,9 C 83 % 1014,0 hPa 0,0 l/m 14,4 km/h (3 Bft) SW 230 0 min 0,000 mm 0,6 UV-I 122 W/m 10,0 C 8,8 C 20,9 km/h (4 Bft) 98,00 %
03.09.2017 16:52 12,8 C 18,9 C 83 % 1014,0 hPa 0,0 l/m 15,0 km/h (3 Bft) W-SW 242 0 min 0,000 mm 0,6 UV-I 129 W/m 10,0 C 8,5 C 22,5 km/h (4 Bft) 97,87 %
03.09.2017 16:54 12,8 C 18,9 C 83 % 1014,1 hPa 0,0 l/m 14,4 km/h (3 Bft) SW 236 0 min 0,000 mm 0,7 UV-I 145 W/m 10,0 C 8,8 C 19,3 km/h (3 Bft) 98,00 %
03.09.2017 16:56 12,9 C 18,9 C 83 % 1014,0 hPa 0,0 l/m 14,6 km/h (3 Bft) W-SW 247 0 min 0,000 mm 0,7 UV-I 155 W/m 10,1 C 8,8 C 20,9 km/h (4 Bft) 92,68 %
03.09.2017 16:58 12,9 C 18,9 C 82 % 1014,0 hPa 0,0 l/m 16,4 km/h (3 Bft) W-SW 250 0 min 0,000 mm 0,7 UV-I 154 W/m 9,9 C 8,2 C 24,1 km/h (4 Bft) 95,74 %
03.09.2017 17:00 13,0 C 18,9 C 83 % 1014,0 hPa 0,0 l/m 11,9 km/h (2 Bft) SW 234 0 min 0,000 mm 0,7 UV-I 150 W/m 10,2 C 10,0 C 19,3 km/h (3 Bft) 93,62 %
03.09.2017 17:02 13,1 C 18,9 C 82 % 1014,0 hPa 0,0 l/m 13,6 km/h (3 Bft) W-SW 247 0 min 0,127 mm 0,7 UV-I 148 W/m 10,1 C 9,4 C 19,3 km/h (3 Bft) 93,62 %
03.09.2017 17:04 13,1 C 18,9 C 82 % 1014,1 hPa 0,0 l/m 15,8 km/h (3 Bft) W 270 0 min 0,000 mm 0,7 UV-I 158 W/m 10,1 C 8,6 C 24,1 km/h (4 Bft) 96,00 %
03.09.2017 17:06 13,1 C 18,9 C 82 % 1014,0 hPa 0,0 l/m 12,1 km/h (2 Bft) W-SW 252 0 min 0,000 mm 0,7 UV-I 150 W/m 10,1 C 10,0 C 22,5 km/h (4 Bft) 94,00 %
03.09.2017 17:08 13,2 C 18,9 C 82 % 1014,0 hPa 0,0 l/m 11,7 km/h (2 Bft) SW 227 0 min 0,000 mm 0,7 UV-I 173 W/m 10,2 C 10,3 C 19,3 km/h (3 Bft) 91,49 %
03.09.2017 17:10 13,2 C 18,9 C 82 % 1014,0 hPa 0,0 l/m 13,3 km/h (3 Bft) W-SW 251 0 min 0,000 mm 0,7 UV-I 169 W/m 10,2 C 9,7 C 19,3 km/h (3 Bft) 93,62 %
03.09.2017 17:12 13,3 C 18,9 C 82 % 1014,0 hPa 0,0 l/m 12,2 km/h (2 Bft) W-SW 256 0 min 0,000 mm 0,7 UV-I 165 W/m 10,3 C 10,2 C 19,3 km/h (3 Bft) 93,62 %
03.09.2017 17:14 13,3 C 18,9 C 81 % 1014,0 hPa 0,0 l/m 14,6 km/h (3 Bft) W 267 0 min 0,000 mm 0,7 UV-I 156 W/m 10,1 C 9,3 C 19,3 km/h (3 Bft) 93,62 %
03.09.2017 17:16 13,4 C 18,9 C 81 % 1014,0 hPa 0,0 l/m 12,5 km/h (3 Bft) W-SW 246 0 min 0,000 mm 0,6 UV-I 151 W/m 10,2 C 10,2 C 19,3 km/h (3 Bft) 93,62 %
03.09.2017 17:18 13,4 C 18,9 C 82 % 1013,9 hPa 0,0 l/m 11,7 km/h (2 Bft) W-SW 244 0 min 0,000 mm 0,6 UV-I 157 W/m 10,4 C 10,6 C 19,3 km/h (3 Bft) 95,74 %
03.09.2017 17:20 13,4 C 18,9 C 82 % 1014,0 hPa 0,0 l/m 13,2 km/h (3 Bft) W-SW 247 0 min 0,000 mm 0,6 UV-I 166 W/m 10,4 C 9,9 C 20,9 km/h (4 Bft) 93,62 %
03.09.2017 17:22 13,6 C 18,9 C 82 % 1013,9 hPa 0,0 l/m 12,2 km/h (2 Bft) SW 217 2 min 0,000 mm 0,7 UV-I 268 W/m 10,6 C 10,6 C 19,3 km/h (3 Bft) 94,87 %
03.09.2017 17:24 13,8 C 18,9 C 81 % 1014,0 hPa 0,0 l/m 15,2 km/h (3 Bft) SW 224 2 min 0,000 mm 0,7 UV-I 375 W/m 10,6 C 9,7 C 22,5 km/h (4 Bft) 95,74 %
03.09.2017 17:26 13,9 C 18,9 C 80 % 1014,0 hPa 0,0 l/m 15,0 km/h (3 Bft) W-SW 255 2 min 0,000 mm 0,7 UV-I 279 W/m 10,5 C 9,9 C 20,9 km/h (4 Bft) 95,74 %
03.09.2017 17:28 14,1 C 18,9 C 79 % 1014,0 hPa 0,0 l/m 14,1 km/h (3 Bft) W 276 2 min 0,000 mm 0,7 UV-I 289 W/m 10,5 C 10,4 C 20,9 km/h (4 Bft) 96,00 %
03.09.2017 17:30 14,2 C 18,9 C 78 % 1014,0 hPa 0,0 l/m 16,6 km/h (3 Bft) W 259 2 min 0,000 mm 0,7 UV-I 228 W/m 10,4 C 9,7 C 25,7 km/h (4 Bft) 95,74 %
03.09.2017 17:32 14,3 C 18,9 C 78 % 1014,0 hPa 0,0 l/m 13,3 km/h (3 Bft) W-SW 239 2 min 0,000 mm 0,7 UV-I 328 W/m 10,5 C 11,0 C 17,7 km/h (3 Bft) 97,87 %
03.09.2017 17:34 14,3 C 18,9 C 78 % 1014,0 hPa 0,0 l/m 16,0 km/h (3 Bft) W-SW 252 2 min 0,000 mm 0,6 UV-I 304 W/m 10,5 C 10,0 C 20,9 km/h (4 Bft) 95,74 %
03.09.2017 17:36 14,4 C 18,9 C 79 % 1014,0 hPa 0,0 l/m 16,4 km/h (3 Bft) W-SW 239 2 min 0,000 mm 0,6 UV-I 316 W/m 10,8 C 10,0 C 22,5 km/h (4 Bft) 95,74 %
03.09.2017 17:38 14,5 C 18,9 C 79 % 1014,0 hPa 0,0 l/m 16,5 km/h (3 Bft) W 259 2 min 0,000 mm 0,6 UV-I 324 W/m 10,9 C 10,1 C 24,1 km/h (4 Bft) 97,87 %
03.09.2017 17:40 14,6 C 18,9 C 77 % 1014,1 hPa 0,0 l/m 16,1 km/h (3 Bft) S-SW 213 2 min 0,000 mm 0,6 UV-I 333 W/m 10,6 C 10,3 C 22,5 km/h (4 Bft) 98,00 %
03.09.2017 17:42 14,6 C 18,9 C 78 % 1014,1 hPa 0,0 l/m 18,1 km/h (3 Bft) W-SW 254 2 min 0,000 mm 0,6 UV-I 320 W/m 10,8 C 9,7 C 25,7 km/h (4 Bft) 97,37 %
03.09.2017 17:44 14,6 C 18,9 C 77 % 1014,2 hPa 0,0 l/m 17,8 km/h (3 Bft) W-SW 242 2 min 0,000 mm 0,5 UV-I 307 W/m 10,6 C 9,8 C 24,1 km/h (4 Bft) 97,87 %
03.09.2017 17:46 14,6 C 18,9 C 78 % 1014,2 hPa 0,0 l/m 15,8 km/h (3 Bft) SW 233 2 min 0,000 mm 0,5 UV-I 301 W/m 10,8 C 10,4 C 24,1 km/h (4 Bft) 97,87 %
03.09.2017 17:48 14,6 C 18,9 C 77 % 1014,2 hPa 0,0 l/m 16,4 km/h (3 Bft) W-SW 250 2 min 0,000 mm 0,5 UV-I 295 W/m 10,6 C 10,3 C 25,7 km/h (4 Bft) 95,74 %
03.09.2017 17:50 14,6 C 18,9 C 78 % 1014,3 hPa 0,0 l/m 12,2 km/h (2 Bft) W-SW 250 2 min 0,000 mm 0,5 UV-I 271 W/m 10,8 C 11,7 C 17,7 km/h (3 Bft) 97,87 %
03.09.2017 17:52 14,5 C 18,9 C 78 % 1014,4 hPa 0,0 l/m 17,1 km/h (3 Bft) W 265 2 min 0,000 mm 0,2 UV-I 255 W/m 10,7 C 9,9 C 24,1 km/h (4 Bft) 97,87 %
03.09.2017 17:54 14,4 C 18,9 C 78 % 1014,4 hPa 0,0 l/m 19,0 km/h (3 Bft) W-SW 241 2 min 0,000 mm 0,0 UV-I 248 W/m 10,6 C 9,2 C 30,6 km/h (5 Bft) 98,00 %
03.09.2017 17:56 14,3 C 18,9 C 78 % 1014,5 hPa 0,0 l/m 17,3 km/h (3 Bft) W 264 2 min 0,000 mm 0,0 UV-I 245 W/m 10,5 C 9,6 C 25,7 km/h (4 Bft) 97,87 %
03.09.2017 17:58 14,2 C 18,9 C 79 % 1014,6 hPa 0,0 l/m 16,3 km/h (3 Bft) W-SW 258 2 min 0,000 mm 0,0 UV-I 230 W/m 10,6 C 9,8 C 24,1 km/h (4 Bft) 97,22 %
03.09.2017 18:00 14,2 C 18,9 C 80 % 1014,6 hPa 0,0 l/m 12,4 km/h (3 Bft) SW 221 0 min 0,152 mm 0,0 UV-I 146 W/m 10,8 C 11,2 C 20,9 km/h (4 Bft) 96,77 %
03.09.2017 18:02 14,1 C 18,9 C 79 % 1014,6 hPa 0,0 l/m 18,3 km/h (3 Bft) W-SW 240 0 min 0,000 mm 0,0 UV-I 116 W/m 10,5 C 9,1 C 25,7 km/h (4 Bft) 97,87 %
03.09.2017 18:04 13,9 C 18,9 C 79 % 1014,5 hPa 0,0 l/m 17,4 km/h (3 Bft) SW 223 2 min 0,000 mm 0,0 UV-I 145 W/m 10,3 C 9,1 C 27,4 km/h (4 Bft) 93,62 %
03.09.2017 18:06 13,8 C 18,9 C 79 % 1014,5 hPa 0,0 l/m 16,6 km/h (3 Bft) SW 223 2 min 0,000 mm 0,0 UV-I 179 W/m 10,2 C 9,2 C 32,2 km/h (5 Bft) 97,87 %
03.09.2017 18:08 13,7 C 18,9 C 78 % 1014,4 hPa 0,0 l/m 18,2 km/h (3 Bft) SW 223 2 min 0,000 mm 0,0 UV-I 156 W/m 9,9 C 8,6 C 29,0 km/h (5 Bft) 92,11 %
03.09.2017 18:10 13,6 C 18,9 C 78 % 1014,4 hPa 0,0 l/m 17,9 km/h (3 Bft) W-SW 238 0 min 0,000 mm 0,0 UV-I 107 W/m 9,8 C 8,5 C 24,1 km/h (4 Bft) 98,00 %
03.09.2017 18:12 13,5 C 18,9 C 79 % 1014,4 hPa 0,0 l/m 19,7 km/h (3 Bft) W 268 0 min 0,000 mm 0,0 UV-I 120 W/m 9,9 C 7,9 C 25,7 km/h (4 Bft) 97,87 %
03.09.2017 18:14 13,4 C 18,9 C 79 % 1014,4 hPa 0,0 l/m 18,0 km/h (3 Bft) W-SW 248 2 min 0,000 mm 0,0 UV-I 131 W/m 9,8 C 8,3 C 27,4 km/h (4 Bft) 95,74 %
03.09.2017 18:16 13,3 C 18,9 C 80 % 1014,4 hPa 0,0 l/m 14,8 km/h (3 Bft) W-SW 254 0 min 0,000 mm 0,0 UV-I 115 W/m 9,9 C 9,2 C 24,1 km/h (4 Bft) 97,87 %
03.09.2017 18:18 13,3 C 18,9 C 80 % 1014,4 hPa 0,0 l/m 21,4 km/h (4 Bft) W-SW 241 0 min 0,000 mm 0,0 UV-I 110 W/m 9,9 C 7,2 C 30,6 km/h (5 Bft) 97,87 %
03.09.2017 18:20 13,2 C 18,9 C 80 % 1014,4 hPa 0,0 l/m 16,3 km/h (3 Bft) W 268 0 min 0,000 mm 0,0 UV-I 90 W/m 9,8 C 8,6 C 22,5 km/h (4 Bft) 100,00 %
03.09.2017 18:22 13,2 C 18,9 C 80 % 1014,4 hPa 0,0 l/m 14,0 km/h (3 Bft) W-SW 238 0 min 0,000 mm 0,0 UV-I 81 W/m 9,8 C 9,4 C 19,3 km/h (3 Bft) 100,00 %
03.09.2017 18:24 13,1 C 18,9 C 81 % 1014,4 hPa 0,0 l/m 13,5 km/h (3 Bft) W 262 0 min 0,000 mm 0,0 UV-I 73 W/m 9,9 C 9,5 C 24,1 km/h (4 Bft) 98,39 %
03.09.2017 18:26 13,1 C 18,9 C 80 % 1014,3 hPa 0,0 l/m 16,5 km/h (3 Bft) W-SW 257 0 min 0,000 mm 0,0 UV-I 64 W/m 9,7 C 8,4 C 24,1 km/h (4 Bft) 100,00 %
03.09.2017 18:28 13,0 C 18,9 C 80 % 1014,4 hPa 0,0 l/m 16,7 km/h (3 Bft) W-SW 237 0 min 0,000 mm 0,0 UV-I 59 W/m 9,6 C 8,2 C 24,1 km/h (4 Bft) 100,00 %
03.09.2017 18:30 12,9 C 18,9 C 80 % 1014,3 hPa 0,0 l/m 11,1 km/h (2 Bft) W-SW 254 0 min 0,000 mm 0,0 UV-I 57 W/m 9,5 C 10,3 C 17,7 km/h (3 Bft) 97,87 %
03.09.2017 18:32 12,9 C 18,9 C 81 % 1014,4 hPa 0,0 l/m 15,6 km/h (3 Bft) SW 232 0 min 0,000 mm 0,0 UV-I 56 W/m 9,7 C 8,4 C 24,1 km/h (4 Bft) 100,00 %
03.09.2017 18:34 12,9 C 18,9 C 81 % 1014,4 hPa 0,0 l/m 15,1 km/h (3 Bft) W-SW 246 0 min 0,000 mm 0,0 UV-I 60 W/m 9,7 C 8,6 C 24,1 km/h (4 Bft) 98,00 %
03.09.2017 18:36 12,9 C 18,9 C 82 % 1014,4 hPa 0,0 l/m 15,7 km/h (3 Bft) W-SW 245 0 min 0,000 mm 0,0 UV-I 71 W/m 9,9 C 8,4 C 24,1 km/h (4 Bft) 100,00 %
03.09.2017 18:38 12,9 C 18,9 C 82 % 1014,4 hPa 0,0 l/m 14,9 km/h (3 Bft) W-SW 257 0 min 0,000 mm 0,0 UV-I 70 W/m 9,9 C 8,7 C 24,1 km/h (4 Bft) 97,92 %
03.09.2017 18:40 12,9 C 18,9 C 82 % 1014,3 hPa 0,0 l/m 16,3 km/h (3 Bft) W-SW 252 0 min 0,000 mm 0,0 UV-I 58 W/m 9,9 C 8,2 C 24,1 km/h (4 Bft) 100,00 %
03.09.2017 18:42 12,9 C 18,9 C 82 % 1014,3 hPa 0,0 l/m 16,6 km/h (3 Bft) W 271 2 min 0,000 mm 0,0 UV-I 95 W/m 9,9 C 8,1 C 27,4 km/h (4 Bft) 100,00 %
03.09.2017 18:44 12,9 C 18,9 C 82 % 1014,3 hPa 0,0 l/m 16,2 km/h (3 Bft) W-SW 248 2 min 0,000 mm 0,0 UV-I 100 W/m 9,9 C 8,2 C 27,4 km/h (4 Bft) 100,00 %
03.09.2017 18:46 13,0 C 18,9 C 81 % 1014,3 hPa 0,0 l/m 20,6 km/h (4 Bft) SW 225 2 min 0,000 mm 0,0 UV-I 97 W/m 9,8 C 7,0 C 33,8 km/h (5 Bft) 100,00 %
03.09.2017 18:48 13,1 C 18,9 C 81 % 1014,4 hPa 0,0 l/m 15,0 km/h (3 Bft) S-SW 210 2 min 0,000 mm 0,0 UV-I 95 W/m 9,9 C 8,9 C 20,9 km/h (4 Bft) 100,00 %
03.09.2017 18:50 13,1 C 18,9 C 81 % 1014,4 hPa 0,0 l/m 14,0 km/h (3 Bft) W 265 0 min 0,000 mm 0,0 UV-I 59 W/m 9,9 C 9,3 C 20,9 km/h (4 Bft) 97,87 %
03.09.2017 18:52 13,0 C 18,9 C 81 % 1014,4 hPa 0,0 l/m 11,6 km/h (2 Bft) W-SW 250 0 min 0,000 mm 0,0 UV-I 53 W/m 9,8 C 10,1 C 19,3 km/h (3 Bft) 97,92 %
03.09.2017 18:54 13,0 C 18,9 C 81 % 1014,4 hPa 0,0 l/m 9,7 km/h (2 Bft) SW 227 0 min 0,000 mm 0,0 UV-I 51 W/m 9,8 C 11,1 C 14,5 km/h (3 Bft) 95,74 %
03.09.2017 18:56 12,9 C 18,9 C 82 % 1014,5 hPa 0,0 l/m 9,2 km/h (2 Bft) SW 227 0 min 0,000 mm 0,0 UV-I 47 W/m 9,9 C 11,2 C 14,5 km/h (3 Bft) 95,74 %
03.09.2017 18:58 12,9 C 18,9 C 82 % 1014,5 hPa 0,0 l/m 8,2 km/h (2 Bft) W 264 0 min 0,000 mm 0,0 UV-I 44 W/m 9,9 C 11,8 C 14,5 km/h (3 Bft) 97,87 %
03.09.2017 19:00 12,8 C 18,9 C 82 % 1014,5 hPa 0,0 l/m 12,7 km/h (3 Bft) W-NW 298 0 min 0,076 mm 0,0 UV-I 43 W/m 9,8 C 9,4 C 22,5 km/h (4 Bft) 95,74 %
03.09.2017 19:02 12,8 C 18,9 C 82 % 1014,5 hPa 0,0 l/m 11,0 km/h (2 Bft) SW 227 0 min 0,000 mm 0,0 UV-I 39 W/m 9,8 C 10,2 C 22,5 km/h (4 Bft) 97,87 %
03.09.2017 19:04 12,8 C 18,9 C 81 % 1014,5 hPa 0,0 l/m 16,1 km/h (3 Bft) W 267 0 min 0,000 mm 0,0 UV-I 36 W/m 9,6 C 8,1 C 24,1 km/h (4 Bft) 96,00 %
03.09.2017 19:06 12,7 C 18,9 C 81 % 1014,5 hPa 0,0 l/m 16,6 km/h (3 Bft) W 279 0 min 0,000 mm 0,0 UV-I 33 W/m 9,5 C 7,8 C 22,5 km/h (4 Bft) 98,00 %
03.09.2017 19:08 12,7 C 18,9 C 81 % 1014,5 hPa 0,0 l/m 14,2 km/h (3 Bft) W-SW 254 0 min 0,000 mm 0,0 UV-I 29 W/m 9,5 C 8,7 C 22,5 km/h (4 Bft) 95,74 %
03.09.2017 19:10 12,7 C 18,9 C 81 % 1014,6 hPa 0,0 l/m 11,2 km/h (2 Bft) W-SW 237 0 min 0,000 mm 0,0 UV-I 25 W/m 9,5 C 10,0 C 17,7 km/h (3 Bft) 97,22 %
03.09.2017 19:12 12,7 C 18,9 C 81 % 1014,6 hPa 0,0 l/m 11,3 km/h (2 Bft) W 259 0 min 0,000 mm 0,0 UV-I 24 W/m 9,5 C 9,9 C 17,7 km/h (3 Bft) 96,00 %
03.09.2017 19:14 12,7 C 18,9 C 81 % 1014,7 hPa 0,0 l/m 8,4 km/h (2 Bft) W 263 0 min 0,000 mm 0,0 UV-I 20 W/m 9,5 C 11,5 C 14,5 km/h (3 Bft) 97,92 %
03.09.2017 19:16 12,6 C 18,9 C 82 % 1014,9 hPa 0,0 l/m 4,7 km/h (1 Bft) W-NW 298 0 min 0,000 mm 0,0 UV-I 18 W/m 9,6 C 12,6 C 11,3 km/h (2 Bft) 97,87 %
03.09.2017 19:18 12,6 C 18,9 C 82 % 1014,9 hPa 0,0 l/m 4,1 km/h (1 Bft) W-NW 302 0 min 0,000 mm 0,0 UV-I 14 W/m 9,6 C 12,6 C 12,9 km/h (3 Bft) 95,74 %
03.09.2017 19:20 12,5 C 18,9 C 84 % 1015,0 hPa 0,0 l/m 3,5 km/h (1 Bft) W 281 0 min 0,000 mm 0,0 UV-I 11 W/m 9,9 C 12,5 C 14,5 km/h (3 Bft) 96,00 %
03.09.2017 19:22 12,5 C 18,9 C 84 % 1015,1 hPa 0,0 l/m 10,2 km/h (2 Bft) SW 224 0 min 0,000 mm 0,0 UV-I 8 W/m 9,9 C 10,3 C 16,1 km/h (3 Bft) 97,87 %
03.09.2017 19:24 12,4 C 18,9 C 84 % 1015,1 hPa 0,2 l/m 10,1 km/h (2 Bft) W-SW 248 0 min 0,000 mm 0,0 UV-I 7 W/m 9,8 C 10,2 C 17,7 km/h (3 Bft) 95,92 %
03.09.2017 19:26 12,3 C 18,9 C 85 % 1014,8 hPa 0,2 l/m 10,7 km/h (2 Bft) W-SW 237 0 min 0,000 mm 0,0 UV-I 7 W/m 9,9 C 9,8 C 16,1 km/h (3 Bft) 97,87 %
03.09.2017 19:28 12,2 C 18,9 C 85 % 1014,8 hPa 0,0 l/m 14,5 km/h (3 Bft) W 267 0 min 0,000 mm 0,0 UV-I 7 W/m 9,8 C 8,0 C 19,3 km/h (3 Bft) 97,87 %
03.09.2017 19:30 12,2 C 18,9 C 85 % 1014,8 hPa 0,0 l/m 17,5 km/h (3 Bft) W-SW 254 0 min 0,000 mm 0,0 UV-I 6 W/m 9,8 C 6,9 C 27,4 km/h (4 Bft) 97,87 %
03.09.2017 19:32 12,1 C 18,9 C 85 % 1014,8 hPa 0,0 l/m 18,8 km/h (3 Bft) W-SW 246 0 min 0,000 mm 0,0 UV-I 5 W/m 9,7 C 6,4 C 25,7 km/h (4 Bft) 97,37 %
03.09.2017 19:34 12,1 C 18,9 C 86 % 1014,9 hPa 0,0 l/m 15,6 km/h (3 Bft) W 265 0 min 0,000 mm 0,0 UV-I 5 W/m 9,8 C 7,5 C 20,9 km/h (4 Bft) 97,87 %
03.09.2017 19:36 11,9 C 18,9 C 86 % 1015,1 hPa 0,4 l/m 15,3 km/h (3 Bft) W-SW 254 0 min 0,000 mm 0,0 UV-I 5 W/m 9,6 C 7,3 C 27,4 km/h (4 Bft) 100,00 %
03.09.2017 19:38 11,9 C 18,9 C 87 % 1015,2 hPa 0,8 l/m 10,3 km/h (2 Bft) W 259 0 min 0,000 mm 0,0 UV-I 0 W/m 9,8 C 9,5 C 14,5 km/h (3 Bft) 97,87 %
03.09.2017 19:40 11,7 C 18,9 C 88 % 1015,2 hPa 0,4 l/m 7,5 km/h (2 Bft) W 281 0 min 0,000 mm 0,0 UV-I 0 W/m 9,8 C 11,0 C 16,1 km/h (3 Bft) 100,00 %
03.09.2017 19:42 11,6 C 18,9 C 88 % 1015,3 hPa 0,8 l/m 6,7 km/h (2 Bft) W 267 0 min 0,000 mm 0,0 UV-I 0 W/m 9,7 C 11,4 C 14,5 km/h (3 Bft) 100,00 %
03.09.2017 19:44 11,5 C 18,9 C 88 % 1015,4 hPa 0,8 l/m 5,6 km/h (1 Bft) W-SW 242 0 min 0,000 mm 0,0 UV-I 0 W/m 9,6 C 11,5 C 11,3 km/h (2 Bft) 97,30 %
03.09.2017 19:46 11,4 C 18,9 C 89 % 1015,3 hPa 0,4 l/m 6,2 km/h (2 Bft) W 260 0 min 0,000 mm 0,0 UV-I 0 W/m 9,7 C 11,4 C 14,5 km/h (3 Bft) 97,87 %
03.09.2017 19:48 11,3 C 18,9 C 90 % 1015,3 hPa 0,4 l/m 3,4 km/h (1 Bft) W 263 0 min 0,000 mm 0,0 UV-I 0 W/m 9,7 C 11,3 C 6,4 km/h (2 Bft) 100,00 %
03.09.2017 19:50 11,2 C 18,9 C 90 % 1015,3 hPa 0,2 l/m 6,4 km/h (2 Bft) W-NW 290 0 min 0,000 mm 0,0 UV-I 0 W/m 9,6 C 11,2 C 11,3 km/h (2 Bft) 97,44 %
03.09.2017 19:52 11,2 C 18,9 C 91 % 1015,3 hPa 0,2 l/m 5,8 km/h (2 Bft) W-SW 244 0 min 0,000 mm 0,0 UV-I 0 W/m 9,8 C 11,2 C 9,7 km/h (2 Bft) 100,00 %
03.09.2017 19:54 11,1 C 18,9 C 91 % 1015,3 hPa 0,4 l/m 8,9 km/h (2 Bft) W-SW 243 0 min 0,000 mm 0,0 UV-I 0 W/m 9,7 C 9,4 C 14,5 km/h (3 Bft) 97,87 %
03.09.2017 19:56 11,1 C 18,9 C 91 % 1015,4 hPa 0,6 l/m 9,3 km/h (2 Bft) W 269 0 min 0,000 mm 0,0 UV-I 0 W/m 9,7 C 9,2 C 14,5 km/h (3 Bft) 100,00 %
03.09.2017 19:58 11,1 C 18,9 C 91 % 1015,3 hPa 0,4 l/m 5,9 km/h (2 Bft) SW 228 0 min 0,000 mm 0,0 UV-I 0 W/m 9,7 C 11,1 C 9,7 km/h (2 Bft) 100,00 %
03.09.2017 20:00 11,1 C 18,9 C 91 % 1015,5 hPa 0,2 l/m 7,6 km/h (2 Bft) SW 225 0 min 0,000 mm 0,0 UV-I 0 W/m 9,7 C 10,3 C 12,9 km/h (3 Bft) 98,00 %
03.09.2017 20:02 11,1 C 18,9 C 91 % 1015,5 hPa 0,2 l/m 3,4 km/h (1 Bft) W 261 0 min 0,026 mm 0,0 UV-I 0 W/m 9,7 C 11,1 C 11,3 km/h (2 Bft) 100,00 %
03.09.2017 20:04 11,1 C 18,9 C 91 % 1015,6 hPa 0,2 l/m 2,4 km/h (1 Bft) W 261 0 min 0,000 mm 0,0 UV-I 0 W/m 9,7 C 11,1 C 4,8 km/h (1 Bft) 100,00 %
03.09.2017 20:06 11,0 C 18,9 C 91 % 1015,6 hPa 0,4 l/m 3,5 km/h (1 Bft) W 261 0 min 0,000 mm 0,0 UV-I 0 W/m 9,6 C 11,0 C 4,8 km/h (1 Bft) 100,00 %
03.09.2017 20:08 10,9 C 18,9 C 92 % 1015,6 hPa 0,2 l/m 4,1 km/h (1 Bft) W 261 0 min 0,000 mm 0,0 UV-I 0 W/m 9,7 C 10,9 C 6,4 km/h (2 Bft) 97,87 %
03.09.2017 20:10 10,8 C 18,9 C 92 % 1015,6 hPa 0,4 l/m 3,6 km/h (1 Bft) W 267 0 min 0,000 mm 0,0 UV-I 0 W/m 9,6 C 10,8 C 8,0 km/h (2 Bft) 97,87 %
03.09.2017 20:12 10,8 C 18,9 C 92 % 1015,6 hPa 0,2 l/m 2,3 km/h (1 Bft) W 270 0 min 0,000 mm 0,0 UV-I 0 W/m 9,6 C 10,8 C 4,8 km/h (1 Bft) 98,11 %
03.09.2017 20:14 10,8 C 18,9 C 93 % 1015,6 hPa 0,4 l/m 2,0 km/h (1 Bft) W-NW 290 0 min 0,000 mm 0,0 UV-I 0 W/m 9,7 C 10,8 C 8,0 km/h (2 Bft) 100,00 %
03.09.2017 20:16 10,7 C 18,9 C 93 % 1015,6 hPa 0,4 l/m 2,8 km/h (1 Bft) W 274 0 min 0,000 mm 0,0 UV-I 0 W/m 9,6 C 10,7 C 6,4 km/h (2 Bft) 97,87 %
03.09.2017 20:18 10,7 C 18,9 C 93 % 1015,6 hPa 0,4 l/m 2,6 km/h (1 Bft) W-SW 246 0 min 0,000 mm 0,0 UV-I 0 W/m 9,6 C 10,7 C 4,8 km/h (1 Bft) 97,87 %
03.09.2017 20:20 10,7 C 18,9 C 93 % 1015,6 hPa 0,2 l/m 4,6 km/h (1 Bft) SW 215 0 min 0,000 mm 0,0 UV-I 0 W/m 9,6 C 10,7 C 8,0 km/h (2 Bft) 100,00 %
03.09.2017 20:22 10,7 C 18,9 C 93 % 1015,6 hPa 0,4 l/m 3,7 km/h (1 Bft) S-SW 206 0 min 0,000 mm 0,0 UV-I 0 W/m 9,6 C 10,7 C 6,4 km/h (2 Bft) 100,00 %
03.09.2017 20:24 10,7 C 18,9 C 93 % 1015,7 hPa 0,2 l/m 2,6 km/h (1 Bft) S-SW 206 0 min 0,000 mm 0,0 UV-I 0 W/m 9,6 C 10,7 C 4,8 km/h (1 Bft) 100,00 %
03.09.2017 20:26 10,7 C 18,9 C 94 % 1015,6 hPa 0,2 l/m 0,7 km/h (0 Bft) S-SW 206 0 min 0,000 mm 0,0 UV-I 0 W/m 9,8 C 10,7 C 3,2 km/h (1 Bft) 100,00 %
03.09.2017 20:28 10,7 C 18,9 C 94 % 1015,6 hPa 0,2 l/m 0,2 km/h (0 Bft) S-SW 206 0 min 0,000 mm 0,0 UV-I 0 W/m 9,8 C 10,7 C 3,2 km/h (1 Bft) 100,00 %
03.09.2017 20:30 10,7 C 18,9 C 94 % 1015,7 hPa 0,2 l/m 3,6 km/h (1 Bft) S-SW 207 0 min 0,000 mm 0,0 UV-I 0 W/m 9,8 C 10,7 C 4,8 km/h (1 Bft) 100,00 %
03.09.2017 20:32 10,7 C 18,9 C 94 % 1015,7 hPa 0,2 l/m 2,2 km/h (1 Bft) S-SW 207 0 min 0,000 mm 0,0 UV-I 0 W/m 9,8 C 10,7 C 4,8 km/h (1 Bft) 97,96 %
03.09.2017 20:34 10,8 C 18,9 C 94 % 1015,8 hPa 0,0 l/m 3,2 km/h (1 Bft) S-SW 208 0 min 0,000 mm 0,0 UV-I 0 W/m 9,9 C 10,8 C 4,8 km/h (1 Bft) 100,00 %
03.09.2017 20:36 10,8 C 18,9 C 94 % 1015,9 hPa 0,2 l/m 2,4 km/h (1 Bft) S-SW 211 0 min 0,000 mm 0,0 UV-I 0 W/m 9,9 C 10,8 C 4,8 km/h (1 Bft) 100,00 %
03.09.2017 20:38 10,8 C 18,9 C 94 % 1015,9 hPa 0,0 l/m 0,3 km/h (0 Bft) S-SW 211 0 min 0,000 mm 0,0 UV-I 0 W/m 9,9 C 10,8 C 1,6 km/h (1 Bft) 100,00 %
03.09.2017 20:40 10,7 C 18,9 C 94 % 1016,0 hPa 0,0 l/m 1,7 km/h (1 Bft) NW 313 0 min 0,000 mm 0,0 UV-I 0 W/m 9,8 C 10,7 C 4,8 km/h (1 Bft) 95,74 %
03.09.2017 20:42 10,7 C 18,9 C 94 % 1016,0 hPa 0,0 l/m 1,2 km/h (1 Bft) NW 321 0 min 0,000 mm 0,0 UV-I 0 W/m 9,8 C 10,7 C 4,8 km/h (1 Bft) 100,00 %
03.09.2017 20:44 10,7 C 18,9 C 94 % 1015,9 hPa 0,0 l/m 0,3 km/h (0 Bft) NW 322 0 min 0,000 mm 0,0 UV-I 0 W/m 9,8 C 10,7 C 1,6 km/h (1 Bft) 100,00 %
03.09.2017 20:46 10,7 C 18,9 C 95 % 1015,9 hPa 0,2 l/m 2,5 km/h (1 Bft) W 281 0 min 0,000 mm 0,0 UV-I 0 W/m 9,9 C 10,7 C 4,8 km/h (1 Bft) 97,14 %
03.09.2017 20:48 10,7 C 18,9 C 95 % 1015,8 hPa 0,0 l/m 4,3 km/h (1 Bft) S 173 0 min 0,000 mm 0,0 UV-I 0 W/m 9,9 C 10,7 C 6,4 km/h (2 Bft) 100,00 %
03.09.2017 20:50 10,7 C 18,9 C 95 % 1015,9 hPa 0,0 l/m 4,5 km/h (1 Bft) S-SW 194 0 min 0,000 mm 0,0 UV-I 0 W/m 9,9 C 10,7 C 6,4 km/h (2 Bft) 96,00 %
03.09.2017 20:52 10,7 C 18,9 C 95 % 1015,9 hPa 0,0 l/m 4,5 km/h (1 Bft) S-SW 194 0 min 0,000 mm 0,0 UV-I 0 W/m 9,9 C 10,7 C 6,4 km/h (2 Bft) 97,87 %
03.09.2017 20:54 10,7 C 18,9 C 95 % 1015,8 hPa 0,2 l/m 2,7 km/h (1 Bft) S 180 0 min 0,000 mm 0,0 UV-I 0 W/m 9,9 C 10,7 C 4,8 km/h (1 Bft) 96,00 %
03.09.2017 20:56 10,7 C 18,9 C 95 % 1015,8 hPa 0,2 l/m 2,6 km/h (1 Bft) S 178 0 min 0,000 mm 0,0 UV-I 0 W/m 9,9 C 10,7 C 4,8 km/h (1 Bft) 97,87 %
03.09.2017 20:58 10,7 C 18,9 C 95 % 1015,7 hPa 0,0 l/m 3,4 km/h (1 Bft) S 181 0 min 0,000 mm 0,0 UV-I 0 W/m 9,9 C 10,7 C 6,4 km/h (2 Bft) 97,37 %
03.09.2017 21:00 10,7 C 18,9 C 95 % 1015,7 hPa 0,2 l/m 3,5 km/h (1 Bft) S-SW 197 0 min 0,000 mm 0,0 UV-I 0 W/m 9,9 C 10,7 C 6,4 km/h (2 Bft) 95,74 %
03.09.2017 21:02 10,7 C 18,9 C 95 % 1015,7 hPa 0,0 l/m 2,4 km/h (1 Bft) S-SW 196 0 min 0,000 mm 0,0 UV-I 0 W/m 9,9 C 10,7 C 6,4 km/h (2 Bft) 93,62 %
03.09.2017 21:04 10,7 C 18,9 C 95 % 1015,7 hPa 0,0 l/m 1,1 km/h (1 Bft) S-SW 196 0 min 0,000 mm 0,0 UV-I 0 W/m 9,9 C 10,7 C 3,2 km/h (1 Bft) 91,49 %
03.09.2017 21:06 10,7 C 18,9 C 95 % 1015,7 hPa 0,0 l/m 0,8 km/h (0 Bft) S-SW 196 0 min 0,000 mm 0,0 UV-I 0 W/m 9,9 C 10,7 C 3,2 km/h (1 Bft) 95,74 %
03.09.2017 21:08 10,7 C 18,9 C 95 % 1015,8 hPa 0,0 l/m 0,6 km/h (0 Bft) S-SW 196 0 min 0,000 mm 0,0 UV-I 0 W/m 9,9 C 10,7 C 3,2 km/h (1 Bft) 95,74 %
03.09.2017 21:10 10,7 C 18,9 C 95 % 1015,8 hPa 0,0 l/m 0,5 km/h (0 Bft) S-SW 196 0 min 0,000 mm 0,0 UV-I 0 W/m 9,9 C 10,7 C 1,6 km/h (1 Bft) 94,44 %
03.09.2017 21:12 10,7 C 18,9 C 95 % 1015,8 hPa 0,0 l/m 1,1 km/h (1 Bft) S 190 0 min 0,000 mm 0,0 UV-I 0 W/m 9,9 C 10,7 C 3,2 km/h (1 Bft) 95,16 %
03.09.2017 21:14 10,7 C 18,9 C 95 % 1015,7 hPa 0,0 l/m 2,6 km/h (1 Bft) S 190 0 min 0,000 mm 0,0 UV-I 0 W/m 9,9 C 10,7 C 4,8 km/h (1 Bft) 95,74 %
03.09.2017 21:16 10,7 C 18,9 C 95 % 1015,7 hPa 0,0 l/m 2,3 km/h (1 Bft) S 188 0 min 0,000 mm 0,0 UV-I 0 W/m 9,9 C 10,7 C 4,8 km/h (1 Bft) 95,92 %
03.09.2017 21:18 10,7 C 18,9 C 95 % 1015,7 hPa 0,2 l/m 1,5 km/h (1 Bft) S 188 0 min 0,000 mm 0,0 UV-I 0 W/m 9,9 C 10,7 C 3,2 km/h (1 Bft) 93,62 %
03.09.2017 21:20 10,7 C 18,9 C 95 % 1015,8 hPa 0,0 l/m 1,4 km/h (1 Bft) S 188 0 min 0,000 mm 0,0 UV-I 0 W/m 9,9 C 10,7 C 3,2 km/h (1 Bft) 93,62 %
03.09.2017 21:22 10,7 C 18,9 C 95 % 1015,7 hPa 0,0 l/m 1,4 km/h (1 Bft) S 188 0 min 0,000 mm 0,0 UV-I 0 W/m 9,9 C 10,7 C 3,2 km/h (1 Bft) 96,00 %
03.09.2017 21:24 10,7 C 18,9 C 95 % 1015,7 hPa 0,2 l/m 3,2 km/h (1 Bft) S 188 0 min 0,000 mm 0,0 UV-I 0 W/m 9,9 C 10,7 C 6,4 km/h (2 Bft) 93,62 %
03.09.2017 21:26 10,8 C 18,9 C 95 % 1015,7 hPa 0,0 l/m 3,3 km/h (1 Bft) S 189 0 min 0,000 mm 0,0 UV-I 0 W/m 10,0 C 10,8 C 6,4 km/h (2 Bft) 97,87 %
03.09.2017 21:28 10,7 C 18,9 C 95 % 1015,7 hPa 0,0 l/m 2,0 km/h (1 Bft) S 189 0 min 0,000 mm 0,0 UV-I 0 W/m 9,9 C 10,7 C 3,2 km/h (1 Bft) 94,74 %
03.09.2017 21:30 10,7 C 18,9 C 95 % 1015,7 hPa 0,0 l/m 2,7 km/h (1 Bft) S 184 0 min 0,000 mm 0,0 UV-I 0 W/m 9,9 C 10,7 C 8,0 km/h (2 Bft) 97,87 %
03.09.2017 21:32 10,7 C 18,9 C 95 % 1015,7 hPa 0,0 l/m 3,4 km/h (1 Bft) S-SW 194 0 min 0,000 mm 0,0 UV-I 0 W/m 9,9 C 10,7 C 6,4 km/h (2 Bft) 94,00 %
03.09.2017 21:34 10,7 C 18,9 C 95 % 1015,8 hPa 0,0 l/m 3,7 km/h (1 Bft) S 190 0 min 0,000 mm 0,0 UV-I 0 W/m 9,9 C 10,7 C 8,0 km/h (2 Bft) 97,87 %
03.09.2017 21:36 10,7 C 18,9 C 95 % 1015,8 hPa 0,0 l/m 2,9 km/h (1 Bft) S 190 0 min 0,000 mm 0,0 UV-I 0 W/m 9,9 C 10,7 C 4,8 km/h (1 Bft) 95,74 %
03.09.2017 21:38 10,7 C 18,9 C 95 % 1015,8 hPa 0,0 l/m 3,4 km/h (1 Bft) S 190 0 min 0,000 mm 0,0 UV-I 0 W/m 9,9 C 10,7 C 6,4 km/h (2 Bft) 95,74 %
03.09.2017 21:40 10,7 C 18,9 C 95 % 1015,7 hPa 0,0 l/m 1,6 km/h (1 Bft) S 190 0 min 0,000 mm 0,0 UV-I 0 W/m 9,9 C 10,7 C 3,2 km/h (1 Bft) 97,87 %
03.09.2017 21:42 10,7 C 18,9 C 95 % 1015,8 hPa 0,0 l/m 2,1 km/h (1 Bft) S 190 0 min 0,000 mm 0,0 UV-I 0 W/m 9,9 C 10,7 C 3,2 km/h (1 Bft) 97,87 %
03.09.2017 21:44 10,7 C 18,9 C 95 % 1015,8 hPa 0,0 l/m 1,6 km/h (1 Bft) S 190 0 min 0,000 mm 0,0 UV-I 0 W/m 9,9 C 10,7 C 4,8 km/h (1 Bft) 96,00 %
03.09.2017 21:46 10,7 C 18,9 C 95 % 1015,8 hPa 0,0 l/m 2,8 km/h (1 Bft) S 190 0 min 0,000 mm 0,0 UV-I 0 W/m 9,9 C 10,7 C 4,8 km/h (1 Bft) 97,37 %
03.09.2017 21:48 10,7 C 18,9 C 95 % 1015,8 hPa 0,0 l/m 4,4 km/h (1 Bft) SW 218 0 min 0,000 mm 0,0 UV-I 0 W/m 9,9 C 10,7 C 8,0 km/h (2 Bft) 97,87 %
03.09.2017 21:50 10,7 C 18,9 C 95 % 1015,8 hPa 0,0 l/m 3,4 km/h (1 Bft) SW 218 0 min 0,000 mm 0,0 UV-I 0 W/m 9,9 C 10,7 C 4,8 km/h (1 Bft) 97,92 %
03.09.2017 21:52 10,7 C 18,9 C 95 % 1015,8 hPa 0,0 l/m 2,7 km/h (1 Bft) SW 218 0 min 0,000 mm 0,0 UV-I 0 W/m 9,9 C 10,7 C 3,2 km/h (1 Bft) 97,87 %
03.09.2017 21:54 10,7 C 18,9 C 95 % 1015,8 hPa 0,0 l/m 4,1 km/h (1 Bft) SW 218 0 min 0,000 mm 0,0 UV-I 0 W/m 9,9 C 10,7 C 6,4 km/h (2 Bft) 95,74 %
03.09.2017 21:56 10,7 C 18,9 C 95 % 1015,8 hPa 0,0 l/m 3,6 km/h (1 Bft) SW 218 0 min 0,000 mm 0,0 UV-I 0 W/m 9,9 C 10,7 C 4,8 km/h (1 Bft) 95,74 %
03.09.2017 21:58 10,7 C 18,9 C 95 % 1015,8 hPa 0,0 l/m 2,5 km/h (1 Bft) SW 218 0 min 0,000 mm 0,0 UV-I 0 W/m 9,9 C 10,7 C 4,8 km/h (1 Bft) 97,87 %
03.09.2017 22:00 10,7 C 18,9 C 95 % 1015,8 hPa 0,0 l/m 3,4 km/h (1 Bft) SW 218 0 min 0,000 mm 0,0 UV-I 0 W/m 9,9 C 10,7 C 4,8 km/h (1 Bft) 97,87 %
03.09.2017 22:02 10,8 C 18,9 C 95 % 1015,7 hPa 0,0 l/m 4,1 km/h (1 Bft) SW 231 0 min 0,000 mm 0,0 UV-I 0 W/m 10,0 C 10,8 C 8,0 km/h (2 Bft) 98,00 %
03.09.2017 22:04 10,8 C 18,9 C 95 % 1015,7 hPa 0,0 l/m 5,8 km/h (2 Bft) SW 226 0 min 0,000 mm 0,0 UV-I 0 W/m 10,0 C 10,8 C 8,0 km/h (2 Bft) 98,00 %
03.09.2017 22:06 10,8 C 18,9 C 95 % 1015,7 hPa 0,0 l/m 4,6 km/h (1 Bft) SW 226 0 min 0,000 mm 0,0 UV-I 0 W/m 10,0 C 10,8 C 6,4 km/h (2 Bft) 100,00 %
03.09.2017 22:08 10,8 C 18,9 C 95 % 1015,7 hPa 0,0 l/m 4,7 km/h (1 Bft) SW 226 0 min 0,000 mm 0,0 UV-I 0 W/m 10,0 C 10,8 C 8,0 km/h (2 Bft) 100,00 %
03.09.2017 22:10 10,8 C 18,9 C 95 % 1015,7 hPa 0,0 l/m 5,3 km/h (1 Bft) SW 226 0 min 0,000 mm 0,0 UV-I 0 W/m 10,0 C 10,8 C 8,0 km/h (2 Bft) 100,00 %
03.09.2017 22:12 10,8 C 18,9 C 95 % 1015,8 hPa 0,0 l/m 5,1 km/h (1 Bft) SW 227 0 min 0,000 mm 0,0 UV-I 0 W/m 10,0 C 10,8 C 8,0 km/h (2 Bft) 100,00 %
03.09.2017 22:14 10,8 C 18,9 C 95 % 1015,7 hPa 0,0 l/m 5,7 km/h (1 Bft) SW 227 0 min 0,000 mm 0,0 UV-I 0 W/m 10,0 C 10,8 C 9,7 km/h (2 Bft) 100,00 %
03.09.2017 22:16 10,8 C 18,9 C 95 % 1015,8 hPa 0,0 l/m 5,8 km/h (2 Bft) SW 227 0 min 0,000 mm 0,0 UV-I 0 W/m 10,0 C 10,8 C 8,0 km/h (2 Bft) 100,00 %
03.09.2017 22:18 10,8 C 18,9 C 95 % 1015,8 hPa 0,0 l/m 6,0 km/h (2 Bft) SW 231 0 min 0,000 mm 0,0 UV-I 0 W/m 10,0 C 10,8 C 8,0 km/h (2 Bft) 100,00 %
03.09.2017 22:20 10,8 C 18,9 C 95 % 1015,7 hPa 0,0 l/m 6,2 km/h (2 Bft) SW 220 0 min 0,000 mm 0,0 UV-I 0 W/m 10,0 C 10,8 C 9,7 km/h (2 Bft) 100,00 %
03.09.2017 22:22 10,8 C 18,9 C 95 % 1015,8 hPa 0,0 l/m 6,0 km/h (2 Bft) SW 215 0 min 0,000 mm 0,0 UV-I 0 W/m 10,0 C 10,8 C 9,7 km/h (2 Bft) 100,00 %
03.09.2017 22:24 10,8 C 18,9 C 95 % 1015,8 hPa 0,0 l/m 6,7 km/h (2 Bft) W-SW 255 0 min 0,000 mm 0,0 UV-I 0 W/m 10,0 C 10,6 C 11,3 km/h (2 Bft) 100,00 %
03.09.2017 22:26 10,8 C 18,9 C 95 % 1015,7 hPa 0,0 l/m 7,2 km/h (2 Bft) SW 225 0 min 0,000 mm 0,0 UV-I 0 W/m 10,0 C 10,2 C 11,3 km/h (2 Bft) 100,00 %
03.09.2017 22:28 10,7 C 18,9 C 95 % 1015,7 hPa 0,0 l/m 6,5 km/h (2 Bft) S-SW 204 0 min 0,000 mm 0,0 UV-I 0 W/m 9,9 C 10,7 C 11,3 km/h (2 Bft) 100,00 %
03.09.2017 22:30 10,7 C 18,9 C 95 % 1015,7 hPa 0,0 l/m 7,3 km/h (2 Bft) SW 221 0 min 0,000 mm 0,0 UV-I 0 W/m 9,9 C 10,1 C 12,9 km/h (3 Bft) 100,00 %
03.09.2017 22:32 10,7 C 18,9 C 95 % 1015,7 hPa 0,0 l/m 6,3 km/h (2 Bft) SW 219 0 min 0,000 mm 0,0 UV-I 0 W/m 9,9 C 10,7 C 9,7 km/h (2 Bft) 97,87 %
03.09.2017 22:34 10,7 C 18,9 C 95 % 1015,7 hPa 0,0 l/m 6,8 km/h (2 Bft) S-SW 213 0 min 0,000 mm 0,0 UV-I 0 W/m 9,9 C 10,4 C 9,7 km/h (2 Bft) 100,00 %
03.09.2017 22:36 10,7 C 18,9 C 95 % 1015,7 hPa 0,0 l/m 5,7 km/h (1 Bft) S-SW 211 0 min 0,000 mm 0,0 UV-I 0 W/m 9,9 C 10,7 C 9,7 km/h (2 Bft) 93,62 %
03.09.2017 22:38 10,7 C 18,9 C 95 % 1015,7 hPa 0,0 l/m 6,5 km/h (2 Bft) SW 227 0 min 0,000 mm 0,0 UV-I 0 W/m 9,9 C 10,7 C 11,3 km/h (2 Bft) 100,00 %
03.09.2017 22:40 10,7 C 18,9 C 95 % 1015,7 hPa 0,0 l/m 6,7 km/h (2 Bft) SW 226 0 min 0,000 mm 0,0 UV-I 0 W/m 9,9 C 10,5 C 9,7 km/h (2 Bft) 95,74 %
03.09.2017 22:42 10,7 C 18,9 C 95 % 1015,7 hPa 0,0 l/m 4,3 km/h (1 Bft) S-SW 213 0 min 0,000 mm 0,0 UV-I 0 W/m 9,9 C 10,7 C 6,4 km/h (2 Bft) 100,00 %
03.09.2017 22:44 10,7 C 18,9 C 95 % 1015,6 hPa 0,0 l/m 6,3 km/h (2 Bft) S-SW 211 0 min 0,000 mm 0,0 UV-I 0 W/m 9,9 C 10,7 C 9,7 km/h (2 Bft) 100,00 %
03.09.2017 22:46 10,7 C 18,9 C 95 % 1015,6 hPa 0,0 l/m 6,4 km/h (2 Bft) SW 220 0 min 0,000 mm 0,0 UV-I 0 W/m 9,9 C 10,7 C 8,0 km/h (2 Bft) 100,00 %
03.09.2017 22:48 10,7 C 18,9 C 95 % 1015,6 hPa 0,0 l/m 7,1 km/h (2 Bft) S-SW 204 0 min 0,000 mm 0,0 UV-I 0 W/m 9,9 C 10,2 C 9,7 km/h (2 Bft) 98,00 %
03.09.2017 22:50 10,7 C 18,9 C 95 % 1015,6 hPa 0,0 l/m 8,4 km/h (2 Bft) S-SW 213 0 min 0,000 mm 0,0 UV-I 0 W/m 9,9 C 9,3 C 12,9 km/h (3 Bft) 97,87 %
03.09.2017 22:52 10,7 C 18,9 C 94 % 1015,6 hPa 0,0 l/m 7,6 km/h (2 Bft) S-SW 211 0 min 0,000 mm 0,0 UV-I 0 W/m 9,8 C 9,9 C 11,3 km/h (2 Bft) 94,29 %
03.09.2017 22:54 10,7 C 18,9 C 94 % 1015,6 hPa 0,0 l/m 8,0 km/h (2 Bft) SW 236 0 min 0,000 mm 0,0 UV-I 0 W/m 9,8 C 9,6 C 12,9 km/h (3 Bft) 93,62 %
03.09.2017 22:56 10,7 C 18,3 C 94 % 1015,7 hPa 0,0 l/m 6,9 km/h (2 Bft) SW 224 0 min 0,000 mm 0,0 UV-I 0 W/m 9,8 C 10,4 C 11,3 km/h (2 Bft) 98,00 %
03.09.2017 22:58 10,7 C 18,3 C 94 % 1015,6 hPa 0,0 l/m 5,6 km/h (1 Bft) SW 227 0 min 0,000 mm 0,0 UV-I 0 W/m 9,8 C 10,7 C 8,0 km/h (2 Bft) 98,00 %
03.09.2017 23:00 10,7 C 18,3 C 94 % 1015,7 hPa 0,0 l/m 6,3 km/h (2 Bft) S-SW 205 0 min 0,000 mm 0,0 UV-I 0 W/m 9,8 C 10,7 C 11,3 km/h (2 Bft) 95,74 %
03.09.2017 23:02 10,7 C 18,3 C 94 % 1015,7 hPa 0,0 l/m 8,0 km/h (2 Bft) SW 224 0 min 0,000 mm 0,0 UV-I 0 W/m 9,8 C 9,6 C 11,3 km/h (2 Bft) 96,00 %
03.09.2017 23:04 10,7 C 18,3 C 94 % 1015,7 hPa 0,0 l/m 8,2 km/h (2 Bft) SW 215 0 min 0,000 mm 0,0 UV-I 0 W/m 9,8 C 9,5 C 12,9 km/h (3 Bft) 95,74 %
03.09.2017 23:06 10,7 C 18,3 C 94 % 1015,7 hPa 0,0 l/m 6,9 km/h (2 Bft) S-SW 213 0 min 0,000 mm 0,0 UV-I 0 W/m 9,8 C 10,4 C 9,7 km/h (2 Bft) 97,87 %
03.09.2017 23:08 10,7 C 18,3 C 94 % 1015,7 hPa 0,0 l/m 7,1 km/h (2 Bft) SW 233 0 min 0,000 mm 0,0 UV-I 0 W/m 9,8 C 10,2 C 11,3 km/h (2 Bft) 97,87 %
03.09.2017 23:10 10,7 C 18,3 C 94 % 1015,7 hPa 0,0 l/m 7,4 km/h (2 Bft) SW 234 0 min 0,000 mm 0,0 UV-I 0 W/m 9,8 C 10,0 C 11,3 km/h (2 Bft) 97,87 %
03.09.2017 23:12 10,7 C 18,3 C 94 % 1015,7 hPa 0,0 l/m 7,7 km/h (2 Bft) SW 224 0 min 0,000 mm 0,0 UV-I 0 W/m 9,8 C 9,8 C 12,9 km/h (3 Bft) 97,87 %
03.09.2017 23:14 10,7 C 18,3 C 94 % 1015,7 hPa 0,0 l/m 6,2 km/h (2 Bft) SW 226 0 min 0,000 mm 0,0 UV-I 0 W/m 9,8 C 10,7 C 9,7 km/h (2 Bft) 94,87 %
03.09.2017 23:16 10,7 C 18,3 C 94 % 1015,7 hPa 0,0 l/m 6,3 km/h (2 Bft) W-SW 238 0 min 0,000 mm 0,0 UV-I 0 W/m 9,8 C 10,7 C 9,7 km/h (2 Bft) 97,87 %
03.09.2017 23:18 10,6 C 18,3 C 94 % 1015,7 hPa 0,0 l/m 6,0 km/h (2 Bft) SW 229 0 min 0,000 mm 0,0 UV-I 0 W/m 9,7 C 10,6 C 8,0 km/h (2 Bft) 97,96 %
03.09.2017 23:20 10,6 C 18,3 C 94 % 1015,7 hPa 0,0 l/m 5,2 km/h (1 Bft) W-SW 238 0 min 0,000 mm 0,0 UV-I 0 W/m 9,7 C 10,6 C 8,0 km/h (2 Bft) 91,84 %
03.09.2017 23:22 10,6 C 18,3 C 94 % 1015,7 hPa 0,0 l/m 5,9 km/h (2 Bft) S-SW 211 0 min 0,000 mm 0,0 UV-I 0 W/m 9,7 C 10,6 C 8,0 km/h (2 Bft) 95,74 %
03.09.2017 23:24 10,6 C 18,3 C 94 % 1015,7 hPa 0,0 l/m 6,9 km/h (2 Bft) S-SW 205 0 min 0,000 mm 0,0 UV-I 0 W/m 9,7 C 10,3 C 11,3 km/h (2 Bft) 95,74 %
03.09.2017 23:26 10,6 C 18,3 C 94 % 1015,7 hPa 0,0 l/m 6,7 km/h (2 Bft) S-SW 211 0 min 0,000 mm 0,0 UV-I 0 W/m 9,7 C 10,4 C 9,7 km/h (2 Bft) 98,00 %
03.09.2017 23:28 10,6 C 18,3 C 94 % 1015,7 hPa 0,0 l/m 6,3 km/h (2 Bft) SW 215 0 min 0,000 mm 0,0 UV-I 0 W/m 9,7 C 10,6 C 9,7 km/h (2 Bft) 97,50 %
03.09.2017 23:30 10,6 C 18,3 C 94 % 1015,7 hPa 0,0 l/m 6,6 km/h (2 Bft) S-SW 210 0 min 0,000 mm 0,0 UV-I 0 W/m 9,7 C 10,5 C 9,7 km/h (2 Bft) 100,00 %
03.09.2017 23:32 10,6 C 18,3 C 94 % 1015,7 hPa 0,0 l/m 7,1 km/h (2 Bft) S-SW 206 0 min 0,000 mm 0,0 UV-I 0 W/m 9,7 C 10,1 C 9,7 km/h (2 Bft) 100,00 %
03.09.2017 23:34 10,6 C 18,3 C 94 % 1015,7 hPa 0,0 l/m 7,0 km/h (2 Bft) SW 216 0 min 0,000 mm 0,0 UV-I 0 W/m 9,7 C 10,2 C 9,7 km/h (2 Bft) 97,87 %
03.09.2017 23:36 10,6 C 18,3 C 94 % 1015,6 hPa 0,0 l/m 7,4 km/h (2 Bft) SW 224 0 min 0,000 mm 0,0 UV-I 0 W/m 9,7 C 9,9 C 11,3 km/h (2 Bft) 95,74 %
03.09.2017 23:38 10,6 C 18,3 C 94 % 1015,6 hPa 0,0 l/m 7,3 km/h (2 Bft) SW 215 0 min 0,000 mm 0,0 UV-I 0 W/m 9,7 C 10,0 C 9,7 km/h (2 Bft) 100,00 %
03.09.2017 23:40 10,6 C 18,3 C 94 % 1015,7 hPa 0,0 l/m 6,3 km/h (2 Bft) S-SW 212 0 min 0,000 mm 0,0 UV-I 0 W/m 9,7 C 10,6 C 9,7 km/h (2 Bft) 97,87 %
03.09.2017 23:42 10,6 C 18,3 C 94 % 1015,7 hPa 0,0 l/m 6,3 km/h (2 Bft) S-SW 211 0 min 0,000 mm 0,0 UV-I 0 W/m 9,7 C 10,6 C 9,7 km/h (2 Bft) 100,00 %
03.09.2017 23:44 10,6 C 18,3 C 94 % 1015,6 hPa 0,0 l/m 7,9 km/h (2 Bft) S-SW 211 0 min 0,000 mm 0,0 UV-I 0 W/m 9,7 C 9,5 C 11,3 km/h (2 Bft) 97,14 %
03.09.2017 23:46 10,6 C 18,3 C 94 % 1015,7 hPa 0,0 l/m 6,1 km/h (2 Bft) SW 216 0 min 0,000 mm 0,0 UV-I 0 W/m 9,7 C 10,6 C 8,0 km/h (2 Bft) 100,00 %
03.09.2017 23:48 10,6 C 18,3 C 94 % 1015,6 hPa 0,0 l/m 5,4 km/h (1 Bft) SW 234 0 min 0,000 mm 0,0 UV-I 0 W/m 9,7 C 10,6 C 8,0 km/h (2 Bft) 97,87 %
03.09.2017 23:50 10,6 C 18,3 C 94 % 1015,7 hPa 0,0 l/m 4,7 km/h (1 Bft) S-SW 202 0 min 0,000 mm 0,0 UV-I 0 W/m 9,7 C 10,6 C 8,0 km/h (2 Bft) 95,74 %
03.09.2017 23:52 10,6 C 18,3 C 94 % 1015,6 hPa 0,0 l/m 5,4 km/h (1 Bft) SW 232 0 min 0,000 mm 0,0 UV-I 0 W/m 9,7 C 10,6 C 8,0 km/h (2 Bft) 97,87 %
03.09.2017 23:54 10,6 C 18,3 C 94 % 1015,7 hPa 0,0 l/m 5,4 km/h (1 Bft) S-SW 208 0 min 0,000 mm 0,0 UV-I 0 W/m 9,7 C 10,6 C 8,0 km/h (2 Bft) 97,87 %
03.09.2017 23:56 10,6 C 18,3 C 94 % 1015,6 hPa 0,0 l/m 4,9 km/h (1 Bft) SW 217 0 min 0,000 mm 0,0 UV-I 0 W/m 9,7 C 10,6 C 6,4 km/h (2 Bft) 95,74 %
03.09.2017 23:58 10,6 C 18,3 C 95 % 1015,7 hPa 0,0 l/m 5,9 km/h (2 Bft) SW 227 0 min 0,000 mm 0,0 UV-I 0 W/m 9,8 C 10,6 C 9,7 km/h (2 Bft) 100,00 %
_ Min-Zeit 23:18 22:56 16:04 05:48 - 20:28 - - - - - - 19:06 19:32 20:38 09:30
Minimum _ 10,6 C 18,3 C 73 % 1013,7 hPa - 0,2 km/h (0 Bft) - - - - - - 9,5 C 6,4 C 1,6 km/h (1 Bft) 89,36 %
_ Max-Zeit 16:10 00:00 00:04 20:40 19:38 16:28 - - 14:56 16:00 15:06 15:04 15:06 15:24 18:46 00:02
Maximum _ 15,7 C 20,0 C 97 % 1016,0 hPa 0,8 l/m 21,4 km/h
W-SW (4 Bft)
- - 2 min 0,254 mm 2,7 UV-I 671 W/m 11,9 C 15,3 C 33,8 km/h
W-SW (5 Bft)
100,00 %
Durchschnitt _ 11,8 C 19,1 C 92 % 1014,6 hPa #29,8 l/m 7,3 km/h (2 Bft) W-SW - #1:50 h #1,194 mm 1,0 UV-I 154 W/m 10,6 C 10,8 C 12,3 km/h (3 Bft) 97,81 %